GFSNE_sfc_wetblb_000.txt.gz
Wetbulb
65.49 64.92 63.81 64.12 62.94 62.37 61.74 60.42 57.28 53.28 53.26 56.58 57.49 60.57 60.59 61.06 61.61 62.80 63.06 63.11 63.52 63.43 63.31 63.71 64.59 66.42 68.48 69.37 69.68 70.47 71.68 72.18 73.10 73.18 73.38 73.88 74.58 75.34
64.50 64.34 64.60 64.47 63.18 61.93 60.48 60.30 58.67 56.91 54.55 56.68 58.00 58.91 60.45 60.82 61.92 62.77 62.37 62.46 62.39 62.37 62.63 63.04 63.75 64.29 66.27 67.88 68.37 68.49 69.09 70.20 70.97 71.60 72.11 72.12 72.56 73.24
64.76 64.36 64.39 64.41 63.23 61.61 60.99 60.25 58.96 57.73 55.48 58.68 58.26 60.19 60.29 61.13 61.42 61.74 61.74 61.76 61.59 61.94 62.34 62.23 62.22 62.67 63.79 65.69 66.81 67.12 67.49 67.86 68.48 69.69 71.10 71.45 71.39 71.75
64.50 64.08 63.88 63.60 63.12 62.50 60.39 60.46 60.12 59.22 57.81 57.45 59.92 59.24 59.73 61.61 61.39 60.70 60.64 60.83 61.37 61.55 61.34 61.48 61.61 61.93 62.40 62.82 64.32 64.84 64.55 65.09 66.10 67.23 68.74 70.04 70.57 70.72
64.10 63.66 63.55 62.67 62.09 61.57 60.94 60.38 60.51 60.26 59.02 57.85 57.89 59.99 59.86 60.90 59.92 60.63 60.31 60.31 60.68 61.18 61.04 60.73 60.90 61.54 61.58 61.23 62.12 61.96 60.53 61.14 62.41 63.45 64.70 66.18 68.02 69.31
64.25 64.15 63.16 62.21 62.02 62.25 61.55 61.30 60.86 59.87 59.67 58.07 57.87 58.61 59.19 60.55 59.15 57.49 56.83 58.76 58.58 59.83 60.55 60.26 60.83 61.58 61.56 61.10 61.43 62.24 59.68 58.44 58.90 60.05 61.09 62.23 64.33 66.15
64.52 63.75 62.87 62.54 62.65 62.58 62.28 61.96 60.12 59.40 59.20 58.10 57.26 57.84 57.88 58.13 57.36 58.11 56.33 57.36 58.29 58.83 58.29 59.06 59.97 61.11 62.38 62.51 64.22 64.54 62.35 59.73 58.21 58.37 58.64 59.15 60.19 61.78
62.98 62.39 61.15 60.81 61.24 61.10 61.70 62.39 62.14 60.62 59.57 58.47 57.75 57.08 58.00 58.50 58.27 56.45 56.06 54.91 53.64 59.04 57.93 56.99 59.42 58.58 61.11 61.53 62.45 64.27 62.91 61.12 59.47 58.46 58.06 58.10 58.48 59.03
61.48 60.88 59.94 60.90 61.31 60.04 59.50 59.82 60.84 60.89 61.25 61.53 57.95 58.08 58.01 58.58 58.30 56.55 55.95 54.37 54.73 56.02 56.12 54.18 57.11 56.46 60.60 62.12 60.75 60.85 62.29 61.11 59.99 59.19 58.56 57.82 57.86 57.60
60.46 59.80 59.63 59.69 59.00 59.07 59.27 59.30 58.67 58.21 58.34 57.77 58.28 58.21 58.55 59.04 58.60 58.05 55.95 55.90 56.16 56.26 56.52 52.94 56.40 55.86 59.47 61.34 60.60 61.32 61.69 60.56 59.21 58.49 57.93 56.85 55.69 54.94
60.02 58.74 57.69 58.82 57.01 56.01 57.73 56.95 56.16 56.35 56.54 56.26 56.26 56.01 55.93 55.84 56.64 56.47 54.48 53.75 52.17 53.09 55.95 54.10 54.85 55.48 57.36 58.81 61.25 61.32 60.51 59.31 58.01 57.61 57.65 56.43 54.45 53.31
57.86 58.38 56.06 55.39 53.45 52.57 55.60 54.59 54.41 54.77 54.26 54.44 54.90 55.36 55.89 56.24 56.48 57.70 57.13 53.28 52.20 51.48 55.39 53.56 54.51 55.69 54.95 59.08 60.79 63.66 67.62 58.04 56.21 55.57 56.11 55.62 52.67 60.68
56.89 56.47 55.86 52.71 50.93 50.03 50.09 54.31 53.38 53.76 53.04 52.83 52.28 52.93 53.57 53.84 54.96 56.43 56.71 54.55 52.28 52.80 55.99 55.69 55.02 57.02 56.37 58.57 64.14 64.19 67.25 66.05 62.35 57.90 53.12 52.20 51.28 59.93
55.89 54.16 54.04 48.88 48.91 49.29 51.78 50.39 49.93 51.33 52.18 51.72 51.08 50.88 51.63 52.36 53.81 54.20 55.72 55.10 55.87 55.35 56.29 59.37 57.02 57.72 57.27 58.23 59.18 63.76 65.16 64.24 63.59 61.65 59.76 53.43 51.40 54.03
52.44 51.28 49.15 47.09 46.75 50.11 50.30 50.38 49.82 50.92 50.13 48.72 47.90 49.31 51.18 52.61 53.78 53.85 55.00 55.02 55.70 55.76 58.58 58.99 59.31 59.45 59.09 61.03 64.68 62.50 63.24 62.47 63.27 60.74 58.68 57.28 56.79 59.29
48.90 49.14 50.70 50.84 50.46 50.08 49.57 48.62 49.36 49.52 48.84 47.00 46.89 48.69 50.46 51.10 50.38 52.64 51.78 52.58 52.40 53.64 57.55 58.83 60.19 59.73 58.68 59.37 62.70 64.01 63.40 61.75 62.04 61.10 60.33 59.81 59.02 60.96
47.18 51.55 51.83 50.46 47.85 47.24 46.10 46.06 46.65 46.80 45.77 45.71 45.54 46.12 47.77 47.95 47.67 50.92 50.87 50.81 50.89 51.48 54.23 56.73 58.90 60.35 59.71 59.61 62.16 64.56 62.63 61.75 62.73 62.00 61.08 60.01 60.05 61.14
48.53 50.34 47.99 45.39 45.39 44.23 43.73 43.30 43.96 43.60 43.67 43.81 43.76 44.47 44.33 45.21 45.61 48.24 49.41 49.51 49.08 51.30 53.75 55.43 55.87 57.06 58.63 57.52 56.27 56.49 62.83 63.17 62.09 62.10 63.25 61.92 61.03 61.78
48.17 46.11 45.12 43.40 42.55 42.01 41.23 41.21 41.21 41.95 42.70 42.74 42.70 42.74 42.70 43.96 44.51 46.33 47.08 47.94 48.72 50.45 53.59 55.19 54.95 54.39 54.65 54.00 55.33 52.29 53.07 62.47 62.75 61.70 62.73 62.70 62.67 62.28
44.51 43.79 42.15 40.46 40.26 40.56 40.48 39.85 40.15 41.02 41.41 40.99 41.27 41.30 41.84 41.74 42.39 44.21 46.31 45.97 47.27 51.02 52.69 53.91 53.70 54.27 52.68 52.65 53.59 54.40 49.25 56.83 60.14 62.70 63.49 65.78 64.64 59.29
42.07 40.93 40.63 40.97 41.36 41.51 40.15 38.36 38.16 39.66 39.69 39.67 40.01 40.03 40.86 41.40 42.03 43.65 43.74 44.10 46.84 50.20 50.42 51.41 53.42 54.51 55.65 56.31 53.14 54.09 56.65 52.15 54.56 58.10 59.05 63.11 63.49 63.96
41.91 42.51 42.41 42.15 42.16 39.67 37.51 36.97 38.82 39.11 38.78 39.09 38.94 39.68 40.50 41.61 41.92 42.66 43.27 42.45 44.92 47.44 49.78 51.60 53.41 53.39 52.61 52.11 50.71 51.30 52.40 55.41 55.71 54.39 53.90 53.90 59.79 62.58
43.75 43.55 42.36 41.05 38.05 36.70 37.63 38.32 38.42 38.69 38.19 38.40 38.82 39.39 40.35 40.75 42.13 43.00 43.10 44.51 45.15 46.68 47.60 48.69 50.58 51.94 50.95 51.18 50.29 50.31 50.30 51.31 53.24 53.77 53.67 53.99 53.88 53.36

GFSNE_sfc_wetblb_003.txt.gz
Wetbulb
69.53 69.97 68.67 68.09 68.15 67.83 67.37 65.76 62.95 59.26 60.31 62.61 61.89 65.49 65.53 65.85 66.25 66.60 65.98 64.81 64.34 64.02 63.48 63.11 63.64 64.45 65.19 65.74 66.46 68.11 69.58 70.41 71.00 72.19 72.73 73.66 74.37 75.66
68.24 69.34 69.28 68.46 68.59 69.28 67.96 66.60 65.21 62.37 59.77 62.59 62.97 65.04 66.17 65.80 66.02 65.96 66.23 64.53 64.36 63.40 63.09 62.52 63.02 63.85 64.06 64.37 64.92 65.86 67.47 68.68 69.20 70.17 70.98 71.90 72.56 73.60
69.38 69.11 69.09 69.84 67.82 67.61 67.66 67.13 65.11 64.15 61.17 62.38 63.75 65.72 65.48 65.58 66.07 66.73 66.31 65.94 64.93 63.35 63.16 62.74 62.28 62.34 62.85 63.06 63.37 63.99 64.94 66.78 67.63 68.47 69.60 70.78 71.40 72.05
67.95 68.69 68.19 67.91 68.38 68.42 66.92 66.80 65.47 65.94 63.19 61.77 64.10 63.87 64.96 65.91 65.81 65.55 65.21 65.09 64.82 63.53 62.34 61.60 61.28 61.32 61.38 61.38 61.47 61.89 62.26 63.53 65.35 66.20 67.29 68.80 70.13 70.72
68.15 68.16 68.15 68.29 67.79 66.44 66.76 65.53 64.90 66.24 64.74 62.20 61.51 63.27 63.67 64.66 64.37 65.20 64.99 65.00 64.48 63.54 61.80 61.28 61.30 61.13 60.61 59.83 59.56 59.63 59.24 59.69 61.46 62.59 63.77 65.11 67.00 68.87
68.63 68.61 68.57 68.10 67.42 67.10 66.16 66.20 65.79 64.89 64.37 62.77 61.83 61.75 62.41 64.71 63.66 61.91 61.35 62.75 62.13 63.04 62.82 61.76 61.76 61.61 61.20 59.92 59.77 60.19 58.51 57.54 57.90 59.23 60.36 61.33 63.52 65.67
68.84 69.34 69.21 68.34 65.49 64.97 64.38 65.58 65.48 63.91 62.48 61.38 60.66 60.97 60.83 60.87 61.02 61.66 60.72 61.36 62.37 62.49 61.46 61.75 61.99 61.99 62.22 61.42 62.65 62.77 61.17 59.78 58.59 58.10 58.39 58.69 60.03 61.98
68.20 68.67 68.90 65.39 64.61 62.54 62.23 62.62 63.50 63.60 63.21 61.80 60.22 60.51 62.09 61.76 61.82 61.18 60.33 58.89 56.84 62.43 61.50 60.44 61.38 59.98 61.83 62.84 61.35 60.87 60.53 60.10 59.76 58.41 57.56 57.40 57.86 59.37
67.57 67.53 67.11 65.82 63.90 65.00 62.45 60.93 61.01 60.93 61.89 63.79 61.39 61.32 61.52 62.28 62.36 60.17 59.44 58.22 57.52 60.56 60.50 59.04 60.08 59.91 61.02 61.57 59.95 59.70 59.36 58.96 58.63 59.32 58.07 57.42 56.92 57.10
67.41 67.36 66.56 65.96 65.25 62.61 62.88 62.41 63.04 63.84 64.00 62.85 62.70 62.38 62.33 61.95 60.73 59.69 59.06 58.24 59.17 60.03 61.56 56.64 59.11 57.83 59.17 61.07 59.58 59.59 59.15 58.78 58.15 58.78 58.15 56.70 55.09 54.45
66.60 66.58 64.68 63.91 59.15 56.55 59.51 60.67 61.64 61.78 59.82 57.02 56.42 55.64 55.42 55.58 56.66 57.48 55.78 56.58 55.99 57.46 59.26 54.37 54.85 54.64 56.13 57.42 60.60 60.07 58.70 57.69 56.94 57.68 58.35 56.74 54.17 53.14
65.40 63.49 57.23 59.25 54.10 53.98 59.60 60.60 59.51 60.17 59.41 59.12 59.07 58.48 58.21 58.74 56.94 59.15 56.81 54.23 55.10 54.12 56.07 53.29 53.87 54.58 53.01 57.34 60.09 62.72 63.69 57.04 55.86 56.24 56.96 56.06 53.44 64.63
63.58 63.07 61.99 53.09 51.38 51.06 51.11 59.94 57.81 55.64 57.06 57.25 57.16 57.68 58.23 58.78 59.18 59.60 59.73 57.98 56.51 53.97 56.06 55.42 54.24 54.24 54.21 54.76 58.78 60.16 64.57 64.45 65.00 60.57 54.06 53.70 51.71 61.18
63.50 63.11 59.65 49.77 47.74 50.05 52.80 50.98 50.53 51.36 56.27 55.66 55.59 55.37 55.63 56.04 56.93 56.89 57.58 58.30 59.31 56.72 56.50 55.88 54.07 54.07 55.26 55.48 56.80 61.50 65.33 66.59 67.79 66.31 64.27 56.60 51.59 54.52
60.67 52.24 48.62 47.40 47.33 49.64 51.90 50.74 49.83 55.46 54.63 53.73 53.31 53.52 54.08 54.87 55.99 55.44 56.37 58.82 59.05 58.02 56.38 56.36 56.20 57.22 58.11 56.94 58.23 59.49 61.91 65.73 66.95 65.19 63.82 59.70 58.38 60.47
52.97 56.57 52.68 51.80 50.59 53.64 53.01 53.14 54.58 53.78 52.40 51.85 51.56 52.29 53.21 53.35 52.54 52.54 52.82 55.35 54.86 55.96 55.58 56.89 57.77 57.54 57.75 58.75 59.65 58.75 62.60 63.11 63.90 63.56 62.37 62.03 62.74 64.41
53.82 57.79 57.46 57.02 56.12 55.77 54.94 54.22 53.40 52.51 51.11 50.99 50.63 50.48 50.60 50.72 50.52 51.30 52.82 54.44 53.99 53.59 52.73 55.13 57.03 58.33 58.67 57.63 59.37 60.20 62.83 64.05 63.59 62.25 62.54 61.14 61.78 63.91
54.15 55.25 55.03 54.65 54.36 54.00 52.89 52.11 51.82 49.41 49.93 49.31 49.55 49.51 48.99 48.58 48.91 49.63 53.12 54.02 53.64 53.81 53.54 54.62 54.88 55.10 57.86 56.72 56.44 53.37 55.30 63.72 63.28 63.85 64.35 62.76 61.30 63.17
54.19 54.88 53.82 52.89 52.38 51.89 51.03 50.16 48.89 48.56 48.48 48.19 48.21 48.54 48.23 48.08 47.81 49.00 51.85 52.84 51.09 52.12 53.71 54.40 54.22 52.73 51.71 51.21 56.34 54.43 52.70 56.72 63.94 61.99 63.51 63.49 63.99 63.18
54.44 53.37 52.16 50.58 49.99 50.16 50.28 48.67 47.54 46.67 46.62 47.16 47.44 47.70 47.82 47.23 47.36 48.21 50.71 49.18 48.48 48.20 52.83 55.10 54.04 52.37 51.34 51.76 53.06 55.72 51.69 54.17 58.31 62.33 62.49 64.78 63.56 60.84
52.21 51.11 50.40 49.84 50.61 50.79 49.71 47.24 45.26 44.67 45.05 46.42 46.76 47.00 47.36 47.14 47.30 47.97 49.34 46.30 47.38 48.23 49.16 52.02 53.17 53.70 55.06 55.70 52.92 52.82 55.08 51.94 53.20 55.86 58.75 62.99 63.88 63.82
50.96 50.25 50.12 50.90 50.80 49.65 46.73 45.20 45.10 46.38 46.89 46.44 46.43 46.88 47.24 47.37 47.04 47.34 48.56 49.76 50.73 50.96 51.27 51.33 53.72 53.58 52.91 51.77 51.08 51.77 52.37 53.43 55.16 54.11 54.32 53.48 61.07 63.11
50.95 51.43 50.89 50.49 48.80 47.22 45.66 46.07 46.97 46.90 46.81 46.32 46.23 46.41 47.00 46.31 47.44 47.76 48.04 49.59 50.47 48.50 45.43 48.20 53.12 51.77 50.13 50.30 50.84 50.75 51.05 50.85 51.77 52.82 53.54 53.51 54.17 53.09

GFSNE_sfc_wetblb_006.txt.gz
Wetbulb
68.90 69.35 68.73 67.03 66.84 67.05 67.11 66.69 64.33 60.50 60.72 64.19 63.94 67.51 67.04 67.16 68.31 67.99 68.02 66.79 64.99 64.13 63.76 63.49 63.79 64.07 64.29 64.42 64.93 65.13 65.47 66.22 67.71 69.57 70.58 71.98 73.99 75.02
66.50 68.11 69.05 67.73 67.86 67.87 67.61 66.89 66.11 64.02 60.92 63.80 64.20 66.36 67.62 67.46 68.39 68.04 67.99 67.01 65.88 64.86 64.01 63.05 63.40 63.92 64.09 64.22 64.33 64.49 64.73 65.14 65.68 66.90 68.52 69.38 70.82 72.90
68.02 68.62 69.07 70.42 68.12 66.76 66.84 66.32 65.38 64.88 62.27 63.50 64.65 67.11 67.83 67.81 67.88 68.44 68.18 67.83 67.30 65.10 64.15 63.33 62.75 62.75 63.02 62.91 62.83 63.18 63.31 63.55 64.21 65.01 66.65 68.14 69.05 70.68
67.77 68.62 68.82 68.39 69.41 69.45 67.42 68.19 66.80 66.89 64.17 63.90 65.66 64.95 67.54 67.87 67.35 67.62 66.97 66.66 66.82 65.66 63.55 62.50 61.91 61.41 61.22 60.99 61.13 61.11 61.10 61.28 61.81 62.79 64.17 65.74 67.63 68.99
68.44 68.46 68.53 68.82 68.53 67.62 67.65 66.11 65.54 65.49 65.74 63.58 63.33 65.10 64.97 65.48 66.16 67.32 67.57 67.94 65.92 65.50 63.01 62.51 61.77 61.36 60.77 60.05 59.56 58.83 57.81 58.01 58.55 59.47 60.84 62.23 64.74 67.15
68.70 68.74 68.97 68.98 68.28 68.15 67.24 67.62 67.29 65.82 66.10 63.35 63.13 62.94 63.37 65.12 64.77 62.27 62.65 64.11 63.45 64.68 65.02 63.08 62.95 62.91 62.26 60.32 59.65 59.54 57.32 56.12 56.18 56.84 57.71 59.09 61.02 63.49
69.05 69.18 69.64 69.45 66.91 66.76 66.44 68.00 67.20 64.99 63.10 62.10 61.78 61.63 60.12 60.64 62.56 62.83 61.72 62.68 64.41 64.81 63.49 63.08 62.52 63.74 64.40 62.68 63.34 62.71 60.19 58.46 57.09 56.60 56.26 56.66 57.77 59.63
68.58 69.69 70.18 68.34 67.16 64.41 63.43 62.99 63.84 64.16 63.14 61.51 61.07 61.11 63.18 63.13 63.69 62.28 61.69 60.33 59.02 64.35 63.06 60.73 63.35 63.07 63.65 63.91 62.21 60.82 59.48 58.60 57.87 57.38 56.89 56.11 56.71 57.27
69.75 69.55 68.30 66.28 66.29 68.20 64.48 62.12 61.89 61.09 61.08 63.84 62.85 62.83 63.47 64.34 63.72 62.28 61.89 60.81 59.66 61.05 61.90 59.95 62.79 61.43 63.32 62.79 60.40 59.97 58.63 57.91 57.53 57.24 57.26 57.14 56.45 56.10
69.52 68.65 67.86 65.79 66.34 66.97 66.89 65.69 65.08 65.42 65.82 64.79 64.73 63.98 64.07 63.89 62.21 61.23 60.59 60.52 60.69 61.35 63.47 59.15 61.60 60.03 62.35 62.84 60.01 59.02 58.03 57.05 56.85 56.88 56.40 56.01 55.01 54.43
67.03 67.16 66.44 66.48 61.76 58.60 63.42 63.55 64.09 64.30 61.89 58.98 57.63 56.71 56.02 55.82 57.23 59.39 58.60 57.35 57.10 58.67 61.86 60.18 59.54 59.36 60.09 58.90 59.95 58.94 57.68 56.62 56.01 56.26 56.35 55.79 53.94 53.01
64.72 65.74 60.06 62.27 55.83 55.54 61.50 62.56 61.55 62.47 62.89 62.25 62.08 60.69 58.87 60.94 57.66 60.45 58.44 55.87 56.19 56.54 60.85 58.80 58.36 56.69 52.77 56.57 58.51 59.79 59.10 57.96 54.67 54.64 55.17 55.28 53.21 60.52
64.96 67.10 66.58 55.35 53.17 52.29 52.45 61.54 60.13 59.07 59.53 60.33 60.30 59.46 59.42 60.66 60.68 61.60 62.11 59.56 56.91 56.08 59.52 60.40 57.84 55.25 53.34 53.10 55.78 57.65 60.24 59.98 61.20 61.51 52.96 53.32 52.39 57.77
67.25 66.26 59.81 50.98 49.75 50.74 52.77 52.84 51.98 52.04 59.12 59.48 58.38 56.94 57.71 58.20 58.86 59.14 60.18 59.97 59.13 59.39 62.10 63.32 57.63 54.44 52.55 52.09 53.32 58.49 60.34 61.54 62.97 63.51 65.52 58.11 52.13 53.25
67.17 54.25 50.26 48.54 48.00 48.65 52.19 52.46 50.44 58.29 58.83 57.25 55.94 56.43 57.20 57.78 58.65 59.26 60.13 61.80 62.18 62.76 61.67 63.05 58.05 55.77 54.74 53.80 54.44 57.63 57.57 59.75 62.70 68.34 68.88 65.19 59.88 58.70
53.71 58.56 55.77 53.01 50.55 53.08 55.54 54.26 58.47 58.73 56.61 55.30 55.78 56.43 56.91 56.54 55.82 56.11 54.07 53.90 56.15 58.62 62.43 62.44 59.12 57.12 54.52 55.90 57.69 57.81 59.37 58.33 63.31 66.20 65.97 65.89 65.72 64.99
59.83 61.34 60.12 60.05 59.31 59.43 59.32 58.84 58.40 57.08 55.69 55.76 55.11 54.78 54.29 54.03 53.34 53.71 52.61 53.80 55.31 55.97 56.30 59.10 59.43 57.59 56.19 56.24 55.34 56.06 55.62 56.31 63.19 63.91 64.11 62.75 63.73 66.60
56.43 58.96 58.59 58.88 58.15 58.13 57.62 56.74 56.06 53.84 54.69 53.96 53.43 53.27 52.27 51.89 51.31 51.47 52.34 53.71 54.25 56.27 52.13 55.08 59.62 55.05 54.16 55.95 56.66 55.91 55.30 54.78 56.18 62.92 63.26 61.95 61.61 64.36
57.44 58.64 57.76 58.05 57.30 56.99 55.61 54.58 53.70 54.24 54.25 52.82 52.45 51.96 51.31 51.03 50.13 50.51 51.17 52.71 53.99 54.01 52.60 54.95 58.60 52.94 49.45 48.91 55.23 54.34 53.83 54.16 55.28 56.40 64.36 63.02 63.42 63.53
58.40 58.07 57.22 57.07 55.98 54.78 54.42 53.64 53.22 52.69 51.80 51.25 50.95 50.85 50.85 50.31 49.69 49.94 50.43 51.93 53.65 55.11 51.86 55.95 55.18 53.25 49.68 50.40 51.08 54.75 51.14 52.89 53.69 54.74 60.30 64.68 66.81 60.50
58.26 56.54 56.27 55.38 55.00 54.66 54.45 53.24 51.80 50.26 47.97 49.40 50.24 50.10 50.25 49.80 49.76 49.95 50.09 48.25 50.37 53.79 52.10 49.97 54.36 53.95 55.75 54.83 51.61 51.80 54.56 51.59 52.36 53.55 55.06 58.39 63.16 62.96
57.46 55.72 55.33 55.34 55.03 54.39 53.01 51.12 49.50 49.10 49.93 49.55 49.85 49.78 49.95 49.88 49.43 49.39 49.72 49.89 53.12 53.25 50.23 48.18 55.23 52.05 52.25 50.73 50.07 50.86 51.53 52.98 53.04 53.34 53.05 53.83 51.45 55.60
56.15 55.59 55.44 54.65 54.25 52.52 50.45 49.34 48.73 49.49 49.98 49.58 49.34 49.45 49.42 48.87 49.62 49.66 49.50 50.09 50.68 51.78 53.15 55.01 52.96 49.89 50.45 50.22 49.40 50.40 50.51 50.35 50.22 50.47 52.04 52.29 53.77 53.77

GFSNE_sfc_wetblb_009.txt.gz
Wetbulb
70.63 71.23 69.00 67.75 67.15 66.72 66.91 69.09 65.24 60.26 61.51 65.43 64.84 69.63 68.44 67.45 68.67 68.23 68.21 67.94 66.51 64.60 64.37 64.13 64.28 64.92 64.91 65.05 64.91 65.14 64.98 65.36 65.43 65.79 66.30 66.99 68.68 70.92
67.54 71.04 71.04 67.79 68.29 67.52 67.96 66.85 65.78 63.50 60.30 64.28 65.14 68.55 69.89 67.71 68.93 68.58 67.96 68.07 66.64 65.85 65.04 64.17 64.12 64.55 64.73 64.81 64.65 64.41 64.63 64.80 65.04 65.20 65.41 65.83 66.61 68.47
70.83 69.21 70.11 71.46 67.69 67.05 66.69 66.49 64.78 65.15 61.85 64.37 65.39 68.00 71.16 70.22 69.23 69.64 68.97 69.46 67.89 65.74 65.42 64.60 63.54 63.57 63.71 63.71 63.59 63.48 63.51 63.72 63.95 64.23 64.46 64.77 65.22 66.26
68.73 70.09 69.11 68.25 71.39 71.67 67.51 70.56 68.92 68.57 64.67 65.13 66.17 65.32 68.22 69.94 70.84 70.64 68.28 66.78 67.47 65.88 65.14 64.17 62.94 62.29 62.05 62.07 61.70 61.42 61.03 61.27 61.79 62.16 62.86 63.40 63.92 64.69
69.73 70.11 69.59 70.69 70.79 68.76 69.85 67.57 67.07 67.43 67.12 63.43 63.30 64.46 64.31 63.54 65.92 69.37 67.56 66.74 66.47 65.87 63.69 62.88 62.43 62.19 61.35 60.34 59.56 58.96 57.93 58.07 58.59 59.01 59.77 60.66 61.86 63.01
70.69 70.60 70.51 70.12 70.13 70.42 69.35 70.21 68.84 67.00 66.36 64.61 63.55 63.30 64.64 65.67 66.62 63.58 63.05 62.72 63.00 65.59 65.79 63.76 63.93 63.84 61.89 60.40 59.78 59.65 57.32 56.07 56.06 56.25 56.68 57.57 58.81 60.43
69.90 69.73 70.41 70.20 68.01 67.99 68.42 67.75 68.79 66.00 64.66 63.36 62.88 63.16 63.13 63.04 62.68 63.99 63.38 63.62 62.59 65.17 64.39 65.62 65.46 65.56 64.82 63.15 63.47 62.72 60.19 58.52 56.59 55.83 55.44 55.45 55.94 57.28
69.36 70.77 70.96 68.77 67.73 65.24 64.86 64.24 64.24 65.67 65.14 62.32 62.36 61.90 63.49 63.92 63.21 62.49 62.90 61.22 58.46 64.89 63.87 62.95 63.84 62.90 63.78 65.18 63.68 61.64 60.01 58.67 57.60 56.93 56.31 55.29 55.44 55.81
71.03 70.16 69.25 68.76 67.45 67.68 65.22 63.20 62.76 62.14 61.98 65.10 64.16 63.83 63.60 64.84 64.78 63.87 63.23 61.48 59.93 61.43 62.15 59.74 62.64 62.60 65.15 64.18 61.10 59.95 58.95 58.24 57.35 57.01 56.55 55.98 55.38 55.05
71.23 71.50 71.19 70.44 69.10 67.91 67.38 65.05 65.53 67.56 66.98 65.05 65.21 65.73 65.94 65.27 63.26 62.39 62.34 61.82 61.36 62.39 63.49 58.78 62.03 62.19 63.82 65.22 61.08 59.92 58.92 57.96 56.99 56.55 56.06 55.15 53.65 53.03
71.16 71.40 70.34 69.16 64.97 60.78 64.94 63.06 63.23 64.46 63.87 61.31 60.34 58.44 57.05 56.94 58.35 59.86 58.15 57.09 56.23 58.06 61.14 59.91 60.44 60.55 62.50 61.88 62.83 60.21 57.44 56.49 55.79 55.58 55.52 55.05 53.35 52.25
69.27 70.75 62.26 64.36 57.32 57.31 63.40 62.82 63.10 64.09 64.36 64.29 64.07 61.22 59.29 61.12 57.48 60.61 60.38 57.87 57.25 56.48 60.77 58.68 58.59 58.68 56.51 60.61 60.74 59.50 58.06 56.83 55.19 54.66 54.87 54.13 52.70 57.52
67.61 67.14 66.93 55.72 54.95 53.43 54.03 62.75 61.96 60.30 62.63 61.13 60.68 60.95 62.69 62.45 60.16 62.47 63.92 60.51 57.31 56.61 59.73 58.27 56.69 58.67 59.62 57.00 56.92 56.74 57.47 57.95 58.56 59.16 54.92 52.21 51.26 54.62
67.89 67.23 66.11 54.68 54.56 52.71 53.58 55.09 53.90 53.53 58.97 58.75 59.41 59.59 59.22 57.96 59.05 60.41 62.91 62.02 60.75 60.91 61.16 61.03 59.58 59.55 58.18 54.99 53.07 55.80 56.44 58.25 59.02 60.05 61.02 58.61 52.79 51.52
64.29 54.39 53.24 51.32 50.78 50.09 50.84 54.19 53.00 57.87 58.31 58.83 58.73 57.29 57.11 58.27 61.79 60.80 62.46 63.61 63.41 61.85 60.55 63.20 61.98 60.37 58.63 54.94 53.27 53.77 55.64 57.13 58.55 60.22 60.67 62.47 63.49 58.00
56.50 59.67 57.39 55.88 52.96 55.65 56.27 55.51 58.25 59.23 59.30 57.24 55.91 57.27 57.64 56.95 56.21 56.30 54.70 54.09 53.35 54.90 62.87 63.72 61.86 61.78 58.48 56.06 54.48 53.54 56.04 53.97 56.42 57.94 58.26 66.97 64.86 62.25
62.57 63.17 61.45 61.15 60.80 60.39 59.95 59.84 58.99 60.00 57.96 57.37 56.34 55.43 54.75 54.68 54.26 54.54 53.11 52.88 52.00 54.50 55.91 58.97 60.57 61.79 61.49 57.26 53.31 54.15 54.98 54.36 54.75 55.72 57.04 63.49 66.08 64.70
60.06 60.33 60.18 60.11 59.67 59.44 59.79 59.65 59.37 57.41 57.29 56.61 55.02 54.23 53.43 52.89 52.25 52.11 52.48 52.10 51.89 54.88 55.42 57.51 56.93 57.94 55.12 56.61 57.53 54.24 54.52 53.54 53.76 54.98 56.60 60.44 61.63 63.87
57.79 59.00 59.02 59.13 59.02 58.97 58.30 57.40 56.20 56.51 57.42 54.78 53.93 53.20 52.56 52.13 51.37 51.08 51.38 51.45 51.88 54.51 55.49 57.42 56.52 54.52 49.73 48.78 54.26 55.03 52.90 52.85 52.27 53.48 54.24 55.30 61.18 63.27
58.22 58.57 58.58 58.59 58.15 57.15 56.40 55.76 55.59 55.03 54.03 53.07 51.88 51.86 51.98 51.17 50.56 50.64 50.82 50.98 51.00 54.08 54.77 55.19 51.47 52.40 50.44 50.66 51.40 53.54 50.68 52.11 51.02 50.98 51.89 54.39 57.04 59.94
59.09 58.73 58.38 57.24 56.65 56.30 55.66 55.41 54.75 52.96 50.90 49.89 51.45 51.46 51.30 50.87 50.52 50.59 50.37 47.50 48.80 53.68 53.10 53.86 54.85 52.14 53.58 55.66 51.90 51.18 52.73 51.18 51.38 51.11 51.38 50.66 54.70 63.12
58.85 58.08 57.84 57.10 56.46 55.91 55.19 53.94 52.49 51.17 51.04 51.00 50.92 50.86 51.10 50.69 50.10 49.75 49.97 49.55 50.53 50.61 51.83 55.80 54.46 53.76 51.20 50.44 49.46 51.02 50.87 51.70 52.21 51.79 51.82 51.21 50.29 50.24
58.37 57.97 57.72 57.58 56.61 55.60 53.93 52.00 50.71 50.12 50.74 50.51 50.31 50.44 50.48 49.61 50.42 50.19 49.91 49.93 50.08 49.93 50.90 52.82 56.17 54.70 52.11 50.09 48.68 51.09 50.16 49.24 49.83 48.93 49.39 50.61 51.63 50.68

GFSNE_sfc_wetblb_012.txt.gz
Wetbulb
71.04 70.15 69.17 68.05 68.08 68.23 68.01 66.39 63.83 59.79 60.94 63.67 64.28 67.71 66.43 65.37 67.62 66.80 67.61 68.42 68.78 66.52 64.85 64.64 64.83 65.22 65.46 65.59 65.62 65.60 65.47 65.29 65.42 65.51 65.45 65.17 65.32 65.74
69.77 69.73 69.25 68.95 68.77 68.42 66.46 66.31 65.95 63.22 60.47 64.45 64.46 66.19 67.45 67.81 68.85 66.76 67.42 68.08 67.09 65.74 64.70 64.22 64.48 65.14 65.26 65.32 65.07 64.85 65.11 64.93 64.91 65.15 65.33 65.58 65.32 64.98
69.30 69.59 68.93 70.15 68.42 67.64 68.81 67.57 65.52 64.68 62.17 62.60 64.63 65.52 65.59 65.83 66.66 67.37 68.91 67.27 66.68 66.49 65.39 65.16 64.52 64.45 64.46 64.45 64.30 64.33 64.23 64.08 64.12 64.49 64.82 65.01 65.04 65.38
68.76 68.94 68.15 68.38 69.17 69.30 68.73 67.34 67.09 67.52 64.40 62.60 64.58 64.67 66.19 67.73 68.02 65.99 67.34 66.71 65.66 66.35 65.82 64.51 63.76 63.26 62.86 62.49 62.21 62.08 61.97 62.06 62.12 62.38 63.12 63.73 64.24 64.60
68.42 68.32 67.56 68.53 69.10 68.65 68.42 67.35 66.69 66.60 66.56 63.54 62.63 64.25 64.34 63.96 63.51 64.69 64.39 65.95 67.33 66.72 64.35 63.43 63.07 62.78 61.90 61.01 60.32 59.31 58.42 58.32 58.61 59.17 59.89 60.78 61.82 62.84
69.76 69.34 68.64 67.66 68.88 68.66 67.82 68.45 67.75 66.95 65.39 62.31 62.71 63.21 64.27 64.67 64.90 62.37 61.89 64.28 63.63 64.67 65.55 63.92 63.80 63.75 62.68 60.91 60.24 60.06 57.62 56.19 55.80 56.30 56.96 57.58 58.80 59.89
70.47 69.37 69.56 70.17 68.69 68.29 68.87 67.59 67.79 65.84 63.54 60.86 59.44 60.79 61.23 60.92 60.82 61.48 60.75 61.64 61.98 63.14 62.74 61.77 61.78 62.22 61.95 62.27 63.31 63.36 60.64 58.60 56.70 55.73 55.19 55.08 55.66 56.57
68.85 69.86 69.51 68.49 67.18 65.46 64.26 64.62 66.66 65.31 62.60 61.12 59.86 59.17 60.78 61.82 62.49 61.51 60.54 59.02 57.67 62.30 61.49 59.37 60.94 60.24 60.31 60.39 61.80 61.34 60.27 59.25 58.07 57.13 56.11 55.29 55.06 55.13
70.03 69.38 68.93 67.74 68.43 68.90 64.75 63.79 63.65 62.92 62.97 61.99 60.22 60.99 61.60 62.60 62.39 60.86 60.49 59.91 58.07 59.76 59.12 56.44 59.13 58.66 60.76 62.31 61.43 60.89 59.88 57.85 57.13 56.80 56.56 55.66 55.00 54.43
69.37 69.70 68.59 67.47 68.93 68.34 67.81 67.14 65.37 64.81 64.58 63.73 62.51 62.65 63.70 64.18 63.13 61.29 59.46 58.74 58.91 59.20 59.53 55.92 58.89 57.54 59.63 61.29 61.13 60.27 58.48 57.57 57.12 56.29 55.76 54.80 53.29 52.59
69.12 68.28 68.31 68.59 64.90 60.80 66.34 65.24 63.81 65.10 64.33 60.92 62.27 60.71 59.05 57.37 58.87 59.44 57.06 55.77 55.07 56.34 59.36 57.02 57.21 57.71 58.64 57.41 58.75 59.66 58.23 56.40 55.64 55.63 55.78 55.20 53.71 52.78
69.00 68.36 62.67 65.97 60.01 58.63 64.69 64.09 62.68 63.30 64.36 64.19 63.78 61.27 59.01 59.81 58.16 58.71 58.36 55.79 55.80 55.65 58.42 56.77 55.26 54.33 50.92 55.56 58.57 59.61 59.34 56.68 54.71 53.89 54.73 54.61 53.33 55.06
67.25 66.96 68.27 58.85 56.26 55.72 56.68 63.90 61.60 58.34 60.95 61.65 61.13 59.75 59.92 60.66 60.76 62.05 61.19 59.36 57.39 55.24 57.48 56.50 54.12 53.43 53.43 54.71 57.40 58.54 58.07 57.21 57.42 56.97 55.01 53.19 51.59 52.88
68.24 67.61 66.38 53.96 53.12 55.33 53.91 55.28 53.83 54.69 58.12 58.06 57.70 57.45 57.84 57.86 58.61 59.06 59.63 59.34 58.58 57.48 58.06 58.08 56.24 55.54 55.34 54.09 53.75 56.89 57.08 56.68 56.73 57.59 57.93 55.76 54.24 53.77
66.58 59.97 54.07 53.22 55.84 53.08 52.87 53.79 54.29 56.47 56.94 56.63 56.71 56.74 56.53 58.16 59.27 58.34 59.76 60.69 60.82 59.91 57.99 58.30 58.75 57.64 56.24 54.81 55.14 55.70 54.63 55.33 56.49 57.14 56.44 55.44 56.06 57.30
56.30 56.32 56.24 55.87 55.76 56.92 56.70 52.98 55.65 57.82 58.30 58.61 57.02 57.26 58.61 56.43 55.27 56.13 54.37 53.48 51.20 50.99 55.01 60.46 59.52 58.18 55.54 56.36 56.16 54.57 55.38 53.20 55.19 55.68 54.86 54.52 55.82 57.94
59.50 60.39 58.72 58.84 58.64 58.13 57.92 58.39 57.97 58.40 58.14 58.81 57.40 56.58 54.35 54.31 53.89 54.55 52.74 50.84 50.16 50.61 51.53 55.67 58.48 58.50 58.14 56.04 53.77 53.95 54.21 53.62 53.95 53.34 52.54 52.47 54.84 56.66
60.96 63.29 61.89 61.30 60.20 60.53 58.03 58.78 57.69 57.40 57.70 57.40 56.16 54.70 53.32 52.80 52.37 51.99 51.99 51.71 50.33 50.91 51.46 55.32 55.67 54.94 53.81 54.65 56.81 53.54 53.15 52.75 52.82 52.31 52.28 51.50 51.32 54.16
61.65 60.28 59.02 61.54 60.30 59.71 58.76 58.04 57.10 58.33 57.76 56.66 55.67 54.39 52.58 52.24 51.24 51.08 50.88 51.01 50.42 49.85 50.66 55.41 51.86 52.77 50.00 48.46 52.56 54.90 53.02 52.17 51.63 50.44 50.82 50.39 49.46 51.90
58.23 58.37 60.80 60.27 59.39 58.44 58.09 57.15 56.93 56.17 54.99 53.64 51.38 50.80 51.19 51.97 50.70 50.32 50.40 49.64 49.16 49.11 49.60 54.13 53.46 52.72 50.93 49.65 50.43 53.42 50.75 51.84 50.42 49.15 49.18 49.82 51.26 53.31
58.33 58.36 59.98 58.88 58.48 58.01 57.71 57.65 56.12 54.70 52.31 51.34 51.06 51.40 52.31 50.71 50.06 50.05 49.56 47.47 47.91 49.58 49.69 48.82 54.61 53.05 53.40 53.20 50.08 49.74 52.65 51.03 50.65 49.59 49.08 47.45 47.87 49.47
61.09 59.86 58.96 58.44 58.20 57.58 57.22 56.32 54.62 53.32 52.38 52.63 52.15 51.63 51.73 51.24 49.17 49.06 48.86 48.18 48.72 49.56 49.65 48.55 54.49 54.18 52.02 49.83 47.70 48.50 50.51 50.25 51.29 51.22 50.51 49.02 47.31 43.89
61.44 59.93 59.46 59.07 58.48 57.48 56.52 54.16 52.48 51.12 51.57 51.78 51.06 50.52 50.80 49.51 50.10 49.64 48.75 49.00 48.70 48.55 47.76 46.98 51.99 54.27 49.98 48.87 48.73 48.45 47.53 47.78 48.71 47.39 47.20 48.94 49.69 49.12

GFSNE_sfc_wetblb_015.txt.gz
Wetbulb
63.20 63.53 62.94 62.75 62.93 63.08 61.63 60.77 57.80 54.57 55.36 58.73 59.67 63.83 63.88 63.24 65.53 64.65 62.15 66.82 67.40 66.72 65.32 64.53 65.04 65.79 66.12 66.40 66.20 66.12 66.12 66.07 65.93 65.87 65.56 64.98 65.05 65.12
65.47 64.68 63.55 63.14 63.70 63.38 62.49 60.78 60.92 58.45 56.09 59.57 59.44 61.03 63.04 64.62 66.32 65.03 63.30 67.31 67.00 66.42 65.18 63.99 64.15 65.01 65.61 65.90 65.62 65.48 65.50 65.69 65.81 65.58 65.36 65.56 65.69 64.96
64.89 63.62 64.97 64.16 63.00 62.12 63.71 62.30 60.36 59.85 57.43 57.90 59.89 61.07 61.87 60.83 62.35 63.89 65.29 64.78 63.92 65.50 65.01 64.43 63.67 64.00 64.54 65.06 64.96 64.79 64.60 64.77 64.87 65.00 65.19 65.29 65.54 65.76
64.72 63.82 63.32 65.53 63.17 62.83 64.93 63.12 62.81 62.57 59.63 57.61 60.26 60.44 60.71 62.29 63.15 63.40 63.99 65.60 64.50 66.20 65.60 64.70 63.63 63.23 63.17 62.97 63.01 62.97 62.62 62.73 62.80 63.25 63.66 64.32 64.77 65.22
65.35 65.10 64.23 64.34 62.40 64.16 64.89 64.36 62.66 63.27 62.10 60.33 59.35 61.03 61.54 60.97 59.78 60.30 60.64 61.14 64.31 66.36 64.01 63.35 62.99 62.61 61.99 61.17 60.64 60.05 58.89 58.74 59.36 60.00 60.63 61.16 62.20 63.36
65.44 65.72 65.66 64.51 63.87 64.62 64.74 64.09 64.07 62.62 61.47 60.01 59.39 59.81 60.32 61.47 61.29 60.00 59.25 59.57 60.01 63.88 64.60 63.89 63.45 63.56 63.03 61.06 60.52 60.40 57.95 56.56 55.91 56.28 56.94 57.83 59.01 60.10
65.65 66.78 66.54 67.01 66.65 65.27 64.97 63.65 64.27 63.17 61.68 59.68 57.56 56.21 57.40 57.46 58.58 58.87 58.62 59.07 59.45 60.11 59.74 59.35 59.23 58.51 58.73 60.29 63.05 63.58 60.82 58.87 57.17 56.30 55.70 55.09 55.36 56.39
65.45 67.55 66.49 67.55 67.19 66.08 65.93 65.40 65.40 63.28 60.71 58.59 57.17 56.83 57.34 58.47 58.91 58.55 58.00 56.72 55.37 59.50 57.04 57.49 58.32 56.91 57.08 57.56 60.64 60.63 59.65 58.65 57.91 56.96 55.90 54.97 54.82 55.21
66.73 67.24 67.06 67.12 65.94 64.86 63.94 63.61 63.25 63.19 62.44 60.00 58.25 57.87 57.23 58.42 59.12 57.29 56.76 56.58 55.90 58.69 54.38 53.84 55.16 54.31 57.18 58.86 60.07 59.71 58.93 58.04 57.51 56.78 56.43 55.80 55.09 54.38
67.19 67.34 65.75 65.52 64.88 66.20 64.52 63.26 62.65 63.26 62.55 61.85 59.87 60.82 60.06 60.88 60.75 59.52 58.03 55.82 54.85 55.92 55.64 52.50 55.11 54.09 55.09 56.11 59.35 59.29 58.15 57.52 56.42 55.84 55.22 54.36 52.53 51.45
66.27 66.63 65.70 65.39 63.18 60.29 63.81 63.36 63.29 62.49 62.84 60.67 61.41 61.34 59.45 59.05 59.70 56.78 54.48 52.11 51.27 51.85 54.27 53.22 54.67 52.80 53.63 52.45 53.58 57.29 56.43 56.11 55.81 55.79 55.60 54.45 52.64 51.87
63.45 65.95 62.98 64.24 59.46 59.46 63.43 62.03 60.15 60.13 59.84 59.53 58.83 58.70 57.36 56.94 57.92 55.81 57.60 52.30 51.67 51.48 55.00 53.16 50.71 49.58 48.86 49.21 51.34 54.69 56.47 56.22 54.66 53.81 53.74 53.38 52.03 54.01
63.30 63.23 63.49 59.36 58.45 56.92 57.25 61.17 61.14 55.58 55.91 53.62 54.40 54.89 54.45 55.12 56.68 59.23 58.42 54.93 53.02 53.37 55.85 51.92 49.49 49.02 48.55 48.72 52.82 54.84 56.30 56.61 56.81 55.58 53.62 51.96 51.32 53.09
62.61 63.64 62.65 57.25 53.84 55.39 57.08 56.32 52.49 53.79 52.36 52.26 52.59 52.55 52.55 52.91 54.99 54.65 55.48 57.10 57.16 55.09 54.15 52.92 51.69 50.75 51.00 51.04 51.26 53.92 55.32 56.63 56.02 55.32 55.48 54.66 53.04 52.63
62.09 59.07 54.37 53.30 54.51 55.04 54.89 54.13 53.91 51.82 51.19 51.43 51.77 52.51 51.63 53.60 51.86 51.33 51.75 50.65 49.66 49.47 51.37 50.04 52.69 52.89 52.32 50.96 51.88 53.29 53.45 54.41 55.33 54.72 54.66 55.05 54.25 54.48
56.78 55.42 55.98 55.15 54.60 54.07 52.88 51.99 50.73 51.02 51.99 52.43 52.69 51.73 51.53 49.23 48.53 49.25 47.63 46.69 44.62 44.90 48.37 50.07 52.20 56.46 53.66 52.00 53.08 53.20 53.33 51.57 53.79 53.75 53.18 53.15 53.71 53.76
55.67 54.53 53.07 52.38 51.86 51.59 52.60 53.27 53.18 53.64 53.29 55.01 53.46 49.61 47.47 47.60 47.64 47.18 45.87 44.04 42.96 43.93 44.87 48.32 52.84 53.85 55.94 55.05 51.89 52.20 52.20 52.33 53.30 52.79 51.79 50.81 51.53 52.47
55.70 55.38 53.74 54.11 54.19 54.59 54.08 53.47 54.79 56.12 55.36 53.66 48.94 47.87 46.72 46.56 44.94 45.63 44.93 43.83 43.64 44.02 44.41 44.82 49.78 49.38 49.92 50.54 55.16 51.74 51.57 51.97 52.64 52.26 51.46 49.45 48.64 50.34
56.04 55.68 54.08 52.73 53.10 52.84 54.49 53.88 52.13 54.72 51.56 48.74 46.34 43.86 44.03 43.93 45.45 44.49 43.75 43.86 43.64 42.96 43.56 43.59 47.40 47.30 46.97 46.37 49.04 53.44 52.59 51.98 51.17 49.35 49.74 49.09 47.37 47.69
52.65 52.32 51.67 51.67 51.23 50.54 49.35 49.01 48.40 47.38 46.26 43.85 42.77 42.54 42.53 43.99 43.66 43.11 43.02 42.28 41.84 42.02 42.17 44.49 46.26 47.87 48.72 47.94 48.06 50.59 50.37 49.65 48.90 48.11 47.92 47.77 47.82 50.54
51.47 51.15 54.57 50.51 50.15 50.33 49.94 49.06 47.03 45.79 43.78 42.91 42.51 43.06 45.21 42.73 42.26 42.42 42.86 44.53 44.10 41.63 42.27 41.60 42.38 52.42 49.86 49.17 46.11 46.42 49.17 49.58 48.98 48.39 47.57 44.65 44.50 45.50
52.66 51.74 50.75 50.42 49.96 49.58 49.06 47.45 45.92 45.13 44.17 43.59 44.83 43.58 42.89 42.29 41.69 42.12 42.41 41.08 41.96 41.38 42.60 41.66 43.97 49.08 47.31 45.68 44.50 45.04 45.84 47.58 49.10 49.81 49.33 47.22 44.46 41.25
53.16 52.00 51.32 50.73 50.36 49.68 48.56 46.46 44.71 43.80 42.47 43.04 42.12 41.29 41.80 41.93 42.46 41.96 41.49 42.81 42.09 41.44 40.96 40.84 41.66 47.87 46.16 45.24 45.46 43.54 44.23 45.01 45.65 44.56 45.04 47.47 46.53 46.48

GFSNE_sfc_wetblb_018.txt.gz
Wetbulb
62.36 61.60 62.35 61.00 61.75 61.38 60.99 58.47 56.02 52.86 53.75 57.13 58.49 61.43 62.61 63.03 64.91 65.50 62.73 65.25 66.57 65.88 64.93 64.53 65.14 65.79 66.46 67.04 67.07 67.03 66.93 66.78 66.68 66.44 66.13 65.93 64.95 65.36
63.83 61.73 61.61 61.26 61.54 61.81 61.13 59.25 58.09 55.70 53.53 57.40 58.55 58.50 60.32 63.06 64.31 65.01 62.76 65.56 65.91 65.84 65.30 64.38 64.53 65.03 65.75 66.12 66.14 66.10 66.06 66.17 66.02 66.04 65.93 65.96 65.91 65.65
64.33 63.63 62.95 62.25 61.78 60.90 61.95 60.63 58.75 60.35 57.49 57.23 58.30 59.06 61.65 61.17 60.92 61.19 63.77 62.31 63.10 64.92 64.99 64.67 63.99 64.10 64.54 64.91 64.96 65.13 65.40 65.18 65.06 65.44 65.82 66.02 65.72 65.78
62.95 63.14 62.43 64.04 62.60 61.69 61.42 61.21 60.55 61.12 58.27 56.50 57.96 59.34 59.38 60.19 61.82 62.60 63.04 63.84 62.48 65.14 64.46 64.10 63.66 63.44 63.13 62.83 62.74 62.88 62.77 62.97 63.53 63.70 64.23 65.13 65.26 65.43
64.21 62.89 62.58 62.00 62.03 62.65 62.74 61.28 62.10 62.02 61.70 59.44 58.38 59.24 59.54 59.99 59.85 59.23 59.48 60.40 62.56 65.61 63.81 63.03 62.64 62.32 61.60 60.65 59.87 59.06 58.30 58.69 59.30 60.16 60.91 62.01 62.98 63.85
64.60 64.76 63.66 63.58 63.49 62.55 63.41 62.07 62.35 62.92 60.84 60.51 59.37 58.32 58.89 59.64 59.38 59.02 57.94 58.33 58.49 62.10 63.40 62.75 63.27 63.17 61.75 60.20 60.26 60.74 58.15 56.61 55.92 56.31 56.84 57.83 59.09 60.27
64.60 64.61 64.87 65.99 65.89 64.03 63.75 62.74 61.98 62.45 61.40 60.77 58.63 57.36 56.77 56.09 56.38 57.43 57.31 57.69 58.05 58.63 57.38 57.83 57.17 56.24 56.47 58.55 60.40 62.29 60.49 58.91 57.38 56.28 55.44 55.15 55.37 56.31
64.21 64.03 64.76 66.81 66.06 64.49 64.23 64.31 64.18 62.38 60.26 59.79 59.61 57.50 57.93 56.38 57.21 57.52 56.52 54.92 53.80 57.46 56.02 55.63 54.96 54.88 55.42 55.69 59.72 60.16 59.27 58.47 57.46 56.85 56.11 55.33 54.91 55.13
64.61 64.38 65.11 67.44 65.34 65.68 63.94 63.72 62.28 62.39 63.75 63.30 61.73 59.42 57.17 57.53 57.17 56.30 55.82 55.32 54.66 57.75 54.08 52.14 53.42 53.11 55.41 56.86 59.17 59.39 58.32 57.82 57.05 56.69 56.11 55.62 55.06 54.45
66.53 65.60 65.56 66.09 64.82 64.03 63.75 62.19 61.81 63.09 63.39 63.06 61.67 61.70 59.76 59.56 58.97 58.88 57.83 55.62 54.64 55.26 54.37 51.32 52.98 53.23 54.99 55.24 58.07 58.85 58.14 56.29 55.71 55.42 55.04 54.26 52.66 51.79
66.00 66.65 65.51 64.47 61.66 60.81 63.64 61.68 62.49 63.42 62.81 60.20 60.33 59.66 58.84 58.19 59.24 57.40 55.84 52.75 51.56 51.84 52.88 52.31 52.49 51.75 52.14 52.11 52.68 56.19 55.84 54.41 54.44 54.89 54.87 54.09 52.44 51.43
63.98 64.56 61.81 64.13 59.56 58.07 63.01 61.92 61.01 60.85 60.65 60.12 57.85 57.99 57.91 57.43 58.03 57.43 55.41 52.17 51.47 51.65 53.20 52.25 51.05 49.52 48.05 47.62 48.78 50.16 52.45 53.97 53.42 53.38 53.66 53.34 51.63 53.75
63.45 63.93 64.69 57.62 55.19 55.37 57.52 61.69 60.85 59.16 57.86 54.18 52.84 52.98 53.42 53.46 53.57 54.45 55.09 54.77 51.95 50.68 54.40 52.65 49.45 47.62 46.50 47.03 49.62 52.28 53.38 54.85 54.48 54.42 52.89 51.76 50.91 51.82
64.07 63.73 61.70 54.59 52.65 53.56 56.46 56.46 55.69 54.60 53.40 52.34 51.17 50.67 51.02 52.04 50.88 52.33 51.45 53.48 55.12 53.90 54.91 51.29 49.80 48.78 46.28 47.02 48.44 50.78 52.28 53.72 53.56 54.50 54.99 53.16 51.70 51.49
62.41 59.59 54.39 51.56 51.74 54.64 55.55 56.06 52.58 51.58 49.97 49.40 49.44 50.18 51.41 50.45 49.86 48.66 49.21 48.77 48.23 47.24 49.94 46.82 48.87 47.57 49.31 49.36 49.55 49.52 50.66 51.89 53.46 53.47 53.81 53.72 53.25 52.97
57.87 56.14 55.58 54.80 54.15 54.47 53.55 52.67 51.69 50.14 49.61 49.78 50.42 51.10 50.35 47.13 46.52 47.06 45.74 44.87 42.53 43.25 46.39 47.33 47.19 48.49 50.63 50.98 49.90 50.81 51.57 49.57 52.24 53.10 53.26 53.27 53.32 52.92
54.73 54.54 53.88 54.43 54.71 51.41 50.80 50.73 49.94 49.81 51.08 51.29 51.93 51.08 46.73 45.66 45.94 44.90 43.90 42.36 41.09 41.46 43.01 45.41 46.55 48.43 51.31 51.72 50.76 51.18 50.28 50.70 51.88 52.12 51.84 50.77 50.83 50.71
54.26 52.54 52.08 51.62 51.52 51.40 51.17 51.19 52.00 53.19 51.49 52.25 49.71 46.21 45.32 45.12 43.18 42.92 42.66 41.48 40.44 41.53 41.44 41.96 42.27 45.72 47.03 48.98 53.79 49.79 48.78 49.88 51.26 51.12 50.42 47.78 47.38 49.45
54.74 54.92 53.60 53.30 53.27 52.64 52.71 52.06 51.90 52.48 51.31 47.92 44.68 42.44 41.97 41.75 41.94 42.44 41.29 40.82 41.01 39.84 40.44 40.11 41.56 43.68 42.43 43.41 47.39 51.60 47.81 49.70 49.03 47.41 47.12 47.62 46.28 45.77
53.07 53.31 51.53 51.24 50.49 50.17 48.74 47.91 46.04 44.96 43.21 42.50 41.59 41.23 40.83 41.93 42.33 40.78 40.01 39.39 39.72 39.27 39.44 40.63 41.77 39.72 43.80 44.11 44.54 47.38 49.01 47.52 46.62 45.54 45.76 46.24 46.41 47.89
50.17 49.27 50.64 48.90 48.26 47.80 47.48 46.50 45.54 44.34 42.80 41.41 40.62 40.63 41.65 41.14 40.44 39.61 40.00 42.64 41.81 38.70 38.95 40.20 40.49 47.57 47.41 46.10 43.46 43.33 45.81 47.99 47.48 45.62 45.15 43.17 41.62 41.88
51.15 50.26 49.29 48.52 48.27 47.82 46.58 45.62 44.81 43.79 41.89 41.05 41.35 41.68 41.13 40.09 39.29 39.89 40.09 38.77 39.67 39.56 39.09 41.08 40.27 46.26 44.57 43.11 41.87 42.24 43.62 44.90 47.34 48.47 48.51 45.91 41.39 38.22
50.04 49.77 48.84 48.59 48.06 47.97 46.22 44.92 43.84 42.63 40.53 40.63 40.53 39.69 39.32 39.34 39.81 39.39 39.12 40.20 39.90 39.02 38.47 38.93 39.40 44.79 43.31 42.59 43.16 41.79 41.49 42.85 43.42 43.57 43.66 47.15 45.45 44.65

GFSNE_sfc_wetblb_021.txt.gz
Wetbulb
61.85 62.66 61.34 60.64 61.40 60.63 60.10 57.15 55.19 52.18 52.81 56.00 57.66 59.07 61.47 60.88 63.03 63.89 65.19 65.09 66.42 65.81 65.09 64.65 65.19 65.88 66.73 67.14 67.47 67.62 67.70 67.72 67.11 66.86 66.93 66.69 65.59 65.41
62.35 60.89 60.63 60.30 60.34 60.96 59.52 57.99 56.40 54.82 53.13 55.77 58.09 57.41 58.96 61.69 62.58 64.47 63.59 66.17 65.45 65.37 65.05 64.70 64.92 65.38 65.90 66.25 66.37 66.63 66.73 66.89 66.92 66.79 66.35 66.26 66.48 66.22
63.24 62.01 60.86 60.84 60.24 60.86 60.71 59.55 58.25 57.26 55.03 56.88 57.97 58.21 59.28 60.60 60.71 59.94 61.48 61.85 61.76 64.21 64.72 64.50 64.22 64.57 64.88 65.08 65.03 65.18 65.36 65.74 65.92 66.06 66.35 66.35 66.32 66.32
62.40 62.65 62.49 63.31 61.10 60.66 60.12 60.35 59.75 58.03 57.17 55.24 56.90 58.27 58.90 59.19 59.58 60.51 61.79 62.85 61.46 63.84 63.87 63.34 63.02 62.88 62.87 62.94 62.91 62.82 62.44 62.46 62.89 63.83 64.72 65.36 65.97 66.20
62.76 62.48 62.55 61.86 60.59 62.30 61.19 60.78 61.81 61.13 59.85 57.92 57.29 58.47 58.90 59.09 59.14 58.91 59.08 59.84 61.51 64.58 62.99 62.85 62.45 62.37 61.78 60.37 59.49 58.77 57.60 57.73 58.57 59.50 60.65 61.81 63.42 64.50
64.99 63.69 62.76 62.45 61.44 62.15 62.43 62.09 61.10 61.74 59.54 59.12 58.36 58.78 58.61 59.39 59.08 57.75 57.68 57.63 58.08 61.25 62.72 62.13 61.98 62.31 61.27 59.55 59.31 59.88 57.92 56.36 55.64 56.02 56.47 57.27 58.85 60.59
64.00 64.69 63.96 64.24 64.90 64.02 61.92 61.28 62.61 60.60 60.35 59.29 58.31 58.64 59.05 58.43 58.07 58.29 56.90 57.49 57.79 58.55 57.54 57.20 56.84 55.24 55.02 57.84 59.00 60.67 59.05 58.07 56.90 56.28 55.58 55.23 55.39 56.36
63.67 64.61 65.30 65.88 65.52 64.35 63.79 63.68 63.73 61.40 60.04 58.43 59.37 58.65 58.53 59.05 58.44 58.18 56.12 54.74 54.46 57.15 55.41 55.82 55.38 54.13 54.24 54.63 58.92 59.74 59.08 58.34 57.46 56.52 55.96 55.29 54.95 55.39
65.72 65.68 65.41 65.72 64.94 65.39 63.50 63.08 63.15 62.88 62.70 60.53 58.90 59.90 60.11 60.77 59.31 56.44 55.76 55.00 54.58 56.52 55.52 53.54 53.13 53.00 54.74 55.73 58.71 59.11 58.63 57.43 56.89 56.29 55.38 55.33 54.83 54.09
66.26 65.83 65.17 64.83 64.84 64.20 64.02 62.54 61.86 62.16 63.20 62.58 61.81 62.44 61.97 61.95 59.42 58.14 57.40 55.32 54.94 56.04 54.67 51.36 52.80 52.50 54.20 54.73 57.82 58.48 57.90 56.91 56.10 54.95 54.22 53.31 52.27 51.63
66.68 66.88 65.78 64.06 62.40 60.91 63.72 62.71 60.83 61.40 62.13 60.33 61.10 59.86 59.07 58.51 58.93 57.00 56.12 53.64 51.82 51.82 52.80 51.67 51.73 51.49 52.03 52.69 54.18 57.18 56.57 54.91 53.82 53.59 54.12 53.83 51.92 51.32
65.52 65.62 62.54 63.98 59.03 58.13 64.29 62.58 60.34 61.52 60.30 59.63 58.96 57.07 56.58 55.72 57.86 56.98 55.24 52.39 49.95 49.46 51.87 51.18 50.08 49.79 48.03 48.08 47.50 49.18 48.95 52.37 52.28 52.18 52.86 53.11 51.48 51.34
63.28 61.73 62.73 58.18 55.68 54.59 57.42 62.13 61.71 59.49 59.29 57.63 54.38 52.10 51.90 52.04 52.14 52.47 53.50 53.02 50.67 50.22 53.50 52.44 49.55 47.23 45.65 45.46 47.37 50.12 50.84 52.36 52.15 52.43 52.07 50.85 50.68 51.87
61.68 63.73 63.60 56.44 51.71 51.89 54.97 55.85 53.70 56.32 54.48 51.86 49.91 49.41 49.99 51.20 49.59 50.38 49.41 51.48 53.66 52.90 53.14 51.30 49.23 47.21 44.34 43.33 45.06 49.06 50.27 50.82 50.87 51.70 52.32 52.05 51.30 51.53
64.38 61.62 55.33 51.52 50.07 52.61 53.88 54.02 53.81 53.94 51.01 49.47 48.84 49.13 50.36 51.11 49.17 47.05 47.89 46.72 45.78 46.14 48.48 46.69 47.57 45.70 45.25 44.96 46.37 48.20 47.57 49.52 50.63 50.72 51.82 51.98 52.61 53.21
57.22 55.74 55.56 54.83 54.71 55.19 55.03 53.73 52.73 51.11 49.87 48.69 48.71 49.59 50.06 47.22 45.47 45.68 44.81 43.38 41.57 42.55 44.61 44.43 44.00 44.62 44.50 46.51 47.14 47.96 49.69 47.28 49.59 50.46 50.83 51.63 52.32 52.47
55.96 55.31 55.05 54.03 53.71 52.53 51.18 51.16 50.65 49.93 49.83 49.49 49.65 50.03 48.99 45.30 44.70 43.91 42.61 41.39 40.21 39.64 40.73 43.01 43.23 43.96 45.55 46.62 45.58 47.03 48.11 47.39 48.77 49.27 49.50 48.17 48.96 49.28
54.87 54.78 53.51 52.71 52.98 51.86 50.53 50.10 49.93 51.61 49.23 49.55 49.77 48.74 45.98 44.20 43.06 41.23 41.41 39.92 38.96 39.17 39.02 39.17 39.34 42.45 42.80 44.14 50.85 46.78 46.15 46.04 47.90 48.04 47.17 45.01 44.75 46.93
54.34 52.67 52.28 51.72 51.27 51.49 51.46 50.83 50.84 51.00 50.98 50.47 47.41 45.08 42.46 40.79 40.55 41.16 39.87 39.05 38.76 38.09 38.49 37.61 38.54 40.82 37.86 37.55 43.64 51.55 45.86 45.55 45.32 44.80 44.50 44.28 43.42 44.56
53.23 53.27 53.16 52.60 51.78 50.99 50.93 49.88 48.11 46.19 44.80 42.28 41.04 40.40 39.77 40.79 41.16 39.45 38.64 37.35 37.84 37.74 38.09 38.38 39.34 37.82 38.27 41.35 43.32 45.80 48.14 44.36 43.32 43.87 43.61 44.87 45.65 47.88
51.90 52.07 51.43 50.16 49.00 48.65 47.52 46.21 44.75 43.50 42.65 41.38 40.24 39.26 39.96 40.48 39.12 38.56 38.37 41.63 40.78 37.49 37.64 37.89 39.69 45.75 42.62 44.57 41.97 41.88 43.85 47.31 46.44 44.20 44.17 43.22 42.06 41.87
50.43 49.57 49.30 48.40 47.59 47.31 46.32 45.51 44.50 42.99 41.73 40.82 40.41 40.18 40.08 39.51 38.49 38.55 38.25 37.57 38.09 37.98 37.66 38.32 38.97 44.12 43.44 41.58 40.31 40.16 42.22 42.80 46.62 47.72 48.71 47.56 42.70 38.71
50.94 50.29 48.10 47.75 47.63 47.00 45.27 44.47 43.56 42.32 40.53 39.58 39.80 39.89 38.50 38.08 38.27 38.36 38.05 38.47 37.98 37.34 36.53 37.54 38.29 42.11 42.04 41.01 41.29 39.89 39.89 41.51 42.49 41.76 43.34 47.71 47.23 45.89

GFSNE_sfc_wetblb_024.txt.gz
Wetbulb
65.52 65.37 64.70 64.07 64.52 63.59 62.40 62.14 61.48 58.17 58.79 61.99 62.36 63.93 65.74 65.48 65.48 67.12 68.33 66.89 66.38 66.30 65.19 64.95 65.43 65.83 66.54 67.10 67.43 67.60 68.02 68.26 68.15 67.94 67.73 67.65 66.82 66.27
64.80 64.80 64.67 63.98 64.16 64.00 63.31 62.86 60.95 61.10 59.19 60.86 62.48 63.38 64.18 65.28 65.41 67.52 66.75 66.44 66.27 65.21 65.04 64.73 64.98 65.59 65.99 66.25 66.49 66.73 66.85 67.00 67.23 67.28 67.30 67.26 67.09 67.28
65.84 64.40 64.05 64.80 63.55 63.63 63.51 62.82 61.54 60.83 60.44 61.86 62.17 63.38 64.20 65.50 65.83 65.79 65.42 65.91 65.87 64.16 64.47 64.40 64.13 64.48 65.09 65.33 65.20 65.18 65.44 65.75 65.82 66.17 66.68 66.83 67.02 67.03
65.72 65.27 64.71 63.82 64.07 64.05 63.14 63.83 62.84 62.94 62.16 62.34 61.93 62.66 63.74 64.56 65.10 65.47 65.26 65.58 66.01 64.64 63.60 63.26 63.04 62.75 62.50 62.36 62.23 62.33 61.82 61.83 62.22 62.74 63.87 64.95 65.64 66.26
66.08 65.81 65.30 64.69 64.31 64.05 64.15 63.51 63.51 63.12 63.58 62.10 62.66 62.64 63.37 63.52 64.24 64.26 64.28 64.68 64.67 64.89 63.03 62.69 62.40 62.25 61.47 60.14 58.95 58.09 57.21 57.30 57.83 58.41 59.34 60.72 62.17 63.54
66.96 66.20 65.78 65.12 64.40 64.45 64.70 65.02 64.88 64.36 63.96 62.96 62.45 62.93 62.83 62.91 63.01 62.07 61.95 62.94 62.37 63.95 64.55 62.95 62.44 62.42 61.28 59.36 59.20 59.54 57.71 56.42 55.88 56.04 56.34 57.01 58.28 59.78
67.06 66.53 66.23 66.01 65.62 64.77 64.64 65.12 65.49 63.87 64.31 63.30 62.36 62.31 62.01 61.78 61.74 61.23 59.43 60.28 61.62 62.52 63.20 63.48 62.50 62.51 62.63 60.23 60.61 61.05 59.11 57.67 56.68 56.12 55.47 54.98 55.30 56.19
65.91 66.71 67.30 66.35 65.62 63.87 63.61 63.74 65.12 64.23 64.12 63.33 62.29 61.83 62.23 63.03 62.01 60.14 59.55 58.58 58.72 62.65 61.69 61.61 61.71 61.89 62.79 61.49 59.98 59.52 58.96 58.40 57.48 56.87 55.73 55.26 54.79 55.15
67.02 66.11 65.55 66.84 65.86 66.74 63.69 63.01 63.07 62.73 63.80 64.53 63.47 60.76 61.78 64.27 62.55 59.40 58.35 60.12 59.88 61.64 60.60 59.66 61.61 60.44 61.94 60.97 58.94 58.86 58.33 57.79 57.16 56.34 55.74 54.62 53.90 53.59
67.65 66.82 66.80 66.97 66.51 65.87 65.87 65.69 65.27 65.73 64.63 64.02 65.89 64.25 63.51 64.84 63.10 62.33 62.18 61.25 60.95 61.40 60.68 57.45 60.50 58.54 60.30 60.58 58.67 58.42 57.70 57.08 56.27 55.37 54.29 53.07 51.88 51.28
67.58 67.25 67.11 66.98 62.57 61.25 66.31 65.48 65.35 64.08 61.49 60.86 60.73 59.95 60.07 59.68 62.37 62.07 59.13 58.01 58.06 58.05 58.60 57.89 58.23 57.24 58.34 58.72 59.76 57.59 55.78 54.48 53.71 53.66 53.68 53.03 51.29 50.18
67.40 67.56 62.74 65.71 59.06 58.18 66.65 66.60 64.98 63.41 63.67 63.53 62.83 60.57 59.48 58.86 58.82 62.48 60.45 57.13 56.46 55.53 58.16 56.47 56.70 56.24 52.53 56.73 55.62 56.86 57.17 53.69 51.55 51.46 52.37 52.52 50.96 56.95
67.13 66.61 66.61 58.74 55.89 54.38 58.71 65.90 63.34 63.08 62.27 63.54 61.56 58.86 57.76 57.72 57.56 58.14 59.45 58.35 56.32 55.69 58.58 57.65 56.49 55.51 53.13 52.26 53.68 55.30 56.12 56.13 57.46 57.24 52.47 50.38 49.85 52.01
66.73 66.35 65.11 55.61 53.55 52.46 55.53 57.68 54.59 58.65 60.85 59.08 57.59 56.00 56.19 57.20 56.07 56.67 56.95 57.90 58.78 58.38 58.67 58.70 54.96 53.84 52.64 50.00 49.19 53.75 55.12 55.96 56.99 56.70 57.38 53.93 51.18 51.05
65.91 62.71 55.53 50.09 49.53 52.28 54.60 53.65 54.90 60.30 58.41 56.70 55.89 55.28 56.26 57.49 56.24 54.80 54.70 54.38 53.98 54.16 53.86 54.33 54.01 53.70 52.27 51.13 49.45 50.21 51.37 54.11 55.46 56.42 56.09 54.96 54.42 54.63
58.26 58.86 56.67 56.51 56.25 57.22 56.81 56.03 60.39 58.89 57.37 56.68 54.84 55.47 55.94 55.21 53.83 53.06 53.01 51.47 50.53 51.12 53.49 52.40 52.11 51.58 49.80 51.09 51.19 50.20 51.96 51.16 54.92 54.91 53.97 53.33 53.52 53.48
57.74 59.55 58.83 58.70 57.85 57.53 57.71 57.33 56.97 56.26 55.05 54.68 54.94 55.17 55.33 54.34 52.87 51.50 50.40 49.72 49.48 48.71 48.71 50.56 51.73 51.43 51.00 51.03 49.47 50.91 50.73 52.93 54.12 52.93 51.60 50.07 50.96 51.46
60.20 60.47 59.48 59.01 58.50 56.85 56.00 55.44 55.06 54.71 55.05 54.80 55.48 55.58 55.24 53.33 51.38 48.99 49.06 49.16 48.16 47.87 47.31 47.92 47.79 49.15 50.04 51.28 51.56 50.08 52.76 52.46 52.76 51.75 50.52 48.06 48.23 50.42
60.60 60.45 60.03 58.24 57.45 56.64 56.05 55.22 55.18 55.87 55.87 55.19 55.28 54.73 52.89 50.16 48.16 48.48 48.33 47.57 47.32 47.17 47.61 47.27 46.85 48.02 45.75 44.45 49.56 52.37 53.31 51.55 51.08 48.93 49.02 48.06 47.18 48.80
60.13 59.05 58.02 56.93 56.28 55.95 55.70 56.00 56.04 55.15 55.63 55.21 53.64 50.91 48.71 48.23 48.14 47.83 47.01 46.63 46.94 46.99 47.00 47.94 46.87 46.76 45.90 46.50 47.41 52.28 48.49 51.09 49.20 47.62 47.25 48.38 49.23 49.41
58.03 57.57 57.11 56.60 56.34 56.06 55.90 55.74 54.68 54.03 52.41 50.20 48.75 47.89 47.85 48.64 48.07 47.46 46.68 43.73 44.93 46.75 46.22 46.97 48.22 46.48 48.64 49.59 48.74 49.43 50.70 47.53 48.58 47.94 47.39 45.93 45.20 43.83
56.94 57.24 56.76 56.53 55.02 55.30 54.36 53.02 51.24 49.73 49.60 49.09 48.56 47.54 47.48 48.20 47.63 46.87 46.91 46.80 47.19 46.78 45.98 46.80 47.89 48.47 51.71 50.01 48.73 48.62 48.37 48.99 49.31 48.97 48.75 47.21 44.91 40.72
56.27 56.24 55.15 54.56 54.23 53.69 52.71 51.81 51.72 51.16 50.20 49.88 48.57 47.95 47.67 46.90 46.73 47.34 47.06 46.75 46.53 46.05 45.73 45.83 47.38 48.36 49.20 48.58 47.05 47.41 47.14 46.23 46.04 45.41 46.33 48.23 48.19 47.55

GFSNE_sfc_wetblb_027.txt.gz
Wetbulb
71.50 71.21 69.87 69.95 69.94 68.98 67.84 67.30 65.11 61.76 62.74 66.68 65.96 69.93 70.58 71.11 70.44 70.58 71.03 69.15 67.24 66.64 66.09 65.76 65.90 66.24 66.82 67.36 67.58 67.74 68.19 68.43 68.56 68.53 68.60 68.85 68.30 67.74
70.47 70.87 70.55 69.95 69.72 69.64 69.03 68.35 67.12 65.62 63.00 66.71 66.83 68.98 70.24 70.60 69.53 70.92 70.45 67.96 67.02 66.24 65.54 64.88 65.21 65.74 66.15 66.60 66.78 66.82 67.00 67.26 67.41 67.44 67.68 67.84 67.94 68.01
70.96 70.52 70.46 71.16 69.10 68.91 69.05 68.43 67.56 66.69 64.56 66.44 67.90 69.86 68.81 69.10 69.16 70.66 69.93 70.29 69.55 65.37 65.06 64.68 64.37 64.68 65.32 65.36 65.32 65.23 65.28 65.48 65.65 65.90 66.05 66.38 66.94 67.42
71.29 70.64 70.09 69.22 69.69 69.88 68.56 69.14 68.38 68.41 66.02 66.58 68.07 67.48 68.28 69.52 70.12 70.00 69.17 68.77 69.43 66.79 64.76 64.55 63.95 63.80 63.47 63.17 62.64 62.35 61.66 61.66 62.01 62.57 62.90 63.64 64.39 65.07
71.93 70.96 70.50 70.25 69.01 68.06 68.30 67.71 67.70 68.20 67.81 66.26 65.94 68.23 68.22 68.55 68.57 69.31 69.42 68.95 68.38 66.54 63.37 63.59 63.34 62.94 62.53 61.37 60.54 59.01 57.60 57.32 57.71 58.62 59.41 60.45 61.37 62.27
72.60 71.67 71.08 70.49 69.75 68.86 68.34 68.88 68.75 67.87 67.89 66.39 66.33 66.28 66.97 68.63 67.87 66.41 66.09 67.07 66.11 65.77 66.32 64.24 64.15 63.91 62.59 60.34 59.71 59.82 57.99 56.84 56.33 56.72 57.09 57.47 58.61 59.44
72.95 72.17 71.63 70.86 68.17 68.07 68.60 69.63 69.95 67.91 67.04 66.56 66.00 66.11 65.68 65.01 63.15 66.02 64.96 64.99 65.73 65.55 65.24 66.57 66.74 66.08 65.81 61.93 62.12 61.91 59.89 58.68 57.05 56.39 56.07 55.69 56.06 56.63
73.00 72.64 72.33 69.08 67.57 64.53 64.63 65.96 69.45 69.08 68.40 66.67 66.35 65.81 66.97 64.06 65.67 65.37 64.72 63.64 61.75 64.98 63.89 64.39 66.46 65.50 66.01 66.25 63.41 60.98 59.36 58.51 57.84 57.27 56.58 55.45 55.31 55.39
73.66 73.39 71.93 71.01 67.98 69.03 64.41 63.40 63.91 64.17 65.83 69.61 67.77 67.91 66.69 65.88 66.66 65.95 65.50 64.37 63.54 66.77 65.50 63.17 65.72 64.19 64.77 64.46 60.92 59.74 58.60 57.98 57.36 56.89 56.42 55.59 54.45 53.61
74.25 73.59 72.75 72.07 70.50 69.55 70.65 68.59 68.21 67.74 67.67 67.95 69.54 69.76 67.92 68.62 67.57 67.84 67.23 66.60 66.16 66.13 66.48 60.86 62.71 61.80 63.00 62.56 60.14 59.40 58.17 57.00 56.54 56.09 55.22 54.04 52.07 50.94
74.30 73.76 72.80 72.15 66.34 62.48 69.91 69.17 68.09 68.59 63.97 61.72 62.77 61.61 60.80 61.40 64.38 66.97 64.81 62.93 61.51 62.04 63.91 60.72 60.81 60.06 60.35 60.20 60.59 58.82 56.19 54.53 53.56 53.20 53.55 52.89 51.18 50.50
73.87 73.22 63.79 69.29 60.06 59.03 69.39 69.82 68.80 69.27 69.16 67.75 66.70 62.51 62.59 63.36 60.13 67.30 65.12 60.96 59.39 58.50 62.44 58.40 58.36 58.03 54.75 57.42 58.45 57.75 57.34 54.51 52.86 52.31 52.47 52.23 50.90 58.97
71.87 70.29 71.65 59.60 55.87 55.45 59.86 71.06 69.08 69.76 66.61 67.96 66.56 66.25 65.91 65.13 63.86 63.98 64.16 61.99 59.62 58.55 60.78 59.84 57.25 56.45 54.69 53.97 55.47 56.46 56.30 56.47 57.49 56.99 52.18 51.52 50.49 52.51
70.01 70.89 71.07 56.51 54.00 53.36 58.59 60.13 55.93 62.34 67.69 66.65 65.44 63.82 63.27 61.85 62.08 62.70 63.53 63.11 62.60 61.67 61.96 61.39 56.24 54.72 53.35 52.22 51.44 54.16 55.29 56.40 57.15 56.69 57.19 54.93 52.13 51.54
70.95 67.49 59.19 52.93 53.11 54.68 55.07 54.82 56.22 67.17 66.20 64.44 63.67 63.02 62.13 62.38 62.54 61.86 61.27 61.54 61.21 60.91 58.84 60.32 57.64 56.43 54.72 51.96 51.20 52.54 52.64 54.13 55.66 56.40 57.88 57.96 57.05 56.65
60.68 59.80 59.05 59.23 58.60 61.00 58.11 58.80 67.10 67.34 65.60 64.45 63.82 62.49 61.92 61.27 60.46 60.35 59.08 58.91 57.15 56.94 59.15 58.69 58.24 56.89 52.72 52.84 53.37 52.55 53.14 51.43 55.13 57.00 57.13 56.33 55.34 55.14
59.87 61.42 62.01 62.08 61.42 62.17 64.09 63.80 66.12 64.21 63.91 63.42 62.14 60.49 60.31 60.56 60.02 59.81 59.07 57.86 55.04 54.58 53.81 54.51 57.44 57.43 55.62 55.41 51.93 52.29 51.91 53.54 55.76 55.69 55.24 52.92 53.36 53.90
61.85 62.55 63.44 62.77 62.82 63.19 62.53 62.66 63.86 62.32 63.25 61.91 61.45 60.64 60.13 60.15 59.69 58.35 57.08 55.17 54.06 53.47 52.41 52.66 52.94 52.61 53.09 55.63 55.75 51.95 52.38 53.08 54.43 54.60 53.89 51.16 50.76 53.16
62.78 63.05 63.20 63.17 63.56 62.76 62.93 62.77 62.74 62.54 62.35 61.15 60.77 60.59 60.88 60.49 56.81 55.95 54.91 54.26 52.53 52.16 51.75 52.61 52.22 51.24 48.81 47.59 52.54 52.91 53.00 52.98 52.62 51.35 51.31 50.63 50.03 51.14
64.11 63.47 63.09 62.89 62.69 61.86 62.15 62.92 62.11 61.48 60.83 61.10 60.95 60.87 60.18 58.26 55.52 54.63 53.88 52.35 51.57 51.30 50.95 52.31 52.12 51.61 49.72 48.82 49.44 52.81 48.73 53.79 51.57 49.84 49.16 50.61 50.71 50.53
64.09 63.83 64.01 63.31 62.19 62.41 62.13 61.86 61.82 61.43 61.34 60.86 60.28 59.00 57.47 55.84 55.04 54.18 52.77 47.28 48.00 50.87 50.06 50.68 52.60 46.59 52.43 54.70 51.14 50.29 52.93 48.75 50.65 50.46 49.80 48.02 47.48 48.65
64.04 64.03 64.69 64.44 62.96 62.28 61.93 61.53 60.84 59.29 59.50 58.73 57.63 56.66 55.79 55.17 53.64 52.61 51.81 51.16 50.83 50.90 50.90 51.73 53.47 53.24 52.91 51.05 49.26 50.38 50.69 51.73 50.66 49.86 50.06 49.18 46.66 43.03
65.43 65.28 64.13 62.93 61.61 61.80 61.34 60.47 59.09 58.15 57.61 57.30 56.55 55.88 54.78 53.06 53.34 52.80 52.02 51.49 50.81 50.35 50.73 50.46 51.29 52.33 51.46 51.42 49.18 49.93 50.03 49.37 48.41 47.46 48.60 48.86 48.72 48.10

GFSNE_sfc_wetblb_030.txt.gz
Wetbulb
73.82 73.81 71.85 70.59 71.49 70.79 70.09 69.02 66.64 63.65 64.52 68.44 66.82 71.00 71.23 71.31 72.34 72.16 72.09 70.38 69.09 67.86 66.99 66.38 66.77 66.96 67.22 67.56 67.90 68.05 68.26 68.69 68.97 68.84 68.94 68.62 68.66 68.84
73.41 73.12 73.28 70.88 71.37 70.94 70.27 69.56 68.76 66.62 64.35 69.37 68.16 70.65 71.36 71.01 70.52 71.92 71.77 69.81 68.43 67.27 66.61 65.86 65.93 66.20 66.28 66.65 66.97 66.93 66.98 67.13 67.24 67.53 67.75 67.73 67.64 67.78
74.80 73.31 73.15 74.06 70.26 69.93 70.51 69.84 69.18 68.54 65.69 67.61 69.54 71.31 71.92 71.36 70.72 71.00 71.48 70.88 70.13 67.12 66.54 65.79 65.22 65.37 65.76 65.86 65.77 65.44 65.31 65.33 65.21 65.20 65.52 65.69 65.82 66.27
75.19 74.42 72.83 72.16 72.66 72.11 70.03 73.04 71.07 71.10 67.28 68.57 70.40 69.34 70.78 71.97 71.74 71.87 70.36 69.93 69.91 67.17 66.41 65.58 64.97 64.95 64.60 64.42 63.96 63.47 62.82 62.23 62.29 62.41 62.76 63.30 63.64 64.36
75.91 75.14 73.92 72.42 71.89 71.16 70.90 70.15 69.55 69.49 69.80 67.31 67.20 69.50 69.59 70.52 70.54 71.47 71.12 71.43 70.06 68.16 64.50 64.60 64.13 63.99 63.50 62.66 61.79 60.57 58.51 57.86 58.32 59.30 60.18 60.88 61.55 62.20
76.79 76.14 75.12 73.81 72.58 72.05 70.92 70.91 70.56 69.19 69.81 67.95 67.34 67.24 68.70 70.67 69.30 67.26 68.00 69.77 68.63 69.18 68.28 65.33 65.60 65.01 63.91 62.25 61.13 60.62 58.20 57.04 56.92 57.42 57.90 58.19 59.14 59.92
76.90 76.66 76.01 74.36 70.02 70.85 71.53 71.67 73.23 69.89 67.51 67.45 67.35 67.27 67.30 67.38 67.68 67.85 66.74 66.78 69.21 69.29 68.36 68.12 67.70 67.40 67.63 62.69 64.33 63.90 60.72 59.19 57.99 57.08 56.60 56.48 56.81 57.24
77.03 76.52 76.45 71.88 70.34 66.09 65.88 66.53 70.56 71.81 71.12 67.47 67.28 67.63 70.26 69.10 68.86 67.35 66.41 65.59 63.85 69.30 67.83 66.93 68.13 67.26 67.56 67.61 64.05 61.65 60.57 59.44 58.39 57.76 57.19 56.45 56.29 56.16
78.01 77.30 76.09 75.74 72.01 73.65 66.11 64.49 64.96 65.28 67.08 72.10 69.97 70.39 70.25 71.76 71.62 68.84 68.57 67.24 66.11 67.91 68.39 65.67 67.10 65.75 66.83 66.10 61.79 60.72 59.73 58.46 57.91 57.44 57.08 56.43 55.52 54.68
78.28 77.86 78.23 77.71 75.53 73.87 73.61 70.17 70.02 70.45 70.15 69.85 70.91 71.12 73.15 71.95 71.47 69.98 69.88 68.94 68.61 68.07 69.74 63.47 65.45 63.01 64.67 64.71 62.03 60.06 58.95 57.82 57.01 56.70 55.88 54.60 53.14 51.90
78.32 78.16 77.97 77.51 69.94 64.11 73.43 72.79 71.92 71.58 65.30 62.27 63.27 63.12 64.09 62.51 66.18 68.94 66.57 66.64 65.13 64.49 67.10 64.03 62.40 61.73 62.62 62.21 62.82 60.11 56.45 55.15 54.17 54.21 54.59 53.71 51.80 51.03
78.18 78.70 66.52 74.40 62.64 60.41 71.96 72.52 71.41 71.92 71.61 68.57 67.18 65.61 63.96 65.45 61.73 68.49 67.67 64.84 63.76 61.20 65.26 62.06 60.09 60.09 57.95 60.74 60.19 59.92 59.62 55.64 53.28 52.84 53.27 52.96 51.34 58.45
74.93 75.52 76.06 62.39 57.53 57.08 62.65 71.56 71.22 72.50 69.25 71.07 69.08 69.58 69.42 68.84 67.53 67.80 68.85 64.67 61.63 60.81 62.95 63.01 59.75 59.14 57.96 56.64 57.73 58.12 58.04 57.48 58.10 57.59 51.67 50.94 50.78 53.35
75.62 75.45 75.36 58.49 55.19 54.83 59.84 62.70 58.74 62.47 73.12 70.39 69.20 67.53 67.34 67.39 67.84 66.62 66.60 65.82 65.51 64.06 64.52 64.91 59.12 58.25 56.70 54.91 53.61 56.15 56.62 57.45 57.62 57.23 57.85 55.35 51.50 51.68
76.07 71.23 61.27 54.20 53.48 55.37 57.87 57.93 58.67 70.11 69.74 68.56 67.26 67.34 67.49 67.74 67.35 65.68 65.71 66.04 65.17 64.81 62.86 63.10 59.83 59.45 56.03 53.74 53.21 54.10 54.27 55.93 56.97 56.48 57.09 58.27 58.65 58.70
62.66 64.92 61.37 60.02 60.00 60.90 60.08 61.75 69.03 69.88 68.61 68.19 67.28 67.50 67.24 65.12 63.58 63.64 62.03 61.94 60.81 60.70 63.28 62.31 61.10 59.30 54.78 54.40 54.24 53.51 54.95 53.28 55.42 56.75 57.92 58.08 57.97 57.79
60.77 62.71 62.58 62.89 63.24 63.05 65.37 66.30 68.05 68.96 67.74 68.23 67.16 65.87 64.63 63.81 62.66 63.06 62.33 61.68 59.85 58.83 58.00 60.05 60.77 60.53 57.66 57.16 53.29 54.43 54.71 54.34 55.17 56.53 57.08 54.94 55.85 56.30
62.78 64.12 64.26 63.53 62.36 63.20 65.03 64.91 67.29 66.31 67.69 67.23 66.25 65.09 63.53 62.26 61.68 62.42 62.03 60.85 58.83 57.89 57.17 56.61 55.59 54.50 54.87 58.60 58.34 54.69 54.63 54.26 55.16 56.57 56.84 53.11 52.34 54.17
66.82 65.47 63.73 63.14 62.82 63.20 64.51 66.06 66.30 65.93 66.90 65.92 65.20 64.36 62.81 62.51 61.26 61.57 60.59 59.29 57.63 56.93 55.82 55.47 54.10 53.38 51.34 50.29 55.20 54.86 53.48 54.15 54.44 54.10 53.91 52.66 51.48 52.64
67.15 64.25 64.84 64.75 65.68 64.81 65.05 66.01 65.80 65.20 65.25 64.68 63.94 63.10 62.75 62.23 61.52 60.42 59.12 57.90 56.54 55.31 54.37 54.40 54.06 54.18 52.67 51.51 51.42 53.68 48.91 55.42 53.54 52.22 51.57 52.30 52.36 51.19
67.02 66.71 66.48 66.11 65.96 65.54 66.09 66.48 65.95 64.65 64.10 63.45 62.69 62.68 62.51 61.79 60.35 59.02 58.10 50.40 51.31 54.19 53.03 52.96 55.50 51.09 54.77 54.28 53.07 54.06 55.60 48.84 52.25 52.91 52.19 49.21 48.57 49.58
67.24 67.24 68.16 67.38 66.82 66.70 66.17 65.90 65.03 63.67 63.38 62.94 62.56 61.97 61.50 60.36 58.82 57.81 56.71 54.76 53.36 52.85 53.02 54.39 55.74 55.17 54.34 53.06 52.31 53.15 53.24 54.86 53.21 51.05 50.60 49.66 48.28 44.71
67.43 67.58 66.56 66.43 67.39 67.42 65.99 64.40 63.79 62.81 63.16 62.45 61.18 60.69 59.98 58.46 58.20 57.18 55.59 54.66 53.91 53.38 53.37 53.08 53.58 54.33 53.69 53.22 51.75 52.30 54.02 53.15 51.80 50.96 50.87 51.29 51.06 50.15

GFSNE_sfc_wetblb_033.txt.gz
Wetbulb
76.48 75.95 73.03 71.06 71.66 71.30 70.43 69.57 67.49 64.58 65.75 69.51 67.76 73.55 70.89 71.45 72.27 71.86 72.02 69.30 69.37 68.54 67.64 67.36 67.54 67.72 68.06 68.42 68.28 68.42 68.65 68.77 68.93 69.14 69.27 68.92 68.86 69.14
74.14 76.45 75.73 71.54 72.25 71.51 70.65 70.10 69.20 67.08 64.85 68.82 69.30 71.11 72.26 70.63 71.49 71.72 71.45 70.69 69.84 68.58 67.66 66.79 66.63 66.82 67.10 67.04 67.15 67.43 67.49 67.45 67.62 67.74 67.95 67.97 67.78 67.71
77.20 76.96 75.85 76.80 70.88 70.53 70.75 70.39 69.50 69.12 66.06 67.62 69.73 73.53 73.33 72.34 71.78 72.44 71.91 72.75 70.24 67.03 67.23 66.92 66.35 66.20 66.24 66.38 66.43 66.19 65.76 65.49 65.18 65.28 65.18 65.58 66.02 65.92
76.54 76.85 75.26 72.89 75.48 75.54 71.17 75.17 71.84 73.28 68.39 72.70 72.15 70.67 72.41 74.48 74.17 74.60 71.25 70.06 71.00 67.42 67.91 66.97 66.19 65.66 65.22 65.19 65.07 64.31 63.74 63.46 62.82 62.03 62.46 63.19 63.39 64.06
78.15 77.64 76.41 75.63 75.29 72.12 72.46 71.18 70.27 71.00 71.09 68.37 67.95 69.89 70.68 71.30 72.17 73.67 73.67 73.23 71.06 67.57 66.14 65.39 64.66 64.42 64.01 63.39 62.25 61.31 60.05 59.19 58.73 59.16 59.88 60.54 61.47 62.24
78.79 78.61 77.93 76.63 75.13 75.19 73.96 73.58 73.11 71.20 70.65 68.68 68.06 67.71 68.94 72.61 70.60 68.56 68.40 70.22 69.64 69.59 68.89 66.99 67.99 65.33 63.88 62.45 62.26 61.88 58.99 57.70 57.02 57.79 58.25 58.71 59.37 60.23
79.14 79.05 78.76 76.88 72.24 73.20 73.07 73.42 73.42 70.95 67.69 67.86 67.72 68.03 67.51 68.52 69.25 69.33 68.64 68.16 70.35 68.89 69.41 69.14 70.25 68.82 67.69 63.71 65.69 63.96 61.58 60.09 58.86 58.06 57.50 56.88 56.84 57.66
78.51 79.07 79.02 73.61 72.05 67.76 67.36 68.10 72.63 73.82 72.41 69.79 69.02 68.90 73.04 71.73 70.06 68.61 68.44 66.22 64.91 70.28 69.17 67.95 70.95 69.20 68.26 68.03 64.81 65.04 62.73 60.28 59.14 58.05 57.23 56.82 56.90 56.91
79.24 79.06 78.46 76.82 74.33 75.30 67.05 66.10 65.90 65.85 68.72 74.28 72.13 72.09 73.55 74.27 74.44 70.90 71.14 69.60 67.33 69.25 69.54 66.24 68.29 66.94 67.33 64.97 63.16 62.78 60.44 59.08 58.25 57.92 57.66 56.68 55.66 55.12
79.01 79.20 78.93 77.92 77.69 76.46 75.71 72.67 72.41 72.24 71.67 70.99 73.26 74.05 74.50 75.07 72.64 72.80 72.14 71.36 70.44 69.02 71.34 64.17 67.15 65.29 65.24 65.33 63.56 61.07 59.38 57.75 57.25 56.89 56.03 54.96 53.46 52.20
78.48 79.38 79.33 79.21 71.97 66.41 76.12 74.94 73.35 72.53 66.60 64.71 64.60 64.78 65.94 64.85 68.37 70.91 68.01 67.56 65.84 66.03 69.42 65.71 65.13 62.60 63.13 63.16 64.41 60.58 60.04 56.60 55.22 55.00 55.43 54.64 52.78 51.64
77.85 78.90 68.38 76.29 66.57 62.42 75.26 75.23 73.02 72.54 72.41 69.78 67.29 65.35 66.17 65.38 63.15 71.04 69.20 65.58 65.20 63.11 68.76 64.30 63.18 61.38 58.48 62.03 62.23 61.93 61.73 55.72 53.78 53.02 53.26 53.24 52.03 56.97
76.38 76.81 78.18 64.29 61.18 58.43 65.02 74.91 73.61 74.49 70.83 71.75 69.83 69.93 69.84 70.27 69.19 68.61 70.89 68.10 65.94 64.82 64.04 64.95 61.92 60.45 59.09 58.35 60.10 61.12 60.29 59.87 59.50 59.11 51.96 50.58 50.92 53.61
76.30 77.01 77.21 60.66 58.12 56.37 61.14 64.67 60.20 66.85 72.64 70.43 70.15 69.45 69.00 68.73 69.44 69.66 70.53 70.29 68.92 66.99 65.45 66.21 61.20 59.32 58.32 56.99 55.62 58.40 59.07 60.44 60.23 59.64 60.26 56.39 50.86 50.88
77.08 72.53 66.31 56.15 55.90 56.71 60.34 58.77 59.67 71.27 71.01 69.04 68.82 68.85 69.65 70.02 71.15 70.54 70.46 70.05 69.02 66.93 64.73 66.04 62.63 63.30 58.98 56.19 54.23 54.74 54.66 56.63 59.44 59.25 59.15 59.53 60.06 60.21
64.89 70.19 63.43 62.56 63.37 65.59 62.43 62.99 68.98 70.34 70.14 69.68 68.38 69.90 69.45 69.26 66.24 66.40 64.46 63.78 62.30 62.12 66.53 67.04 65.29 63.22 57.12 56.03 55.36 54.46 55.67 53.74 57.79 58.69 59.10 58.85 59.40 59.55
70.31 68.44 66.91 67.16 65.30 64.42 65.32 65.19 67.04 69.12 69.39 67.90 67.43 67.81 67.97 65.88 65.96 66.09 64.37 62.99 61.21 60.98 60.88 62.51 64.61 64.07 60.19 60.92 54.12 55.49 55.98 55.95 56.58 58.37 58.12 56.32 57.07 57.99
69.12 67.47 66.11 66.48 65.10 64.26 65.33 65.30 66.91 66.86 69.34 68.24 66.48 67.25 66.39 63.59 64.96 64.59 62.80 62.74 61.40 60.97 59.98 59.78 60.25 58.17 57.36 59.85 58.97 55.80 56.01 55.52 56.09 57.72 57.94 55.13 53.97 56.60
69.62 67.38 66.37 65.96 65.58 65.58 66.01 65.87 65.80 68.29 67.72 67.90 66.47 65.45 65.47 65.61 63.25 62.75 62.69 62.37 60.91 60.30 59.40 59.37 57.51 55.13 52.21 51.08 56.66 55.74 55.50 54.83 54.84 54.82 55.56 54.01 52.81 54.16
68.82 66.78 65.81 65.62 65.69 65.76 66.15 66.42 67.09 67.87 67.08 66.00 65.38 65.49 65.99 64.90 62.46 62.52 63.14 61.69 59.96 59.04 57.93 57.39 56.21 55.01 53.44 53.04 53.13 55.10 49.88 56.10 55.22 54.26 53.34 54.46 54.48 52.05
68.17 66.64 67.02 66.19 66.28 67.41 67.25 66.26 68.96 67.69 67.24 65.27 65.68 65.91 64.79 63.68 62.51 63.05 62.05 53.57 56.11 58.12 55.98 55.30 56.80 54.48 57.93 56.77 51.46 53.09 57.52 48.78 54.26 55.38 54.77 51.35 50.45 50.08
67.61 67.59 67.11 66.92 66.78 66.96 67.70 67.46 67.45 64.95 65.22 65.40 65.79 65.17 64.61 63.49 62.75 62.02 60.23 58.32 57.00 56.54 55.63 55.97 58.16 56.74 55.13 53.21 52.55 54.83 54.69 56.22 52.12 51.05 51.26 51.53 49.48 45.14
64.88 67.11 65.79 66.04 66.80 66.86 66.96 66.49 66.62 65.92 66.16 66.05 65.06 64.44 64.17 62.46 62.52 60.95 59.16 58.16 56.68 55.07 54.34 53.84 54.95 55.24 54.23 53.94 52.88 53.08 55.19 56.26 54.21 53.07 54.04 51.98 52.60 50.10

GFSNE_sfc_wetblb_036.txt.gz
Wetbulb
75.88 75.97 73.97 72.89 73.11 72.32 71.78 70.33 68.28 64.90 66.21 69.18 67.74 70.35 71.77 70.74 70.51 69.43 69.73 67.72 67.84 67.42 66.78 66.88 67.16 67.54 67.84 68.32 68.56 68.72 68.51 68.71 68.66 68.51 68.34 68.34 68.13 68.40
75.44 74.54 74.10 71.69 71.63 72.83 71.65 71.28 70.11 67.86 64.89 68.87 69.37 70.09 69.93 71.67 71.31 71.43 71.20 69.65 67.97 68.17 67.26 66.62 66.95 67.23 67.27 67.48 67.52 67.35 67.45 67.42 66.94 66.86 67.00 67.03 67.18 67.01
75.08 74.81 73.57 73.62 73.04 72.08 71.62 71.35 70.70 69.80 66.67 67.88 71.22 72.62 71.39 70.03 69.51 71.02 70.70 70.46 68.89 67.23 67.06 67.16 66.82 66.59 66.67 66.60 66.40 66.34 66.12 65.51 65.09 64.70 64.57 64.85 65.07 65.13
75.28 74.26 74.08 73.35 73.37 73.77 73.66 70.82 70.37 71.41 69.30 68.35 69.61 70.85 71.30 71.32 71.71 71.57 70.07 69.42 69.78 68.65 66.75 66.13 65.77 65.51 65.10 65.32 65.43 64.96 63.86 63.31 62.78 62.01 61.94 62.46 62.94 63.47
76.53 75.32 74.55 73.51 72.55 71.19 71.76 71.13 71.06 71.45 71.77 68.38 68.15 70.68 71.39 72.04 70.80 71.12 71.56 70.61 71.25 67.93 65.38 65.13 65.15 64.56 63.82 63.51 62.55 61.74 60.44 60.06 59.77 59.20 59.77 60.40 61.41 62.20
77.23 76.64 75.96 74.55 72.62 72.58 71.55 70.58 71.27 70.51 69.38 69.08 68.30 67.65 69.85 70.48 70.24 68.65 68.37 69.81 68.84 69.76 67.44 66.04 65.19 64.82 64.02 62.24 61.94 61.74 59.33 58.23 57.63 57.39 58.27 58.63 59.24 59.81
76.71 77.44 76.87 75.77 72.31 71.93 71.99 71.96 69.85 69.85 69.11 67.10 66.30 67.33 67.56 68.26 67.48 68.44 66.50 66.81 68.54 69.21 67.41 66.60 66.48 65.59 64.63 63.52 64.55 64.53 61.97 60.23 58.58 57.35 57.21 56.68 56.42 57.23
76.37 76.91 77.20 73.67 72.28 68.68 68.27 68.92 71.12 69.11 67.46 66.23 66.42 66.42 67.22 68.70 70.34 67.87 66.84 65.84 64.35 69.38 66.83 67.04 68.89 67.92 67.67 67.92 66.37 65.81 63.64 61.50 59.44 58.31 57.39 56.85 56.60 56.48
76.68 76.68 76.87 77.04 73.42 73.89 67.65 66.94 66.78 67.23 68.34 69.35 68.60 69.70 70.80 71.12 70.87 69.34 68.75 68.09 66.26 68.46 67.48 64.83 67.87 65.76 67.75 63.27 62.74 62.85 63.29 60.90 58.73 57.76 57.18 56.38 55.70 55.35
77.02 76.81 76.71 76.55 75.94 75.16 73.09 70.34 70.23 69.87 69.14 70.08 71.57 70.91 72.45 72.56 72.06 71.58 70.07 69.57 69.45 68.99 68.77 63.09 66.44 65.18 64.63 62.52 61.79 61.70 60.68 61.02 58.77 56.88 55.60 54.41 53.06 52.25
76.79 77.25 76.88 76.55 72.11 66.27 74.55 71.98 70.41 70.39 66.53 64.25 65.30 67.13 65.92 66.31 70.55 70.09 68.42 66.78 65.23 65.62 67.92 65.27 65.01 63.68 62.08 62.49 60.36 60.12 58.40 58.32 56.67 56.08 55.86 54.78 52.98 51.62
75.69 76.74 68.23 74.62 67.46 61.79 73.59 73.57 71.23 70.55 70.90 69.51 67.12 64.30 64.43 64.92 64.92 69.97 68.72 65.68 64.61 63.93 67.26 64.65 63.75 61.42 57.05 60.70 61.08 57.70 56.97 56.03 54.22 53.36 53.53 53.34 52.34 52.06
74.53 74.95 76.09 64.22 62.19 59.05 64.17 74.31 72.61 72.87 69.53 70.49 68.57 67.99 68.09 67.93 67.33 67.98 69.49 67.79 65.14 64.34 65.03 65.47 61.43 60.12 58.31 56.46 58.81 60.05 58.96 57.34 56.15 54.73 51.38 50.46 50.46 51.98
75.02 75.27 75.13 62.19 58.47 57.51 60.46 66.38 62.53 66.23 72.90 70.53 67.96 66.88 66.67 66.94 68.50 67.87 67.75 68.81 68.76 65.88 61.96 64.23 60.37 58.18 56.84 55.27 54.69 56.82 56.38 57.02 56.45 55.95 56.32 54.57 50.78 50.38
76.68 72.62 59.94 56.30 56.59 58.25 59.19 61.75 61.34 71.54 72.69 70.53 68.13 67.35 67.66 68.18 68.22 68.18 67.45 68.19 67.06 65.39 65.41 64.13 60.87 59.96 57.79 55.40 54.02 53.37 52.31 54.24 56.37 55.89 54.78 55.56 54.65 54.98
68.37 71.39 70.70 63.23 61.48 64.52 64.37 63.13 71.66 73.12 72.44 70.68 69.55 69.06 69.26 68.54 67.57 67.39 65.96 65.04 62.54 62.13 64.33 64.31 63.05 60.27 56.60 56.28 54.64 52.74 54.21 51.24 54.60 55.79 55.50 54.09 54.65 54.29
70.54 74.32 73.90 72.77 72.78 69.01 68.21 69.27 71.50 72.35 71.26 70.76 69.24 67.91 67.26 66.60 65.65 65.79 64.02 62.16 60.15 59.28 59.90 62.41 62.83 61.20 58.98 56.22 53.22 52.93 52.87 54.50 56.15 55.28 53.37 51.99 53.22 54.21
68.02 72.48 72.54 71.38 69.82 69.49 67.98 69.17 70.75 69.64 70.43 69.51 67.84 66.71 65.79 64.95 63.46 63.04 62.99 61.33 59.51 58.95 59.64 60.12 59.56 57.98 56.92 57.20 57.98 52.62 54.77 54.85 54.60 54.17 53.61 51.56 49.69 51.41
71.26 71.10 71.89 71.07 69.10 69.16 68.41 68.81 68.54 69.40 69.46 67.57 66.76 66.28 65.54 64.77 62.49 62.00 61.20 60.06 59.59 59.77 59.91 59.74 58.59 55.99 53.24 50.04 54.54 56.14 54.40 52.98 52.28 52.79 53.72 51.06 49.05 49.58
70.40 70.74 70.37 70.77 68.99 67.93 67.53 68.02 67.59 67.82 67.84 67.19 65.91 65.66 64.82 63.03 61.80 61.02 60.22 59.41 59.01 59.92 58.36 58.13 56.50 54.79 51.84 50.49 52.14 54.08 51.15 52.91 52.89 53.05 51.07 51.38 51.75 52.94
66.51 68.68 70.77 70.64 69.62 68.52 68.00 67.87 67.19 67.10 67.14 66.40 66.15 65.13 63.89 62.67 61.51 60.86 60.47 56.73 57.84 58.45 56.06 56.06 56.24 57.11 56.82 55.06 51.25 49.87 52.33 49.95 54.56 52.76 52.09 49.70 47.50 46.55
62.50 64.08 64.62 66.14 68.47 68.29 67.84 67.05 66.58 65.97 65.76 65.93 65.38 64.22 63.41 62.76 61.30 60.63 60.21 56.62 57.90 57.22 56.49 56.29 54.53 54.83 54.41 52.38 50.11 50.57 52.99 54.66 51.02 51.36 52.91 52.50 47.45 42.39
67.24 66.22 66.42 66.49 66.33 66.26 67.01 67.01 66.47 65.61 65.28 65.42 64.61 63.94 63.55 62.33 61.62 60.87 60.42 58.64 56.22 55.62 55.46 53.90 53.53 55.06 52.86 52.27 51.56 51.68 52.21 52.35 52.72 51.71 52.20 52.55 52.90 51.94

GFSNE_sfc_wetblb_039.txt.gz
Wetbulb
71.56 71.58 69.33 67.66 68.20 66.36 65.12 64.51 62.21 58.81 60.52 63.63 63.21 66.18 66.47 67.81 68.39 66.45 64.72 67.56 66.91 66.14 65.72 65.77 66.20 66.77 67.14 67.37 67.75 67.98 68.21 67.97 68.15 67.79 67.38 66.81 66.36 66.58
72.75 71.54 70.32 68.60 67.46 67.12 66.31 65.08 64.06 61.67 59.00 64.08 64.09 65.74 67.52 68.28 69.04 65.30 64.89 66.99 66.86 66.34 65.65 65.08 65.67 66.53 66.93 67.14 67.18 67.18 66.92 67.01 66.58 66.05 65.64 65.30 65.26 65.22
72.54 71.48 70.43 69.37 66.80 66.93 66.34 65.73 64.49 63.29 60.13 61.68 64.68 66.39 66.00 66.12 67.11 67.35 68.34 67.53 65.56 65.79 65.56 65.50 65.44 65.93 66.50 66.59 66.48 66.27 66.08 65.61 64.84 64.55 63.84 63.50 63.54 63.96
72.82 70.75 70.81 71.26 68.10 68.07 69.10 64.81 64.56 65.40 62.53 60.47 64.62 65.89 65.39 65.32 64.94 65.36 67.44 68.75 66.96 66.96 65.89 65.64 65.20 64.96 64.78 64.87 65.14 64.98 64.49 63.75 63.31 62.66 61.93 62.11 62.61 62.88
73.97 72.09 70.97 70.66 69.01 68.43 67.83 67.30 66.49 65.39 66.62 63.71 63.74 66.42 66.80 67.05 66.86 67.22 66.45 65.70 67.08 68.47 65.24 65.00 64.76 64.27 63.57 62.60 62.29 61.44 60.68 60.14 59.80 59.75 59.36 59.87 61.06 61.86
74.53 74.03 72.81 71.61 70.57 69.32 67.81 66.82 66.56 65.47 64.02 63.99 62.78 62.49 64.16 67.36 65.98 65.14 65.00 67.01 66.14 68.43 66.84 65.59 64.65 64.68 63.94 62.21 61.42 61.11 58.78 57.80 57.58 57.19 57.06 57.67 58.54 59.56
73.61 75.13 74.59 73.46 71.11 69.80 69.88 67.90 66.51 65.86 64.63 62.93 62.80 63.43 63.23 64.80 66.08 65.84 64.79 65.23 66.05 66.14 64.90 62.42 62.27 63.73 63.94 63.31 63.87 64.23 61.39 60.04 57.92 56.72 56.01 55.82 55.91 56.62
74.48 73.63 75.29 72.79 71.44 67.77 67.55 68.07 68.94 66.24 65.30 65.61 64.10 62.88 64.40 64.80 65.31 66.12 65.40 62.26 61.77 66.62 64.94 62.89 63.87 62.82 63.99 62.70 64.25 63.82 61.51 61.63 59.20 57.78 56.90 56.13 55.91 55.86
75.11 74.80 73.74 75.37 72.12 73.63 67.34 66.79 67.00 66.59 66.36 66.23 65.53 64.90 64.20 65.80 66.21 65.40 64.54 62.85 62.24 65.11 63.65 61.82 63.37 63.78 64.80 64.80 63.67 62.34 60.60 61.62 58.95 58.06 57.06 55.84 54.95 54.33
75.71 75.51 74.87 74.66 74.47 73.95 73.48 70.41 69.86 69.46 68.36 67.64 66.65 66.50 67.31 68.43 68.59 67.92 66.19 65.41 65.67 65.76 65.54 61.41 63.58 62.62 62.68 60.05 61.56 61.58 60.31 59.17 58.45 57.01 55.55 54.23 52.60 51.73
75.33 75.52 75.75 75.09 71.06 65.38 73.78 72.06 70.63 70.25 66.47 63.74 65.04 65.69 64.76 65.73 68.77 68.47 65.59 64.46 63.04 64.44 66.25 63.28 62.72 62.17 59.86 58.47 59.22 60.60 58.55 57.32 56.54 56.62 55.19 53.69 51.31 50.42
74.66 74.82 67.78 72.68 66.13 62.48 72.56 73.26 70.96 70.56 70.30 69.21 66.47 63.83 65.16 66.35 65.85 68.87 66.67 63.90 62.81 62.45 65.15 64.10 62.19 60.48 55.21 56.55 57.26 57.60 55.66 55.25 54.58 53.85 53.43 53.05 51.54 49.61
74.17 74.02 74.49 63.81 60.44 59.47 61.57 74.31 72.58 72.06 69.49 69.97 69.46 68.68 67.48 66.33 66.74 68.15 67.73 67.05 64.36 62.44 64.95 65.33 61.66 57.61 53.93 53.10 55.91 54.99 54.36 53.47 53.24 51.94 50.97 49.92 49.75 50.51
74.78 75.24 74.08 61.55 58.64 58.59 59.50 65.16 62.25 64.35 72.31 69.97 69.56 68.01 66.60 65.82 66.49 67.14 68.13 67.66 66.78 65.29 63.56 63.07 58.71 56.54 53.45 52.41 52.02 52.49 52.22 52.36 52.13 50.92 51.13 51.78 50.50 49.44
76.16 73.07 65.95 59.71 56.31 58.18 58.86 60.83 60.36 70.37 72.81 71.22 69.55 69.02 67.36 67.36 67.25 66.69 67.43 66.94 66.31 64.62 63.70 61.93 58.62 57.08 54.32 52.30 51.14 50.24 48.97 48.88 50.75 51.30 50.02 50.96 49.46 50.19
67.80 71.35 69.13 66.57 65.20 65.67 64.40 61.38 67.16 72.19 72.76 72.61 72.00 71.06 68.51 66.93 66.37 66.87 65.56 65.69 62.98 61.12 63.12 62.52 60.60 57.09 53.98 53.11 51.77 49.72 49.05 47.52 48.28 48.87 50.51 49.22 50.17 48.72
67.43 71.69 73.14 72.99 72.06 71.76 68.88 69.10 67.15 69.19 71.48 72.79 72.44 70.99 67.34 66.71 66.23 66.77 66.05 65.01 63.11 60.54 60.10 61.07 59.87 57.15 55.07 53.00 50.18 49.76 48.07 47.23 48.95 51.22 48.01 46.68 48.11 49.74
62.83 69.10 70.71 72.15 72.55 72.65 72.69 71.38 68.60 67.82 70.58 72.07 71.51 69.37 67.34 66.43 65.91 65.96 65.03 63.88 62.25 60.72 59.62 59.98 58.43 55.78 54.56 53.90 54.77 48.14 47.92 48.64 50.30 50.12 47.82 46.73 45.72 47.24
65.64 69.17 69.17 70.29 71.89 72.82 72.82 72.31 69.75 69.39 70.74 71.39 70.73 68.24 67.61 66.50 64.28 64.47 63.54 62.95 61.51 59.25 58.67 59.17 58.21 54.36 50.91 48.49 51.03 54.80 50.23 49.65 47.62 46.66 48.12 46.42 45.05 45.79
62.94 65.10 67.03 68.69 70.27 71.33 71.76 71.17 70.67 70.20 70.09 70.88 70.23 68.22 67.16 65.51 63.95 63.17 63.11 61.61 60.30 59.17 58.07 58.52 57.21 55.67 53.29 51.12 48.55 49.69 50.42 48.57 46.13 45.80 47.52 46.42 46.98 50.71
60.43 60.21 62.03 63.07 63.82 64.85 66.60 68.89 69.96 69.78 69.68 70.18 69.53 67.86 66.46 64.66 62.88 62.63 61.78 57.71 57.96 58.56 56.89 56.30 57.98 57.00 53.21 49.92 46.27 45.12 47.72 49.67 49.21 47.87 47.34 45.08 43.23 42.31
59.38 62.04 64.00 64.93 64.63 64.18 64.57 65.68 66.89 67.59 68.38 68.63 68.67 68.15 64.51 63.58 62.31 61.28 59.90 58.76 58.59 57.98 57.73 54.65 53.57 53.84 49.42 47.33 45.81 45.27 45.65 49.97 49.43 51.79 51.70 49.81 43.32 38.65
61.59 62.90 62.34 62.25 63.38 64.49 64.69 65.04 65.67 65.97 66.63 67.07 66.95 63.79 63.18 62.16 61.56 61.20 60.36 59.86 58.98 56.46 52.53 49.74 49.82 49.44 48.29 47.84 47.63 45.54 45.70 47.99 46.96 45.59 46.82 51.16 51.75 50.70

GFSNE_sfc_wetblb_042.txt.gz
Wetbulb
69.61 70.33 67.35 66.09 66.50 65.87 62.83 63.11 60.40 57.95 58.50 61.95 61.88 64.72 65.83 66.57 66.01 66.70 63.80 67.15 66.84 66.05 65.22 65.26 65.80 66.75 67.33 67.59 67.34 67.38 67.87 68.03 67.66 67.34 66.79 65.87 65.36 65.52
71.22 69.28 69.29 68.48 66.42 65.85 65.35 62.52 62.11 59.87 57.59 61.29 63.49 63.51 65.35 66.93 67.98 66.28 63.80 66.70 66.68 65.91 65.05 64.53 64.92 65.65 66.08 66.44 66.78 66.88 67.07 66.81 66.82 66.07 65.50 64.99 64.36 63.92
72.27 70.81 69.52 68.82 67.84 65.39 64.79 64.10 62.16 60.93 58.79 59.27 62.48 63.01 64.20 64.65 65.54 64.73 64.21 63.54 63.68 65.59 65.10 64.51 63.99 64.41 65.22 65.62 65.76 65.97 66.07 65.72 65.69 65.04 64.50 63.48 63.13 63.53
72.61 71.34 71.07 70.97 68.14 66.24 65.06 65.07 63.12 62.37 60.20 58.39 60.36 64.86 63.91 64.45 64.41 65.34 65.21 66.49 65.23 65.91 64.87 64.06 63.73 63.39 63.63 64.00 64.15 64.01 63.72 63.79 63.65 63.16 62.99 62.23 62.32 62.85
73.33 72.35 71.83 70.67 69.91 68.22 65.48 65.76 65.35 63.47 62.95 60.46 60.19 63.56 64.18 64.38 63.43 63.82 64.36 64.86 66.58 67.44 64.79 63.89 63.85 63.63 63.10 62.43 61.79 60.78 60.27 59.91 60.03 60.13 60.17 60.00 60.82 61.68
73.57 73.36 72.74 71.14 70.74 68.97 66.57 65.94 65.39 65.11 63.16 63.36 61.41 63.20 63.93 65.33 64.11 63.39 63.56 65.03 64.35 67.32 67.60 65.81 65.14 65.13 64.13 61.67 61.35 60.77 58.40 57.19 57.04 57.04 56.91 57.11 58.39 59.45
73.02 74.02 73.72 72.69 70.60 69.79 69.73 67.86 65.23 64.77 63.56 62.24 61.69 61.08 61.04 63.78 64.07 63.56 64.18 65.20 65.86 65.14 64.54 63.63 62.89 63.12 64.05 63.30 63.88 63.78 60.28 58.23 56.86 56.23 55.51 55.03 55.41 56.22
72.96 73.13 73.46 71.91 70.59 67.46 66.89 67.55 67.86 66.28 65.02 64.66 64.59 63.26 63.66 62.35 64.42 65.13 64.65 61.67 61.68 65.30 64.73 65.14 62.48 62.35 63.16 63.42 63.59 62.40 60.87 59.48 58.30 56.88 55.65 54.95 55.37 55.06
73.72 73.63 73.51 74.17 71.41 73.02 67.22 65.72 65.98 65.42 66.91 66.41 64.73 64.98 64.21 64.52 64.30 63.73 64.38 62.87 63.58 64.15 64.75 64.31 63.63 63.40 64.26 64.18 62.12 61.46 60.34 59.21 58.36 57.06 56.37 55.78 54.60 53.75
74.25 74.15 73.93 73.86 73.32 73.17 73.62 71.10 69.40 69.54 67.89 67.84 67.99 66.93 66.88 66.64 65.59 66.23 65.85 65.55 63.90 63.92 64.22 62.60 62.54 62.38 63.34 63.71 62.10 61.74 59.91 58.68 57.80 56.63 55.80 54.49 52.39 51.05
74.67 74.51 74.67 74.39 69.95 64.59 72.81 72.61 72.02 71.23 68.08 63.77 64.85 64.05 61.67 61.72 64.49 64.83 64.04 63.35 62.86 63.40 64.58 63.31 62.62 63.04 61.83 60.78 60.54 61.23 59.11 57.47 56.44 56.10 55.58 53.75 51.17 49.42
74.68 75.02 67.46 71.97 65.35 62.15 70.46 72.59 71.90 72.56 71.96 71.55 68.03 64.97 62.42 62.99 62.79 67.57 66.50 64.15 63.98 62.80 65.21 63.64 62.47 61.95 58.50 58.06 58.87 59.41 58.80 55.63 54.47 53.94 53.92 53.06 50.43 48.67
73.93 74.20 74.94 63.62 60.35 58.86 61.14 73.78 72.59 73.17 71.95 71.80 71.36 69.93 68.98 67.89 66.41 68.51 68.65 67.25 65.27 64.13 65.26 65.86 62.87 60.50 56.61 54.55 56.80 56.05 56.16 53.19 53.57 52.91 51.19 50.31 48.96 49.63
74.73 75.18 74.52 62.34 57.94 57.61 59.74 64.25 62.20 63.46 73.28 73.53 71.59 70.71 69.87 68.10 67.98 68.70 69.48 68.76 68.88 66.97 66.12 67.09 62.47 60.24 56.65 52.56 53.33 53.64 53.74 52.68 52.17 51.39 50.86 49.63 49.13 49.11
75.89 72.52 64.88 60.11 57.39 58.12 58.09 60.25 59.48 69.36 72.08 72.55 72.48 71.77 71.06 71.11 69.57 68.61 69.22 68.99 68.05 67.11 66.68 64.75 62.69 59.52 60.98 58.02 52.15 50.12 50.28 49.93 49.91 49.10 49.23 49.46 49.24 48.92
65.79 70.43 68.25 64.60 61.16 65.66 65.25 63.11 64.20 68.82 70.63 71.73 72.48 73.63 73.45 71.40 68.59 67.96 67.38 67.24 66.29 64.82 64.97 64.81 62.69 59.21 55.09 54.00 53.20 50.90 49.22 47.52 47.65 48.13 48.93 47.45 48.26 47.84
66.63 69.70 70.27 71.32 72.34 72.44 72.80 71.43 70.80 67.51 67.40 69.90 71.57 72.33 72.82 71.75 68.53 68.14 67.02 66.27 65.41 63.82 60.87 61.76 61.33 60.00 58.74 55.49 53.11 51.82 48.76 46.94 46.03 48.11 46.72 46.13 46.16 47.92
63.47 66.31 67.62 68.75 69.77 70.96 71.94 72.51 73.12 70.08 69.81 69.59 70.49 71.21 71.36 71.81 68.21 67.06 66.31 65.73 64.44 63.78 62.56 60.09 57.70 56.19 55.04 54.28 56.08 50.46 47.30 47.02 46.71 48.97 45.02 44.60 45.16 45.60
64.02 64.64 66.44 67.71 68.89 70.04 70.90 71.68 71.95 73.11 72.98 70.58 70.80 70.87 71.05 70.88 67.82 66.51 65.54 64.62 63.60 62.22 61.45 60.14 57.85 56.19 51.84 49.65 51.24 52.29 48.31 47.57 47.79 46.64 46.33 45.20 44.63 45.09
60.33 59.60 59.76 60.53 60.93 62.36 63.02 63.36 64.58 66.01 67.02 68.36 69.69 69.89 70.34 69.96 69.15 66.79 65.10 63.93 63.14 61.92 60.75 59.92 58.11 56.33 54.14 52.18 49.58 51.16 49.48 47.70 46.70 45.70 46.26 44.70 45.49 50.41
58.40 58.08 58.50 59.57 62.97 64.02 64.14 64.24 63.98 64.40 64.15 64.72 65.49 66.48 67.98 68.18 67.74 67.87 66.43 58.40 59.48 60.50 58.36 58.16 59.09 57.45 53.16 51.48 47.74 46.12 49.64 48.87 49.43 47.34 45.76 44.92 42.54 41.05
57.37 58.58 60.59 62.76 62.56 64.30 64.29 64.53 64.87 64.42 64.42 64.85 65.59 66.11 65.84 64.08 62.17 61.67 61.67 60.91 60.87 60.44 59.38 59.26 58.00 54.29 49.99 49.07 46.16 45.17 45.80 47.98 49.36 50.90 51.13 49.73 44.21 40.62
59.58 60.03 60.65 61.24 61.76 62.10 61.62 62.95 63.30 64.48 64.14 63.15 62.92 63.19 63.51 62.32 62.03 61.26 61.28 60.96 60.35 57.77 55.43 53.76 55.06 53.72 48.76 49.01 47.54 45.24 44.63 46.63 46.34 45.70 47.06 51.33 50.91 50.42

GFSNE_sfc_wetblb_045.txt.gz
Wetbulb
69.08 68.74 65.78 65.00 65.79 64.16 61.30 61.41 59.68 56.84 57.38 60.94 61.43 63.44 65.03 66.14 66.94 66.01 66.22 66.12 67.45 66.53 65.75 65.56 66.17 66.86 67.90 68.24 68.09 67.69 67.83 68.13 68.07 67.61 66.90 65.46 64.11 63.84
69.78 68.27 68.41 67.48 65.41 65.23 64.61 61.91 60.72 59.14 57.33 59.97 61.65 62.13 63.95 65.65 67.19 66.30 66.02 66.82 66.83 66.37 65.36 64.81 65.05 65.86 66.32 66.71 66.64 66.81 66.75 67.19 66.96 66.88 65.75 64.87 64.38 62.84
71.17 70.00 68.65 67.71 67.39 65.49 64.14 63.54 61.52 59.67 57.79 58.94 61.07 61.93 62.76 63.14 64.93 66.92 65.59 63.92 63.63 65.70 65.45 64.64 64.07 64.60 65.21 65.45 65.37 65.55 66.15 66.22 66.00 66.12 65.42 64.06 62.89 63.43
71.81 71.20 70.91 70.57 67.42 66.14 64.38 63.44 62.87 61.36 59.75 58.19 58.67 62.11 62.22 63.25 63.86 65.14 65.76 65.31 63.30 64.58 64.87 64.32 63.75 63.42 63.29 63.27 63.09 63.71 63.85 63.92 64.17 64.22 64.14 63.37 62.33 62.45
72.54 71.99 71.95 70.54 69.69 68.23 65.98 64.53 63.71 63.25 61.10 59.38 59.03 60.81 63.44 62.93 62.44 63.54 63.49 63.26 64.42 66.02 63.93 63.66 63.51 63.22 62.44 61.69 61.37 60.80 60.46 60.36 60.70 61.02 61.21 61.48 61.43 62.03
73.25 73.07 72.66 71.72 71.53 70.87 68.45 66.88 64.98 63.91 62.33 61.65 60.98 60.65 62.41 63.53 62.84 61.66 61.83 62.69 63.85 65.76 66.93 65.63 65.12 64.76 63.71 61.77 61.50 61.26 58.89 57.95 57.37 57.78 58.13 58.04 59.18 60.03
72.58 72.90 73.10 72.98 70.90 70.60 71.05 69.41 66.23 65.30 64.06 63.40 62.74 60.55 61.07 62.33 62.23 62.09 62.91 63.82 63.38 64.09 64.36 64.37 64.63 64.21 64.26 63.91 64.88 64.39 60.63 59.03 57.27 56.57 56.16 55.44 55.79 56.79
72.09 72.27 72.96 71.61 70.80 67.72 67.50 68.37 69.16 67.64 66.30 65.00 65.20 63.46 63.51 63.31 63.64 64.38 62.99 59.87 60.12 64.17 64.40 64.08 64.02 63.99 64.40 63.75 64.34 62.88 60.97 59.56 58.30 57.14 55.92 54.85 54.70 55.15
72.46 72.48 72.55 73.22 71.11 72.91 68.09 66.32 66.29 65.49 67.76 69.94 66.14 66.76 65.42 65.20 64.51 62.89 64.15 63.53 63.32 63.20 65.03 63.79 63.71 64.22 65.70 64.45 62.21 61.50 60.47 59.29 58.26 57.38 56.60 55.47 54.56 53.78
73.30 73.09 72.82 72.81 72.80 72.18 72.37 71.89 69.65 69.84 68.69 67.88 69.98 70.80 69.48 68.19 65.70 65.60 65.08 64.86 65.05 62.55 64.81 62.81 63.02 64.34 66.10 64.32 62.07 61.89 59.96 59.09 58.65 57.13 56.19 54.64 52.58 51.50
73.68 73.74 73.79 73.44 69.29 64.61 71.64 71.79 71.98 72.42 67.90 64.17 64.56 65.12 64.14 62.41 65.34 64.99 62.33 62.03 62.21 63.44 63.99 64.56 63.15 62.79 61.43 62.71 64.11 62.55 60.00 57.78 57.68 56.42 56.00 54.50 51.33 50.05
73.50 73.96 67.09 71.13 64.96 62.33 70.17 71.77 71.03 72.04 72.90 72.76 70.46 65.96 64.17 66.13 61.21 65.80 67.67 63.28 63.21 61.62 64.62 63.73 63.02 61.76 59.91 60.36 62.41 62.05 61.44 56.67 55.23 55.02 55.02 54.01 50.35 49.24
72.90 73.24 74.03 63.97 60.43 59.66 60.98 73.64 72.50 72.98 72.28 72.53 73.30 73.17 72.53 70.88 70.01 66.37 66.95 67.48 65.61 64.73 65.78 65.49 63.99 62.01 61.10 56.57 59.83 60.47 60.40 59.14 57.42 54.41 52.24 51.36 49.37 49.91
73.45 74.23 73.88 62.70 58.51 57.61 59.74 63.63 61.79 63.24 72.69 73.33 73.26 73.22 73.12 72.19 71.19 70.32 68.10 67.56 68.55 67.80 68.75 66.98 64.28 63.25 60.55 57.31 57.65 56.95 59.22 57.92 56.95 54.59 54.31 50.72 49.05 49.42
74.97 71.85 64.36 59.14 56.47 57.81 57.09 58.21 58.58 67.48 69.63 70.80 71.69 72.45 73.37 74.43 73.77 72.06 69.82 68.76 68.49 68.56 68.48 66.70 66.54 64.82 63.83 60.60 55.82 54.56 56.51 54.44 53.35 53.04 51.48 50.69 49.76 47.89
66.33 69.92 66.91 63.74 61.56 65.35 65.51 64.13 64.01 66.63 68.60 69.64 70.99 72.19 73.14 73.35 73.60 72.99 70.12 68.61 67.64 68.09 68.89 67.91 67.22 65.17 63.37 63.19 60.80 53.98 53.73 52.67 52.81 51.36 50.17 48.72 48.13 48.77
67.66 69.40 70.13 70.44 70.80 71.25 71.66 71.43 71.46 68.68 66.84 67.93 68.68 69.92 70.68 71.49 71.97 73.09 71.46 69.72 67.86 67.21 67.07 66.21 66.63 65.83 65.62 61.82 57.33 53.95 51.18 48.64 53.15 50.50 47.99 46.86 46.96 47.54
65.87 67.95 67.68 67.66 67.89 67.86 67.55 68.93 69.58 69.49 70.93 70.57 70.12 70.37 69.83 70.03 70.14 70.65 70.98 69.94 67.43 67.30 66.67 64.02 63.25 57.63 56.49 56.41 59.59 54.80 52.85 49.37 49.37 49.86 46.93 46.11 45.69 46.36
66.58 65.79 65.60 63.66 62.71 61.25 61.19 61.57 62.26 63.12 63.99 64.20 64.38 64.87 65.48 66.50 66.72 67.87 69.33 67.64 67.15 67.08 67.06 63.51 60.36 60.91 56.15 53.13 53.53 54.90 52.50 48.95 49.01 47.49 45.94 45.95 45.66 45.73
61.19 59.25 58.53 58.29 58.44 61.56 62.11 62.37 62.65 62.99 63.38 63.66 64.11 64.36 64.48 64.36 64.28 65.01 65.73 66.05 66.19 66.63 64.34 59.81 59.85 59.68 57.91 52.51 50.88 52.71 50.46 50.30 49.61 48.05 45.57 44.19 46.88 49.84
58.02 56.97 57.43 60.04 62.06 62.68 62.90 63.02 63.36 62.89 63.35 63.35 63.61 63.34 64.06 65.24 64.86 64.35 62.34 53.22 58.44 59.93 57.59 57.85 58.30 56.93 55.18 54.06 51.36 50.60 49.88 48.72 50.66 49.46 45.87 44.16 43.20 41.97
56.89 57.49 58.42 59.20 59.60 60.19 61.80 62.52 62.71 62.49 63.96 63.93 63.62 62.92 63.54 62.78 61.83 61.04 60.03 59.33 59.91 60.11 59.34 58.03 56.05 55.87 55.43 54.30 49.24 50.00 48.48 48.17 49.22 50.98 51.67 49.28 44.58 41.09
58.09 58.70 58.70 60.73 62.23 62.44 62.54 62.34 62.57 63.05 63.64 63.66 63.02 62.46 62.57 59.96 60.00 60.56 60.47 60.79 59.44 57.45 57.03 55.86 55.50 54.04 50.57 52.15 47.52 45.90 47.48 47.92 46.65 46.47 47.13 50.55 51.13 51.37

GFSNE_sfc_wetblb_048.txt.gz
Wetbulb
71.97 71.53 68.98 68.48 67.91 67.10 65.76 66.12 65.18 62.85 63.30 66.60 66.10 68.14 68.55 69.60 70.76 70.98 70.46 68.38 67.36 66.95 65.80 65.76 66.38 67.16 68.12 68.50 68.41 68.43 68.27 68.03 68.13 67.89 67.58 65.76 64.34 63.51
72.11 71.34 71.21 70.51 68.59 68.31 67.74 65.82 64.86 64.99 63.30 64.72 66.60 67.50 67.77 67.96 69.22 70.58 69.70 68.38 67.05 66.29 65.72 64.93 65.39 66.11 66.71 66.89 67.11 66.90 66.96 67.00 67.20 67.16 66.70 65.56 64.46 63.21
73.06 72.27 71.39 71.18 70.76 69.36 67.72 67.41 65.79 64.28 63.59 65.71 64.51 67.39 67.98 68.04 68.66 69.73 69.61 69.05 69.04 65.68 65.48 65.07 64.52 64.91 65.35 65.66 65.75 65.81 66.01 66.01 66.39 66.58 66.51 65.58 64.15 63.37
72.74 72.79 72.79 71.92 71.09 70.81 68.99 68.04 66.99 65.95 65.10 64.77 66.03 66.00 67.14 68.56 68.58 68.35 68.44 68.20 68.57 66.55 64.60 64.48 64.00 63.58 63.38 63.47 63.36 63.58 63.45 63.95 64.53 64.75 65.24 64.95 64.00 63.00
73.69 73.30 73.29 73.16 72.72 71.84 70.76 69.31 67.67 67.11 65.87 64.30 65.57 65.37 66.70 67.47 67.44 67.22 67.98 68.73 68.44 66.98 63.76 63.38 63.49 63.43 62.55 61.77 61.17 60.37 59.67 60.21 61.11 61.69 62.42 62.85 62.79 62.59
74.22 74.01 73.92 73.71 73.34 73.33 72.07 71.69 71.14 68.64 67.04 65.67 65.54 65.36 65.72 67.98 66.77 66.50 66.38 66.56 67.11 67.99 67.48 66.02 65.04 64.52 63.60 61.76 61.30 60.74 58.32 57.91 58.09 58.45 58.71 59.36 60.05 60.73
73.58 74.14 74.35 73.77 71.32 71.85 73.46 72.90 71.99 70.26 69.97 68.13 67.49 67.63 65.47 65.91 65.73 67.88 65.67 67.44 67.91 68.11 67.58 67.87 67.97 67.81 68.07 64.18 65.73 63.82 60.69 59.01 57.89 57.00 56.88 56.53 56.64 57.40
72.82 73.39 74.03 71.79 71.32 68.07 67.49 68.49 71.72 71.05 70.24 69.12 68.80 68.48 68.65 68.31 68.09 66.57 66.36 65.69 64.79 66.70 66.84 66.84 68.07 67.65 68.07 68.55 66.01 64.15 61.58 59.83 58.74 57.37 56.52 55.63 55.29 55.48
73.71 73.67 73.50 73.76 71.57 74.10 68.81 66.66 67.00 65.99 68.19 72.54 70.46 69.97 69.74 70.88 70.04 67.62 66.58 66.94 66.52 69.03 67.39 65.88 68.45 66.44 68.52 67.42 63.40 62.47 61.13 59.50 58.44 58.07 56.94 55.81 54.80 54.31
73.95 74.05 73.92 73.95 73.98 73.54 73.81 73.59 73.00 72.45 70.68 69.86 71.61 72.89 73.72 74.18 72.84 70.81 69.31 68.34 68.44 68.74 68.59 64.63 68.47 66.70 68.08 68.71 62.68 62.13 60.34 59.04 58.29 57.70 56.61 55.02 53.23 52.40
74.38 74.65 74.33 74.10 69.19 64.16 73.21 73.10 73.36 73.70 68.98 64.74 65.06 65.19 64.00 63.27 66.29 71.18 67.09 63.70 64.21 66.36 67.72 65.95 67.64 66.63 68.08 67.51 67.40 61.49 59.78 57.95 57.28 57.17 56.77 55.49 52.47 51.16
73.98 74.37 66.86 71.55 64.89 61.70 71.87 73.22 72.49 73.58 74.35 74.77 74.13 68.17 65.32 67.97 63.07 66.76 69.06 67.60 66.01 65.04 68.45 64.41 65.20 64.57 62.47 66.15 66.37 64.57 62.41 57.14 56.29 56.55 56.49 55.29 51.79 55.67
73.03 73.35 74.40 63.74 60.36 59.22 60.50 73.72 72.66 73.13 72.56 72.81 73.68 73.95 74.42 73.83 72.27 71.05 68.99 68.72 68.37 67.68 70.91 67.87 67.67 66.88 65.05 62.08 62.19 64.05 63.32 61.54 61.88 58.68 53.71 52.60 50.20 54.03
73.23 74.34 74.27 62.09 58.48 57.86 59.38 62.04 60.59 62.41 71.85 72.58 72.83 72.99 73.27 73.98 75.01 74.68 73.50 71.87 71.55 71.61 73.21 68.59 67.06 66.16 64.38 63.44 60.85 62.44 64.05 64.60 63.39 61.53 59.89 54.03 49.76 50.10
74.30 71.43 64.66 59.37 57.01 57.90 57.27 58.05 57.68 65.90 67.89 69.16 70.13 71.56 72.95 73.78 74.35 74.38 75.01 73.93 72.18 70.74 70.10 70.47 68.00 67.51 65.82 63.72 62.13 60.91 60.85 59.81 61.87 60.79 59.02 54.92 54.20 53.44
65.21 69.91 67.03 64.62 62.99 66.05 66.60 64.49 64.96 66.72 68.23 69.27 70.57 72.25 73.35 72.39 72.25 73.11 72.85 72.98 71.85 71.47 71.08 69.83 69.35 68.01 66.69 65.14 64.06 61.05 61.89 58.84 59.95 59.75 57.67 57.08 54.66 54.40
68.55 70.83 70.65 71.17 71.49 71.71 72.03 72.16 72.60 71.28 68.79 69.36 69.29 69.34 69.83 69.70 69.72 71.29 70.58 70.09 68.68 69.37 68.40 70.49 70.14 69.06 68.12 67.78 63.91 62.16 60.85 56.53 59.04 55.36 54.97 53.26 52.33 53.06
67.64 70.29 69.93 69.77 69.11 68.86 68.32 67.67 67.72 65.63 66.53 65.36 64.60 64.95 64.66 65.07 65.28 65.71 66.19 66.82 65.33 65.38 67.47 68.68 67.21 64.70 65.56 58.48 57.91 60.49 56.81 54.21 55.58 54.89 56.07 52.67 50.23 50.87
69.70 67.98 67.21 66.29 64.35 63.84 64.85 65.01 64.83 65.55 66.33 64.94 64.19 64.32 64.34 64.83 64.09 64.58 65.06 65.09 65.05 65.88 66.66 67.67 67.49 66.33 60.19 50.54 53.49 56.49 52.97 51.98 53.07 53.01 52.27 51.27 51.64 50.41
63.31 63.40 62.52 62.87 63.53 64.10 64.72 64.70 64.81 64.67 64.75 65.17 65.20 65.59 64.00 63.44 63.90 64.78 64.73 63.21 61.39 62.76 61.37 60.11 60.71 58.21 55.57 55.11 53.05 52.44 51.19 52.70 53.46 50.50 47.89 48.91 49.22 51.10
61.19 61.80 63.19 63.84 64.10 64.33 64.51 64.36 64.48 63.73 63.36 64.22 64.57 64.03 63.91 63.12 63.98 63.75 63.02 56.27 57.21 59.06 57.83 56.55 55.24 55.49 55.95 56.95 53.05 50.88 51.40 49.87 52.23 50.95 48.12 48.74 48.73 48.75
62.37 62.78 63.18 63.67 63.25 62.63 63.00 63.74 64.34 63.54 63.98 63.98 64.18 65.23 65.04 64.89 63.36 63.02 63.49 62.58 60.44 58.86 56.39 56.61 58.31 59.91 58.36 57.20 53.32 49.81 48.40 49.81 50.87 51.33 51.76 51.81 51.09 47.67
61.53 62.13 62.46 62.66 62.66 64.02 63.95 64.29 64.29 63.89 64.50 64.15 64.39 64.57 64.55 62.85 64.10 63.25 62.27 62.75 61.37 58.58 57.21 55.93 56.15 56.14 56.23 53.99 52.37 49.69 48.34 48.15 49.12 50.14 51.75 50.61 51.60 51.37

GFSNE_sfc_wetblb_051.txt.gz
Wetbulb
76.29 76.26 74.42 73.81 73.09 71.91 71.18 70.57 68.89 66.04 66.84 70.62 70.84 74.10 73.57 73.55 74.09 74.50 74.75 70.94 68.24 67.50 66.54 65.97 66.70 67.56 68.44 68.85 69.22 69.29 69.30 68.99 68.53 68.43 68.16 67.35 65.84 63.92
76.03 76.32 76.20 75.25 74.23 73.46 72.56 71.81 70.82 69.06 66.85 70.99 70.84 72.64 73.66 72.67 73.43 73.45 73.89 71.03 68.81 66.99 66.15 65.42 65.55 66.15 66.96 67.47 67.63 67.67 67.70 67.84 67.51 67.70 67.65 67.28 66.33 64.18
76.78 76.31 76.53 76.88 75.01 74.28 73.44 72.77 71.50 70.69 68.41 70.19 71.55 72.91 73.11 73.65 73.78 73.74 73.41 73.65 72.86 66.94 66.20 65.53 64.96 65.02 65.58 66.07 66.13 66.24 66.39 66.51 66.47 66.94 67.25 67.10 66.20 64.68
76.55 76.38 76.09 75.93 76.17 76.21 74.74 74.42 73.42 73.33 70.49 71.47 72.42 71.66 73.29 74.89 74.40 74.16 73.18 72.43 72.94 69.62 65.84 64.99 64.50 64.26 63.97 63.99 64.01 63.99 63.95 64.21 64.57 65.05 66.18 66.40 65.96 64.94
77.08 76.95 76.62 76.53 76.20 75.86 75.97 75.06 74.82 74.13 72.81 70.46 70.44 71.97 72.21 72.39 72.96 74.20 73.20 73.97 72.85 69.77 65.77 64.30 63.95 63.84 63.16 62.20 61.69 61.08 60.25 60.43 61.20 61.94 63.21 63.89 64.45 64.34
77.10 77.47 77.41 76.96 76.81 76.89 76.40 76.43 76.12 75.18 75.13 73.25 72.40 72.43 72.79 74.37 72.33 70.64 70.63 72.47 71.85 72.41 70.41 68.08 67.24 65.33 63.84 62.02 61.58 61.08 58.89 57.93 57.97 58.82 59.76 60.60 61.64 62.31
76.85 77.13 77.47 76.33 72.52 73.83 76.38 77.62 77.08 75.16 73.95 72.87 72.10 72.23 72.12 72.34 72.30 72.64 71.62 72.48 73.59 73.51 72.11 72.57 72.30 71.34 70.32 64.14 66.05 63.79 60.84 58.95 57.59 57.54 57.62 57.76 58.24 58.93
76.14 76.88 77.44 73.84 73.18 68.40 67.73 68.51 73.75 76.73 75.09 73.89 73.35 73.10 75.75 74.71 74.59 73.73 73.17 71.86 71.25 75.93 73.19 70.99 72.61 71.53 72.04 72.30 67.90 64.36 61.60 59.94 58.66 57.69 57.28 56.85 56.69 56.86
76.95 76.71 76.18 75.97 73.98 76.63 70.82 66.77 67.17 66.03 68.47 76.07 75.71 75.95 76.12 77.09 77.27 75.27 75.45 74.20 73.18 74.27 74.00 71.55 73.37 72.07 72.45 72.88 64.92 63.45 62.18 60.45 59.08 58.19 57.51 56.86 55.89 55.28
77.52 77.41 77.51 77.58 77.32 76.32 76.77 76.57 76.88 77.35 75.58 73.59 74.74 76.28 77.56 78.51 78.21 77.43 77.03 74.93 73.54 74.08 74.49 69.80 73.12 73.19 74.42 74.10 65.90 63.16 61.92 60.74 59.15 57.92 57.11 55.64 53.93 53.26
77.24 77.47 77.69 77.57 71.33 65.29 75.74 75.94 76.92 77.41 71.67 66.03 67.10 66.79 64.99 63.53 67.57 73.75 71.44 70.73 68.80 70.35 73.92 72.03 72.31 71.94 73.01 73.90 73.42 62.92 61.62 60.54 59.11 58.44 57.13 55.36 52.93 52.11
76.76 77.61 67.53 72.89 65.21 62.16 74.94 75.44 75.64 75.84 76.43 77.38 77.88 71.10 66.64 71.49 64.14 68.08 70.90 68.88 70.40 70.15 75.38 72.49 72.21 72.04 68.46 71.83 72.59 72.37 69.70 59.47 57.98 56.95 56.41 55.41 52.37 57.94
74.07 74.45 75.72 63.09 60.91 59.80 60.64 76.44 75.45 75.67 74.79 77.08 76.16 75.49 76.03 76.57 76.12 75.46 72.02 70.60 70.35 70.49 72.62 72.51 70.41 70.11 69.27 67.35 68.91 68.86 69.55 68.81 61.45 58.21 55.45 53.16 52.78 58.12
75.43 76.22 76.63 62.56 58.49 57.67 60.35 62.93 60.73 63.09 73.65 73.40 73.20 73.39 73.65 73.98 75.23 75.90 77.09 76.41 74.58 72.96 75.02 73.80 71.37 69.81 68.59 67.42 65.92 65.97 66.58 66.34 63.25 61.19 60.15 57.12 53.18 53.82
76.13 72.36 64.22 59.29 56.72 59.92 57.85 58.59 57.56 67.71 69.36 69.65 69.79 70.94 72.50 74.35 76.33 75.73 76.67 77.75 77.65 77.96 76.50 76.41 73.36 73.42 71.11 68.23 66.92 67.94 62.59 63.95 63.06 62.44 62.58 60.18 56.74 56.48
66.56 71.91 70.05 66.23 64.13 68.91 69.89 64.50 66.23 67.28 68.00 68.88 70.30 72.27 73.90 74.03 72.66 72.39 70.85 71.11 70.11 69.83 73.56 75.38 75.56 71.78 69.54 68.97 68.48 67.80 68.03 61.30 63.43 63.12 61.96 59.45 56.78 56.10
70.78 73.88 73.73 73.80 73.77 74.00 73.92 73.58 73.47 71.43 69.74 71.52 71.69 71.05 70.45 69.62 69.24 69.94 69.21 68.70 67.15 67.42 68.23 69.16 71.26 73.41 70.70 68.34 66.51 66.78 64.74 60.14 61.60 60.06 58.09 54.59 55.15 55.28
71.02 73.42 73.60 72.27 72.06 72.50 72.01 71.12 69.90 67.91 71.44 68.89 67.38 67.46 66.79 66.29 66.68 67.27 67.19 66.94 66.12 66.11 66.33 67.56 68.23 67.86 66.25 58.86 58.49 56.66 57.89 58.53 58.03 59.19 57.32 56.36 53.87 55.56
72.54 72.19 72.31 71.92 71.05 67.95 67.23 68.18 69.59 69.92 69.61 68.24 67.77 67.20 66.17 65.83 64.42 64.61 65.24 66.24 65.74 63.89 64.51 65.24 64.25 63.27 60.51 53.39 56.56 53.07 57.58 56.40 56.76 56.44 57.38 57.72 53.64 52.43
70.86 70.87 67.84 65.63 65.75 66.86 69.00 68.84 69.00 68.89 67.59 67.22 66.33 66.24 66.89 64.78 64.19 64.93 66.29 65.26 63.70 63.63 64.97 62.22 59.37 61.12 60.98 59.59 55.66 52.98 50.08 56.40 56.18 53.63 50.05 50.28 51.21 52.35
63.96 64.38 65.58 66.46 68.50 68.60 67.77 67.48 67.21 66.36 65.86 65.97 65.10 65.05 64.89 64.75 64.50 66.01 65.92 58.16 59.06 63.76 61.99 59.46 59.69 57.67 64.55 63.15 55.94 51.94 52.81 50.07 54.45 54.97 53.38 53.79 50.23 50.54
65.01 65.03 65.65 66.08 66.39 67.41 66.04 67.46 67.10 65.40 65.28 65.31 65.43 65.70 66.13 65.89 64.76 65.34 64.56 64.72 63.25 61.62 60.07 60.92 63.82 64.62 64.99 63.97 57.26 53.18 51.17 51.57 51.47 51.66 51.59 52.36 53.70 51.63
63.09 63.51 62.91 61.04 60.14 61.21 62.68 65.51 65.52 65.41 65.38 65.77 65.69 65.74 66.61 65.48 66.07 65.65 64.48 64.00 63.99 63.22 61.11 61.36 62.59 62.43 58.44 58.94 54.61 52.18 51.07 50.31 51.00 50.71 50.20 50.60 51.74 52.78

GFSNE_sfc_wetblb_054.txt.gz
Wetbulb
77.14 77.18 75.98 74.24 74.01 73.46 72.97 72.14 69.82 67.37 68.52 72.61 70.98 75.75 74.91 74.73 75.34 75.61 75.51 71.37 69.05 68.10 67.21 66.71 66.90 67.70 68.44 69.18 69.48 70.09 70.65 70.75 70.41 69.65 69.41 69.25 68.58 66.69
76.85 77.39 77.33 75.29 75.10 74.52 73.66 73.16 72.39 70.62 68.08 70.88 71.87 73.77 75.03 74.58 74.58 75.63 75.49 72.35 69.39 68.11 67.08 66.15 66.20 66.47 66.95 67.56 67.82 68.13 68.47 68.69 68.66 68.43 68.11 68.43 68.43 67.69
77.89 77.20 77.93 78.64 76.17 74.62 74.57 74.11 73.02 72.57 69.88 70.93 72.14 74.64 76.39 76.01 75.99 76.23 75.82 75.84 74.61 67.96 67.45 66.53 65.63 65.58 65.67 65.97 66.25 66.58 66.90 67.06 67.11 67.41 67.57 67.72 67.83 67.05
77.67 77.81 77.32 76.86 78.21 77.93 75.69 76.83 75.55 76.14 72.00 74.08 74.21 72.42 75.92 77.78 76.71 76.23 75.54 75.16 74.55 71.03 66.90 66.18 65.38 64.99 64.65 64.23 64.02 64.32 64.43 64.79 65.02 65.34 66.20 66.97 67.09 66.69
77.56 77.78 77.52 77.78 77.34 76.77 76.87 75.67 75.71 75.78 76.16 73.99 73.32 74.17 74.31 75.40 76.29 77.92 77.56 76.96 75.51 71.74 66.96 65.55 64.81 64.44 63.80 62.92 62.13 61.61 60.74 61.07 61.83 62.16 63.01 64.46 65.54 65.91
77.99 77.92 78.30 78.20 78.29 78.32 77.88 77.97 77.90 76.84 76.81 74.94 73.75 73.37 73.60 76.08 75.15 73.92 73.74 75.11 74.73 75.45 73.19 69.58 68.70 66.82 64.61 62.78 62.10 61.91 59.64 58.58 58.77 59.34 59.94 61.01 62.76 63.58
77.67 78.30 78.53 77.27 73.25 74.79 77.88 79.76 80.46 77.45 75.27 73.92 72.90 73.01 73.07 73.42 74.69 74.81 74.70 75.31 76.83 77.22 76.46 76.60 76.63 75.94 74.48 64.41 67.04 64.50 61.86 59.87 58.39 58.01 57.98 58.44 59.36 60.25
76.92 77.79 78.46 74.73 74.21 69.09 68.36 68.51 72.79 78.08 78.62 75.50 74.15 73.87 78.15 77.08 76.33 75.65 75.03 74.44 74.06 78.02 77.34 76.18 77.52 76.46 76.80 76.75 70.08 65.58 62.39 61.04 59.67 58.33 57.62 57.21 57.69 58.44
78.34 77.62 77.09 76.79 75.43 78.31 70.64 67.59 68.29 66.90 68.06 75.90 76.44 77.01 77.60 78.97 79.93 79.25 77.77 77.46 76.66 78.53 78.23 75.46 77.41 76.42 77.78 77.69 67.47 63.97 62.24 60.79 59.91 59.11 57.99 57.34 56.93 56.86
78.27 78.24 78.58 78.44 77.83 76.74 77.49 77.38 77.63 78.20 76.70 75.23 76.49 76.99 77.35 78.50 79.23 78.87 78.54 77.15 77.66 77.59 78.17 72.77 76.37 75.57 77.19 77.58 68.87 65.19 62.02 60.43 59.20 58.80 58.18 56.70 55.74 55.32
77.89 78.80 79.06 78.85 72.12 66.03 77.10 77.28 77.77 77.57 71.90 65.12 66.96 66.77 65.87 65.19 68.90 75.88 74.39 74.23 74.02 75.39 77.99 75.56 76.34 75.65 77.19 77.38 77.52 67.28 62.29 59.42 58.04 58.03 57.93 56.53 54.77 53.11
78.07 79.15 68.05 73.92 66.03 62.57 76.76 76.54 76.35 75.99 76.20 77.15 77.72 74.44 67.19 70.99 64.75 73.09 75.92 72.80 73.08 72.31 77.74 75.81 75.92 74.97 70.92 74.49 74.47 74.77 74.07 58.30 56.85 56.12 57.56 56.16 54.40 61.67
74.71 74.57 75.64 63.22 61.91 60.72 61.25 77.13 75.70 75.21 74.49 77.53 78.05 78.43 79.12 79.23 78.94 79.22 77.97 74.95 73.13 73.01 75.74 74.79 73.53 74.16 72.46 71.04 73.35 74.26 73.92 73.86 65.29 64.70 53.48 53.33 52.47 58.79
75.63 75.26 76.35 60.96 57.19 57.88 61.57 63.89 61.21 64.01 75.50 75.71 76.20 76.96 76.46 76.67 77.11 77.04 78.86 79.02 78.05 74.47 76.70 78.70 74.83 73.77 73.22 71.16 69.83 72.57 72.75 70.63 70.27 65.39 62.77 55.80 52.80 56.22
76.77 72.68 62.75 59.65 55.76 60.01 57.44 59.48 58.32 74.05 75.29 74.99 74.23 74.69 75.56 75.20 77.27 77.49 77.91 80.05 79.01 78.28 74.96 77.62 73.51 73.09 71.96 72.00 70.92 71.24 69.18 69.32 68.43 67.21 63.34 58.33 56.24 57.06
68.70 73.72 71.80 67.28 63.69 67.67 71.80 69.28 75.07 76.64 75.51 74.16 71.60 71.88 74.93 75.35 75.59 74.97 71.90 71.59 70.78 70.94 75.67 75.81 75.38 73.58 69.89 70.88 70.86 69.30 70.60 67.17 65.60 64.61 62.05 59.57 58.61 56.26
73.06 76.16 75.96 75.60 75.49 76.26 76.75 76.74 77.13 75.78 71.27 70.84 72.13 73.36 74.82 74.28 71.39 71.35 70.82 70.46 69.27 69.28 69.30 70.49 73.22 72.53 63.59 59.50 60.18 62.54 62.59 63.16 65.45 62.31 57.32 55.25 54.87 55.04
73.64 75.51 74.45 74.73 74.77 74.71 74.98 75.12 74.75 71.83 73.80 73.44 74.57 73.01 71.28 70.35 69.80 69.98 69.73 68.81 67.83 68.81 68.06 68.97 68.01 67.05 67.04 62.15 56.87 58.09 60.45 58.97 59.37 58.56 57.10 54.03 53.48 55.11
76.41 74.96 75.45 76.08 75.30 74.34 73.87 72.89 73.21 72.21 74.45 72.77 71.89 71.09 70.20 69.71 68.60 68.10 67.77 68.81 68.62 68.19 68.34 67.73 65.86 65.32 63.30 61.60 61.59 53.14 57.24 58.23 58.71 58.01 57.96 58.16 54.46 54.51
74.21 74.17 73.56 72.14 70.72 70.36 70.25 71.01 71.20 72.50 71.93 71.07 70.15 69.90 69.78 69.08 67.03 66.04 68.41 68.85 67.96 67.60 67.53 68.21 66.03 65.20 63.47 61.25 58.46 55.84 49.32 58.81 56.40 53.17 51.44 52.40 52.91 54.93
69.48 69.18 69.92 69.83 69.53 69.43 70.72 71.89 72.14 71.64 69.49 69.68 69.62 68.81 68.46 67.71 66.52 65.54 68.03 59.45 60.42 66.83 65.84 65.80 66.22 61.32 66.26 64.90 63.26 55.96 54.62 49.80 54.91 54.65 54.08 52.90 51.07 51.71
68.81 68.18 67.57 68.74 67.91 68.46 69.43 69.92 69.56 68.32 68.68 67.81 67.57 67.44 67.08 67.14 66.51 66.37 66.11 65.50 66.48 66.36 65.86 66.43 67.01 66.08 65.35 64.29 63.29 57.17 53.97 53.63 51.67 51.11 51.89 53.36 54.69 50.63
68.86 66.88 66.92 64.51 66.95 67.22 69.15 70.33 69.16 67.73 66.54 66.30 66.25 66.30 66.20 65.91 67.43 67.38 66.82 64.93 64.73 66.39 65.38 64.58 65.06 64.91 63.92 62.39 58.28 57.57 52.62 52.70 52.10 51.94 51.42 51.39 52.11 53.00

GFSNE_sfc_wetblb_057.txt.gz
Wetbulb
78.01 77.89 75.73 73.80 73.99 73.26 72.88 72.24 70.31 67.85 69.18 73.77 70.61 76.31 74.26 74.23 75.57 76.07 77.11 71.96 69.17 68.02 67.03 67.17 67.50 67.87 68.66 69.42 69.82 70.18 70.83 71.17 71.31 71.41 70.77 70.15 70.22 69.61
75.99 79.16 78.53 75.40 75.73 74.52 73.69 73.36 72.61 70.55 68.06 71.25 71.96 75.52 75.93 74.42 75.52 75.83 75.63 72.50 69.45 68.31 67.36 66.33 66.42 66.98 66.99 67.33 67.82 68.32 68.75 68.97 69.48 69.56 69.31 68.85 69.06 69.27
78.70 78.09 79.05 80.26 76.32 75.05 74.48 73.80 73.05 72.48 69.96 71.42 72.60 76.40 79.57 78.88 78.06 78.02 76.55 77.39 75.59 68.09 67.54 66.82 66.11 66.23 66.40 66.21 66.17 66.30 66.83 67.13 67.51 67.97 68.40 68.08 68.15 68.28
78.16 78.98 77.22 76.69 79.59 79.69 76.37 79.51 76.03 77.37 72.58 74.69 74.63 74.21 77.17 78.60 78.83 78.96 76.11 76.17 76.55 72.54 66.91 66.41 65.70 65.26 65.17 64.93 64.39 64.16 63.94 64.61 65.11 65.71 66.55 67.20 67.35 67.35
78.31 78.57 78.32 78.85 79.31 77.23 78.97 75.92 75.02 76.07 75.89 74.20 74.05 75.62 76.03 76.39 77.28 79.02 78.97 78.38 77.35 73.13 69.17 66.21 65.28 65.10 64.42 63.74 63.10 62.02 60.95 60.81 61.47 62.27 63.24 64.27 65.51 66.44
78.83 78.99 78.92 79.12 79.65 80.07 78.61 79.88 78.53 77.39 76.16 74.76 74.55 75.02 75.80 78.39 76.81 75.01 75.42 76.96 76.83 76.95 74.76 71.48 70.43 67.24 65.30 63.21 62.82 62.53 60.08 58.65 58.71 59.24 59.97 60.85 62.62 63.92
78.92 79.27 79.05 78.09 73.44 76.10 77.74 79.17 79.21 77.78 75.63 75.26 74.48 74.31 74.02 74.29 75.30 75.91 75.23 76.86 78.69 78.01 77.29 78.21 78.47 79.15 78.09 65.75 67.23 65.08 62.28 60.20 58.50 58.39 58.42 58.07 59.16 60.57
78.74 79.23 79.81 74.88 74.51 69.31 68.53 68.95 72.95 77.91 78.68 75.67 74.52 73.91 76.52 76.63 76.81 76.04 76.29 75.05 74.52 78.55 78.92 78.76 80.05 78.86 79.40 79.66 71.42 65.33 62.64 61.33 59.85 58.62 58.58 57.51 58.12 58.90
79.08 79.29 78.47 76.37 75.80 79.47 71.45 68.55 69.15 67.49 68.45 76.37 75.90 76.18 76.55 78.24 79.02 78.35 76.30 76.71 77.21 78.64 77.80 76.49 78.41 77.53 79.29 78.39 69.53 66.85 62.69 61.22 59.93 59.06 58.32 57.72 57.29 57.62
79.43 79.53 79.56 79.42 79.46 78.69 79.60 78.86 78.40 78.76 78.11 75.85 76.46 77.38 78.98 79.61 79.58 78.87 78.32 78.17 78.70 78.76 78.75 75.01 78.19 77.58 79.88 80.02 69.63 67.05 64.71 60.70 59.67 58.94 57.33 56.56 56.04 56.14
78.39 78.68 79.36 79.89 73.03 66.55 77.97 77.65 78.49 79.02 72.59 64.77 66.69 67.47 66.27 65.15 68.77 74.07 74.21 75.40 74.96 75.69 78.28 77.05 77.42 76.87 76.63 76.22 76.97 67.94 64.60 60.91 58.24 57.73 57.34 56.14 54.15 54.69
78.13 78.94 68.47 74.10 66.97 62.97 77.43 77.83 77.16 78.08 78.51 78.15 78.48 74.94 68.05 72.41 64.31 73.06 77.27 74.41 74.80 74.64 78.21 75.76 75.52 74.59 72.07 75.77 76.54 77.45 75.95 65.71 57.79 55.84 55.72 55.15 53.15 57.32
75.17 75.17 76.43 64.27 62.03 60.94 61.51 77.92 76.59 77.21 75.43 77.12 76.76 77.83 78.72 79.26 79.15 78.02 79.75 78.37 75.86 74.50 76.55 76.82 74.08 74.38 73.29 71.83 73.44 75.15 74.86 74.10 75.08 72.04 53.17 52.58 51.63 57.16
75.63 74.17 75.28 61.01 58.23 59.06 61.90 63.76 60.32 63.89 75.03 75.09 75.50 76.23 77.12 78.13 78.66 79.11 79.86 80.05 80.48 78.93 79.68 79.75 74.49 72.37 71.32 70.54 69.94 72.88 72.89 72.99 74.03 73.28 72.37 58.53 51.49 52.85
76.59 69.80 62.01 58.13 55.56 58.38 57.02 60.11 59.82 74.33 75.13 75.08 75.69 76.74 77.46 78.20 76.55 75.76 79.80 80.50 80.51 80.51 78.26 78.38 73.55 73.06 71.06 69.85 68.52 68.04 66.21 66.60 68.93 68.09 68.95 58.83 55.25 55.03
69.48 73.98 71.64 66.87 62.48 68.52 72.22 67.75 74.49 76.74 76.43 76.19 76.91 76.99 76.61 74.80 75.99 77.09 76.04 72.82 71.21 71.75 77.77 77.59 76.48 73.90 68.92 67.88 65.88 63.60 63.26 60.91 63.21 64.60 59.11 57.28 57.40 58.03
73.24 76.03 75.35 75.08 75.67 76.54 77.48 77.71 77.75 77.74 77.02 76.96 76.12 74.25 74.82 75.52 76.10 75.45 72.32 71.34 69.80 69.65 70.24 71.75 76.27 71.58 67.13 65.59 63.92 61.99 60.60 59.63 59.09 57.97 55.64 53.95 54.69 55.30
72.75 75.32 75.68 76.18 76.31 76.66 76.87 77.32 77.43 75.29 77.52 75.45 73.96 74.64 74.95 74.54 73.23 72.17 71.23 70.11 68.99 69.71 69.90 69.99 69.40 67.98 65.93 58.70 60.43 59.74 59.57 59.26 58.06 56.90 55.74 53.15 52.86 55.05
76.51 76.42 76.44 76.88 76.40 76.80 76.36 75.95 75.40 75.92 75.98 75.12 75.21 74.53 73.90 72.91 70.01 70.00 69.76 69.14 69.26 70.15 69.71 69.62 68.56 66.64 64.31 63.00 61.36 53.55 57.12 59.59 57.76 54.93 57.32 56.97 54.12 54.35
77.32 76.36 76.78 76.64 77.42 76.92 76.34 75.78 74.91 74.57 74.44 74.15 73.70 73.35 72.38 70.92 69.90 69.53 68.81 68.77 69.60 69.21 67.93 68.95 69.13 67.20 64.50 63.73 63.44 59.96 48.93 59.59 57.51 55.50 55.62 55.66 54.75 54.50
75.85 76.18 76.20 76.16 75.79 73.58 73.08 72.01 73.17 72.68 71.64 73.60 72.35 71.51 70.80 70.05 69.43 68.97 68.22 60.75 62.17 67.47 66.13 67.49 68.47 62.32 67.50 68.21 63.62 60.95 58.44 49.71 56.32 58.18 55.56 53.69 52.56 53.64
73.47 74.19 74.54 73.10 72.46 71.82 72.34 72.95 71.46 69.88 70.59 70.22 70.24 70.01 69.35 68.39 68.38 68.33 67.95 66.94 67.14 67.44 66.90 67.86 68.81 67.30 66.14 64.28 62.87 61.21 59.83 55.60 52.66 51.64 52.30 53.53 53.98 51.45
73.32 72.70 71.38 70.66 69.48 69.98 71.01 71.16 69.09 70.58 69.26 69.62 67.31 67.86 67.30 66.31 68.51 68.37 68.95 67.65 65.97 65.97 66.75 66.32 66.57 66.75 65.45 64.11 59.76 62.00 57.12 55.48 54.86 53.29 53.32 51.54 51.97 53.83

GFSNE_sfc_wetblb_060.txt.gz
Wetbulb
77.39 78.10 77.08 75.08 74.02 73.46 73.82 73.06 71.35 67.28 68.21 72.75 72.01 75.13 73.89 74.64 75.60 73.13 73.31 71.01 68.38 67.67 66.88 66.89 67.37 68.23 68.62 68.83 69.48 69.68 70.15 70.59 70.86 71.07 71.51 71.74 71.54 71.35
77.17 76.77 77.25 75.53 75.40 75.79 74.57 74.46 73.69 71.07 68.21 71.47 73.06 74.74 74.48 73.50 75.50 75.46 75.24 73.18 69.63 67.96 66.75 65.83 66.28 66.89 67.35 67.54 67.55 67.74 68.36 68.76 69.00 69.70 70.13 70.33 69.87 69.70
78.25 78.14 76.95 77.29 76.87 76.75 76.41 74.48 73.45 73.71 70.40 71.36 74.28 74.21 76.07 76.01 75.60 75.76 76.43 75.42 74.66 68.29 67.29 66.66 65.88 66.02 66.43 66.70 66.56 66.38 66.63 66.94 67.27 67.88 68.59 68.93 69.08 68.66
77.61 77.28 77.61 77.49 78.18 77.89 76.71 76.18 76.37 76.94 74.15 71.68 73.38 72.70 73.26 74.34 76.03 76.69 76.73 75.63 74.42 72.97 67.76 66.16 65.65 65.47 65.24 65.22 65.08 64.90 64.50 64.65 64.93 65.60 66.52 67.43 67.78 67.71
77.43 77.47 76.94 77.56 77.31 77.49 77.54 75.71 74.81 75.30 74.53 73.07 72.29 75.28 75.44 75.77 74.50 76.11 76.79 76.12 76.32 73.50 69.60 67.38 65.90 65.23 64.44 63.66 63.35 62.54 61.35 61.26 61.59 62.21 63.52 64.32 65.72 66.69
77.78 77.17 77.85 77.81 77.35 77.93 77.19 76.76 76.84 76.28 75.35 74.69 73.32 73.10 73.92 75.18 76.20 74.18 73.44 74.76 73.61 76.90 74.60 71.67 70.24 67.78 65.57 63.50 63.04 62.57 59.80 58.77 58.64 59.14 60.07 61.37 62.54 64.15
77.01 77.70 77.63 77.10 73.75 75.11 77.12 77.36 77.07 76.47 75.39 74.69 74.00 74.08 72.97 72.97 72.74 73.78 73.82 74.83 75.13 75.89 75.45 76.85 77.77 77.58 77.14 69.22 67.54 65.72 62.73 60.82 58.94 58.03 57.85 58.31 59.35 61.08
76.35 77.01 78.25 73.61 73.18 69.49 68.40 69.04 73.23 76.09 74.83 75.06 74.83 73.64 73.31 73.91 74.83 73.85 73.71 72.97 71.38 76.23 77.30 75.83 77.41 76.96 77.51 77.73 72.41 66.95 64.11 61.71 59.96 58.65 57.35 57.12 58.40 59.16
76.81 76.80 77.07 76.79 73.76 77.24 70.74 67.60 68.01 67.34 68.79 74.19 73.31 73.39 73.31 73.99 74.84 75.06 74.73 74.41 74.01 75.61 75.80 74.96 77.00 76.45 77.52 78.10 67.54 66.41 64.81 61.81 60.15 59.26 58.28 57.07 56.77 57.31
76.51 76.77 77.12 76.62 76.41 76.96 76.95 76.67 75.90 75.71 74.66 72.88 73.04 74.36 75.30 76.30 76.84 76.65 76.09 76.01 75.04 75.87 77.25 73.64 75.97 75.60 77.19 76.01 68.89 67.79 64.58 62.23 60.90 59.05 57.66 56.20 54.42 54.06
75.40 76.53 77.57 77.11 71.66 67.50 74.58 74.83 75.56 76.59 72.10 67.20 68.45 68.22 67.86 66.64 69.78 74.39 73.04 71.13 71.71 74.60 77.07 74.73 74.93 74.66 74.10 73.39 74.64 67.80 63.77 62.21 60.50 58.54 57.76 56.12 53.68 52.39
75.14 75.82 67.47 72.14 66.61 62.56 73.89 75.48 74.34 74.84 75.78 76.31 76.92 73.09 65.09 69.34 63.35 67.82 72.34 72.75 74.52 73.47 76.86 73.67 73.68 72.50 70.08 73.69 71.61 72.11 72.50 63.34 62.04 58.84 57.99 55.18 52.21 56.86
74.07 74.46 75.70 64.70 61.19 60.09 61.55 75.14 74.26 74.90 74.37 76.10 76.07 75.07 75.32 77.15 77.97 78.74 78.41 76.87 75.37 74.37 76.19 75.85 73.02 72.83 70.83 68.53 69.82 70.67 68.47 67.43 66.48 65.65 60.48 56.25 50.68 56.50
74.55 75.32 74.49 62.96 60.39 60.21 61.33 63.34 61.47 62.28 73.94 73.66 73.35 73.71 74.87 75.73 78.04 79.28 79.30 77.59 77.56 77.16 77.74 78.15 74.95 71.65 68.76 66.84 65.91 67.21 65.82 64.34 63.38 61.99 63.87 58.02 51.88 51.28
75.85 70.54 61.17 58.01 55.40 56.69 57.24 60.18 59.40 70.12 72.07 72.73 73.40 74.68 76.04 78.18 78.38 76.94 76.04 76.71 77.89 77.74 78.26 76.73 73.19 71.09 68.84 66.52 64.76 63.66 61.12 61.38 60.52 59.52 58.74 57.48 55.77 54.54
68.17 72.55 68.72 68.38 63.29 67.95 69.27 62.44 70.28 74.02 74.74 75.06 75.14 76.23 78.24 77.25 75.63 75.15 75.56 76.12 71.68 71.36 73.59 74.57 72.37 70.81 67.65 66.53 64.67 61.00 60.45 58.36 58.42 57.48 56.03 55.47 55.75 56.58
71.46 74.59 74.49 74.04 73.40 74.54 76.08 77.18 74.98 75.37 75.11 75.79 75.92 76.69 76.05 75.35 74.39 75.71 75.87 72.47 70.23 69.28 69.21 72.08 70.62 65.49 62.18 62.90 62.01 60.48 59.13 58.43 57.22 55.94 54.97 53.68 54.04 54.04
71.04 74.07 73.76 74.10 73.95 73.83 74.19 75.41 76.93 75.01 77.15 77.25 77.24 76.05 74.45 73.77 73.61 74.59 72.01 69.91 69.22 68.75 68.83 70.55 69.39 67.39 61.35 57.53 57.34 59.36 59.40 58.70 57.48 57.34 55.98 53.52 52.80 53.54
74.02 73.36 74.18 75.43 75.21 76.12 76.49 77.52 77.33 78.31 76.96 75.37 74.34 74.00 74.31 74.44 69.30 70.55 70.33 69.59 68.32 68.50 70.25 69.33 68.71 66.58 63.35 60.94 56.13 52.60 58.75 59.46 57.71 55.75 56.42 54.86 53.34 53.60
74.78 75.96 76.04 76.16 78.00 77.90 77.65 77.22 77.34 76.40 75.40 75.08 74.68 74.41 73.79 72.64 71.24 70.53 70.11 68.88 68.10 68.89 67.52 67.12 68.12 67.08 63.85 62.19 62.71 55.96 48.64 59.67 57.94 56.02 54.45 54.15 53.90 54.40
74.90 75.13 76.82 78.41 78.32 78.07 77.52 76.95 75.81 74.37 73.80 73.57 73.24 72.60 71.11 69.63 70.26 69.73 68.72 60.46 62.21 67.05 66.37 66.36 66.21 64.10 67.25 66.93 63.12 60.36 55.68 49.58 53.05 58.45 55.94 54.06 52.71 52.67
77.75 77.55 76.89 75.76 75.61 74.29 74.03 73.95 72.83 69.15 69.72 69.11 68.85 68.87 67.89 68.94 67.74 68.13 68.09 67.30 66.86 66.44 66.00 66.82 68.22 66.90 65.54 63.22 61.60 59.97 56.82 55.09 52.41 52.28 52.64 53.45 54.14 51.39
73.23 71.39 70.04 69.55 69.19 70.57 71.41 71.05 70.85 70.61 71.01 67.30 67.49 66.89 68.55 67.08 67.82 67.87 67.31 67.42 67.38 65.87 65.41 64.89 66.54 66.90 65.11 64.02 60.54 60.37 57.95 56.17 54.77 54.36 54.20 51.90 51.99 52.87

GFSNE_sfc_wetblb_063.txt.gz
Wetbulb
72.34 72.23 72.15 71.21 70.34 69.77 67.11 66.99 65.25 61.62 62.66 67.46 68.32 69.85 69.62 70.12 71.35 71.12 69.34 69.79 68.31 67.69 66.59 66.59 67.06 67.99 68.72 69.24 69.32 69.54 69.79 70.04 70.50 70.75 70.74 71.32 72.09 73.18
72.11 72.62 71.61 71.32 70.40 72.31 69.27 68.70 68.15 65.27 62.65 66.49 67.45 69.18 71.45 71.80 72.43 71.67 70.49 71.14 69.85 67.70 66.66 65.89 66.13 66.75 67.22 67.66 67.73 67.77 68.06 68.58 68.69 69.16 69.28 69.85 70.27 71.25
72.77 72.68 72.27 72.43 70.80 72.04 73.69 71.82 68.31 67.97 65.02 66.21 69.19 69.94 69.67 70.16 70.91 71.63 71.90 71.67 71.41 68.57 67.45 66.54 65.92 66.00 66.45 66.57 66.68 66.81 66.86 66.92 67.24 67.73 68.19 68.63 69.13 69.64
73.07 72.68 73.21 74.38 72.39 72.25 72.76 71.76 71.48 71.64 69.39 66.25 68.12 68.34 68.93 70.56 70.63 70.87 73.20 75.21 73.13 72.07 68.91 67.35 65.88 65.25 64.77 64.81 64.70 64.59 64.42 64.68 65.05 65.59 66.40 67.19 67.77 68.11
73.50 73.68 72.72 73.08 72.68 73.87 73.06 72.10 71.44 71.54 71.27 69.40 68.66 70.72 71.92 72.31 71.69 71.30 72.28 73.50 74.82 72.81 68.96 67.80 66.85 65.79 64.80 63.45 62.43 61.78 60.56 60.44 61.14 62.05 62.96 64.22 65.70 67.02
74.79 74.17 74.27 73.69 73.16 73.10 73.59 73.03 72.91 72.35 71.71 70.88 70.68 70.13 70.40 72.05 71.77 71.16 69.89 70.62 71.56 75.44 73.42 71.43 69.98 70.14 68.51 64.68 63.32 62.96 60.08 58.61 58.20 58.58 59.17 60.19 62.12 64.13
73.47 74.27 74.12 74.15 72.95 73.03 74.82 74.00 73.83 72.82 72.38 71.81 71.09 70.88 70.49 69.92 69.82 71.05 70.36 70.83 71.41 72.07 72.14 73.13 75.43 75.85 75.97 72.24 71.06 67.93 63.93 61.68 59.58 58.04 57.17 57.03 57.76 59.83
73.82 73.63 74.50 72.95 72.13 69.42 68.73 69.94 73.56 73.57 72.61 71.93 71.05 70.55 70.18 70.23 70.92 70.57 70.56 69.72 68.89 72.96 73.48 74.07 75.01 75.46 76.22 75.87 69.58 66.26 64.00 62.56 61.01 59.34 58.02 56.95 56.37 56.95
74.39 74.22 74.17 75.56 72.25 73.85 69.59 67.24 67.21 66.64 68.37 72.15 70.41 70.70 70.47 72.01 71.33 71.04 71.44 71.89 71.81 73.82 72.66 72.26 74.96 73.67 75.16 76.13 68.87 65.62 63.76 61.79 60.92 59.82 58.73 57.45 56.39 55.28
74.75 74.54 74.24 74.11 72.93 72.59 73.01 73.37 72.57 71.64 70.47 70.02 69.93 72.06 72.72 73.52 72.89 73.21 72.83 72.89 73.98 73.83 71.98 71.87 74.07 73.04 74.25 74.23 67.66 65.23 61.52 60.62 60.10 59.56 58.93 57.54 55.01 53.05
73.52 73.90 74.42 74.42 70.13 66.65 71.72 72.35 73.16 74.06 71.33 66.10 66.41 66.36 66.05 65.33 68.41 71.13 71.51 71.27 70.63 70.22 73.84 72.87 72.35 72.17 71.61 70.61 69.55 64.97 61.66 58.99 57.98 57.80 57.70 56.33 54.10 52.14
72.26 72.65 66.97 72.26 66.87 64.57 71.32 72.16 70.54 71.01 71.23 71.87 71.78 67.98 65.15 68.01 64.36 68.61 72.04 69.59 69.06 71.99 73.75 71.78 71.09 69.94 68.10 69.91 68.28 66.59 65.51 59.22 57.25 56.19 56.39 54.42 51.84 56.57
71.29 71.87 72.89 63.60 60.00 58.85 61.18 71.91 72.05 73.04 70.91 72.45 72.96 73.52 72.74 72.23 73.15 73.06 69.53 71.26 72.12 72.37 73.75 72.87 70.69 70.12 68.30 65.98 65.66 64.06 62.44 61.18 59.46 59.06 56.21 53.93 51.88 51.12
71.76 72.54 72.01 63.71 59.54 59.28 60.36 61.76 60.88 61.72 70.39 71.38 70.66 70.05 70.32 71.67 73.37 74.80 75.71 75.50 75.36 75.48 75.69 74.33 72.65 68.88 64.89 62.86 61.83 62.45 60.01 59.32 58.25 57.93 57.39 54.78 54.05 53.15
74.24 70.69 65.63 61.46 58.85 59.05 58.77 59.87 59.68 65.08 68.53 68.32 69.32 70.24 71.67 73.53 74.91 74.27 74.03 74.19 75.51 74.93 75.82 74.18 70.64 66.93 64.85 62.44 60.93 57.94 56.37 57.13 57.02 56.41 55.62 55.37 54.60 55.87
67.86 68.41 64.99 65.68 64.88 66.77 66.82 59.19 63.10 67.10 68.31 68.66 69.64 71.51 73.21 73.98 73.26 73.05 72.17 73.89 69.94 67.15 69.17 69.67 67.49 65.74 63.01 61.43 59.59 56.09 56.33 54.95 55.50 54.02 55.21 55.13 54.61 54.58
68.74 71.94 70.55 70.05 71.10 70.32 70.71 69.97 65.33 68.84 69.90 71.93 72.47 72.86 73.74 72.93 72.06 72.58 73.15 72.57 66.18 65.22 64.81 66.36 59.97 59.08 58.12 59.88 57.13 55.83 55.05 54.04 53.96 53.96 54.07 53.72 53.50 53.90
68.33 71.39 70.91 71.41 71.35 71.46 70.31 71.82 72.49 70.17 71.90 72.51 72.75 72.93 72.48 71.76 71.89 71.62 71.38 66.56 65.06 64.81 63.97 65.72 63.63 60.92 57.68 55.89 57.09 55.75 55.09 54.22 53.94 54.48 56.03 53.64 52.29 53.38
71.36 71.79 71.83 71.85 71.99 72.05 71.68 71.15 71.38 74.15 74.64 74.72 74.50 73.85 73.52 73.00 71.74 68.86 66.46 65.67 64.20 63.92 64.94 64.52 63.42 62.41 59.32 57.47 54.51 52.28 55.25 56.23 56.63 54.90 55.08 54.12 52.77 52.79
71.62 71.08 71.85 72.52 72.77 72.70 73.16 73.26 74.43 74.42 73.56 73.02 72.27 72.07 71.62 70.99 69.61 67.81 66.47 64.60 63.83 63.84 62.78 62.83 63.26 62.16 60.12 58.82 58.47 53.58 47.73 55.41 55.39 54.74 53.11 53.47 53.51 54.14
71.42 71.98 71.87 72.35 72.68 74.03 73.65 74.53 74.47 73.54 72.89 72.89 72.01 71.37 71.19 69.26 66.63 66.02 65.43 60.03 60.22 62.06 61.47 62.05 63.59 62.36 62.94 62.70 57.91 53.11 51.48 49.78 53.26 55.91 54.85 52.63 50.88 51.24
71.55 71.59 71.82 73.19 72.99 73.11 71.85 70.92 69.72 69.22 69.82 68.61 67.14 66.50 66.30 65.57 64.28 64.64 65.16 63.66 62.64 62.72 61.96 62.85 62.73 62.10 60.98 58.91 57.41 55.29 51.39 50.74 50.75 52.63 54.41 54.79 53.79 51.43
69.45 69.13 68.68 68.07 68.73 68.41 68.07 68.03 68.84 67.84 67.57 66.48 65.34 64.70 64.59 64.75 64.99 64.45 63.96 62.86 62.40 62.14 61.90 61.49 61.35 62.57 61.02 60.61 58.37 56.15 52.19 51.24 50.59 50.07 51.07 52.24 52.42 52.54

GFSNE_sfc_wetblb_066.txt.gz
Wetbulb
71.76 70.46 70.83 70.26 68.73 68.25 66.80 64.97 62.87 60.17 60.78 64.49 66.11 68.29 68.68 67.70 69.64 69.62 70.46 69.95 69.03 68.43 67.19 66.40 66.95 67.68 68.37 69.28 69.81 69.65 70.02 70.23 70.26 70.39 70.86 70.92 71.91 72.34
71.19 70.75 70.15 70.20 69.07 69.89 70.70 66.95 66.03 63.28 61.49 64.49 65.43 67.20 70.62 70.32 71.11 70.82 70.00 69.97 69.07 67.97 67.07 66.23 66.22 66.83 67.26 67.48 67.81 68.07 68.16 68.63 68.83 68.88 69.08 69.29 69.71 70.47
70.58 70.29 71.06 70.50 70.05 69.51 71.13 71.13 69.20 66.41 63.53 65.02 66.23 68.96 68.87 68.53 69.37 69.16 70.95 70.34 71.05 68.52 67.95 67.27 66.43 66.22 66.51 66.88 66.79 66.60 67.01 67.05 67.27 67.71 68.26 68.59 68.83 69.30
70.79 70.97 71.66 73.35 71.33 70.58 70.66 70.71 69.87 69.33 67.24 66.10 65.96 67.47 68.14 70.46 70.88 71.03 72.78 74.13 73.09 72.05 68.51 66.98 66.28 65.86 65.31 64.79 64.39 64.15 63.74 63.90 64.54 65.28 66.21 67.10 67.73 68.02
72.00 71.46 71.65 71.46 71.75 71.02 71.24 71.21 70.91 70.94 69.70 68.02 68.88 69.18 70.86 70.76 70.17 70.49 70.95 71.79 73.31 72.23 69.31 67.81 67.15 66.26 65.32 64.83 63.57 61.96 59.82 59.39 59.92 60.66 61.94 63.38 65.10 66.40
72.46 72.36 72.72 72.12 71.23 71.63 71.93 71.74 71.80 70.99 70.31 69.40 68.70 69.04 69.71 71.04 70.61 70.42 69.67 69.83 71.18 73.01 72.21 70.21 69.01 70.08 68.99 67.43 67.36 66.41 62.69 60.10 59.03 58.57 58.16 58.60 60.39 62.26
72.24 72.91 73.35 73.08 71.39 70.72 72.40 71.80 71.74 71.04 70.71 70.26 69.63 69.56 70.03 70.34 69.64 70.07 69.22 69.63 70.10 71.09 71.13 72.17 74.23 74.03 74.60 71.88 72.31 66.67 61.97 60.41 59.29 58.85 58.11 57.26 56.73 57.48
71.87 72.09 72.56 71.75 71.02 68.83 68.42 69.55 72.10 72.24 71.66 70.77 71.07 71.07 70.45 69.28 69.38 68.99 68.32 67.35 67.66 71.69 71.69 73.08 73.53 73.17 74.88 74.46 66.43 62.73 61.07 60.23 59.29 58.51 57.48 56.73 56.51 56.77
72.93 72.95 72.76 74.53 71.46 72.99 68.41 66.57 66.75 67.40 69.40 72.73 71.39 70.89 69.58 70.64 69.84 68.97 69.19 68.34 69.17 72.44 72.05 72.61 71.94 72.64 73.91 74.12 63.34 61.26 60.04 58.69 58.08 57.24 56.73 55.49 53.94 53.21
73.80 73.90 73.38 73.45 72.57 72.21 72.31 72.05 71.79 71.25 69.00 68.45 69.47 71.23 71.65 72.16 71.50 71.96 71.10 70.00 71.83 73.64 73.35 69.24 72.66 72.26 73.25 70.89 62.68 61.01 59.40 58.11 57.27 56.82 56.31 54.71 52.63 51.68
72.35 72.94 73.80 73.35 68.88 64.89 71.97 71.19 71.54 72.19 69.55 64.32 65.16 64.70 63.95 63.46 66.71 69.62 70.27 69.15 69.29 70.04 70.82 71.75 71.63 70.84 70.34 69.15 66.34 60.79 58.46 56.78 55.93 56.01 56.11 54.31 51.89 51.98
71.84 72.41 66.29 71.19 65.10 62.85 70.72 71.78 70.90 71.52 70.70 70.57 70.62 66.43 63.98 67.37 63.99 68.20 71.22 69.47 69.40 68.99 72.32 72.41 70.21 69.33 67.87 68.41 63.81 61.73 60.32 56.36 54.87 54.22 54.04 53.34 51.59 55.02
71.06 71.14 72.06 62.84 60.66 59.39 61.48 72.58 71.20 71.85 70.01 69.88 70.70 71.38 72.00 72.35 72.28 70.34 69.30 69.93 68.50 69.36 72.60 72.84 70.21 68.90 67.96 65.79 63.52 60.23 58.77 57.19 56.80 55.95 53.50 52.16 51.24 52.52
72.44 71.76 71.44 61.38 58.14 58.53 59.26 62.12 60.45 62.09 69.57 70.35 70.46 71.18 71.16 70.71 71.31 71.51 72.86 71.41 72.55 73.87 75.34 74.14 71.95 69.72 64.42 60.70 60.62 60.49 57.55 55.92 54.98 55.19 55.32 53.51 52.83 52.83
74.42 70.54 63.37 59.20 57.42 58.57 57.89 59.51 58.47 63.90 66.69 67.54 68.71 69.98 70.83 71.45 71.08 72.18 74.06 74.35 74.46 74.40 73.63 72.64 72.02 65.78 63.34 61.27 59.62 55.87 55.10 55.42 54.36 53.33 55.41 54.49 54.03 54.60
68.05 71.25 67.45 64.32 62.81 65.07 64.48 62.27 63.41 65.85 67.20 67.94 68.70 69.68 69.19 70.16 71.57 72.81 72.18 72.35 71.68 67.30 66.79 65.98 65.90 64.24 61.63 59.81 57.93 55.41 54.78 54.06 53.21 52.45 53.13 54.85 54.34 54.56
68.81 71.73 67.53 66.40 67.66 66.99 67.57 67.93 63.82 63.36 65.05 66.95 67.01 67.80 69.49 70.78 71.75 72.18 72.65 72.18 69.65 64.78 63.97 62.08 57.70 57.88 57.75 58.90 55.87 54.82 54.24 52.89 52.66 53.97 51.61 53.60 53.43 53.85
64.42 70.92 70.68 70.84 69.72 70.62 70.48 70.08 69.76 66.21 67.37 67.89 69.51 70.41 71.09 71.80 72.14 72.18 72.34 68.97 64.48 64.18 63.96 64.25 58.53 58.83 57.45 56.57 57.36 55.22 54.03 53.13 54.23 53.74 51.97 52.97 52.50 53.35
71.52 70.59 71.34 71.21 71.26 71.29 71.59 71.44 70.70 71.61 70.87 70.38 71.04 71.80 72.35 72.22 69.85 70.78 68.02 64.91 63.85 63.07 63.73 63.42 62.45 61.16 58.60 57.41 55.83 53.06 54.78 54.11 52.97 54.01 53.28 53.49 52.54 52.40
70.54 71.93 70.95 71.81 71.61 71.67 71.88 71.77 71.71 71.19 72.70 72.45 72.77 73.22 72.81 71.93 69.58 68.77 66.92 64.31 62.78 63.04 62.40 61.67 61.76 61.89 60.49 58.92 57.40 53.84 48.40 54.05 52.81 53.21 52.70 53.30 52.94 54.00
68.00 71.38 71.07 69.65 69.24 69.45 70.35 70.71 71.02 71.29 71.94 73.06 73.15 72.84 71.84 70.42 68.88 67.14 65.41 59.29 60.49 62.12 61.11 60.72 62.21 60.24 61.31 59.41 56.65 53.16 52.25 49.67 52.60 53.03 52.16 52.36 50.91 52.02
67.48 68.50 69.42 70.06 65.65 65.86 66.60 66.52 65.98 68.41 70.24 70.85 70.26 69.15 68.20 67.46 65.78 64.32 63.82 62.71 61.94 62.12 61.85 61.58 61.42 61.46 60.41 59.46 56.90 54.75 51.38 50.52 50.71 52.30 54.19 53.75 51.37 49.57
68.13 67.91 67.55 64.90 64.56 65.81 65.76 65.67 64.02 64.89 65.80 67.05 66.71 65.20 65.00 64.02 64.43 64.92 64.26 64.06 63.52 62.63 61.26 60.40 60.33 60.42 60.01 59.15 57.10 56.03 52.21 50.16 50.08 49.60 50.86 52.84 53.22 53.28

GFSNE_sfc_wetblb_069.txt.gz
Wetbulb
70.65 69.90 69.40 69.56 68.02 67.07 65.89 63.74 61.90 59.08 60.12 63.42 64.77 67.18 68.59 67.71 68.50 67.81 67.98 69.17 69.11 68.53 67.67 67.18 67.53 68.09 68.47 68.96 69.61 69.89 69.98 70.16 70.20 70.45 70.80 71.26 71.93 72.13
70.84 70.45 69.39 69.20 68.64 67.89 69.33 66.20 64.57 62.17 60.79 63.00 64.83 65.81 68.96 70.40 70.48 70.11 70.30 70.43 69.39 68.31 67.48 66.88 67.13 67.69 67.85 68.07 67.92 67.98 68.26 68.46 68.69 68.84 69.03 69.33 69.78 70.70
69.77 69.49 69.45 69.52 69.45 68.59 69.31 69.88 67.65 65.11 63.30 65.02 64.85 68.38 68.14 67.74 70.33 70.41 71.26 71.09 71.01 69.31 68.59 67.95 67.23 66.90 67.13 67.17 66.86 66.84 66.95 67.00 67.04 67.36 67.86 68.26 68.76 69.03
70.60 69.30 69.61 71.32 70.00 69.76 69.09 69.07 68.86 67.92 66.49 65.31 65.71 67.35 68.09 69.97 70.60 70.76 72.31 72.76 71.90 71.46 68.66 67.26 66.60 66.21 65.57 65.17 64.66 64.23 63.10 63.00 63.09 63.38 64.23 65.37 66.60 67.73
71.19 70.32 70.05 70.19 70.16 70.19 69.54 69.61 70.10 70.49 68.53 67.27 68.69 68.60 69.77 69.97 70.14 70.76 70.76 71.18 71.95 71.29 68.72 68.41 67.76 67.23 66.67 64.79 63.19 60.82 59.52 59.78 59.58 59.99 60.57 61.01 61.97 63.70
71.29 71.38 71.53 71.15 70.39 70.43 70.44 70.72 70.57 69.99 69.47 68.66 67.94 67.92 68.62 70.23 69.92 69.61 70.62 69.93 70.16 72.31 71.48 70.27 68.79 69.77 68.72 65.26 63.11 61.93 59.28 57.95 57.21 57.49 57.47 57.77 58.63 59.84
71.38 71.72 71.86 71.94 70.72 70.20 71.13 70.16 69.98 69.45 69.14 68.71 68.39 68.37 68.64 69.12 69.20 69.07 68.30 69.25 70.10 70.21 70.81 72.55 72.85 73.77 72.89 67.67 64.88 63.16 60.38 58.74 57.29 56.79 55.83 55.27 54.59 54.77
71.17 71.21 71.95 71.27 70.50 68.14 67.58 68.13 70.72 70.48 69.49 68.91 69.48 69.41 69.67 69.16 68.75 68.24 67.27 66.45 67.11 70.13 70.94 72.20 73.28 72.43 73.10 64.59 63.07 61.10 59.43 58.58 57.89 57.15 55.93 55.08 54.61 54.30
71.48 71.38 71.15 73.03 70.50 72.11 68.54 66.69 66.78 66.60 68.16 71.29 70.72 70.30 70.23 70.01 68.75 67.43 67.43 67.42 67.47 70.81 71.50 71.84 71.12 70.90 72.07 63.06 61.39 60.12 58.71 57.76 57.21 56.47 55.68 54.96 53.67 52.92
72.05 71.93 71.57 71.70 71.35 71.71 71.78 71.46 70.97 70.83 69.15 69.27 70.53 72.52 72.00 72.25 70.06 70.50 69.46 69.05 70.13 71.86 73.20 71.22 70.71 72.06 68.69 62.72 61.04 59.75 58.07 57.15 56.19 55.50 55.22 53.66 51.94 51.39
71.80 72.22 72.49 72.35 68.41 64.64 71.43 70.93 70.86 71.41 68.63 63.93 64.69 64.53 63.60 63.18 64.57 69.00 68.21 67.85 67.78 69.50 70.24 70.64 71.77 71.95 69.57 66.20 62.05 59.49 56.92 55.72 54.72 54.79 54.69 53.46 51.27 51.86
72.03 71.75 65.62 69.89 64.50 61.97 69.64 71.20 70.21 71.04 71.05 70.42 69.74 66.23 63.94 66.48 62.75 67.25 69.65 69.03 68.39 67.38 70.44 71.69 71.42 70.10 67.54 66.97 61.56 59.41 57.79 55.16 54.12 53.11 54.20 52.81 50.91 55.39
71.28 71.40 71.87 62.34 60.20 58.72 60.27 71.68 70.41 71.07 69.86 69.62 69.73 69.40 69.81 70.37 70.75 68.82 69.00 70.36 68.66 68.60 71.05 73.96 71.78 68.78 67.83 65.62 62.78 59.52 56.49 54.87 53.89 53.52 53.61 51.56 50.96 52.17
71.35 71.92 71.28 60.57 57.75 57.61 58.78 61.45 60.64 60.76 69.93 69.18 68.51 69.93 69.86 70.74 71.74 71.76 71.35 70.18 71.49 71.75 73.50 73.04 72.53 69.28 65.77 60.75 60.33 60.02 56.31 54.79 53.40 52.76 54.92 53.28 52.57 52.63
73.02 69.76 63.65 58.62 56.77 57.57 57.49 59.31 58.66 65.10 68.17 66.22 68.18 68.74 69.47 70.57 70.50 69.83 70.62 71.71 73.95 73.58 73.96 74.09 72.29 67.31 63.98 60.56 59.58 56.93 55.31 55.27 53.30 51.73 52.74 53.89 53.66 54.44
67.43 69.91 67.77 64.40 62.17 64.44 62.93 60.89 63.51 66.13 66.50 66.78 67.33 68.35 68.62 67.76 68.44 69.43 70.06 71.33 72.76 70.07 65.11 62.83 67.20 64.77 61.21 59.71 58.77 55.81 54.63 54.49 53.21 55.07 52.23 54.18 53.44 54.41
68.20 70.75 71.69 69.05 70.38 68.41 67.00 67.77 66.37 65.16 65.22 66.64 66.93 67.07 66.70 67.13 68.57 70.22 71.62 72.03 71.70 66.68 64.28 60.04 57.75 58.61 58.80 58.53 56.25 55.13 54.15 52.94 52.03 51.55 50.51 52.90 52.98 53.74
65.85 70.73 70.90 71.19 70.69 70.73 70.98 69.52 68.62 65.77 65.57 65.77 66.19 66.55 66.84 67.63 68.60 70.18 71.58 72.01 71.18 67.76 63.62 61.65 57.99 58.51 58.27 57.09 57.82 55.31 53.96 53.02 52.23 52.16 52.36 52.68 51.68 53.30
70.70 70.89 71.13 71.59 71.24 71.30 70.80 70.81 70.16 69.90 69.49 68.08 68.03 68.55 69.05 69.36 68.91 70.63 71.18 68.89 66.69 65.38 64.13 62.48 59.50 60.28 58.06 57.59 56.53 54.40 55.55 53.72 52.19 54.52 53.68 53.45 52.28 52.51
71.01 71.24 71.35 71.34 71.56 71.34 71.20 70.94 71.18 71.04 70.49 70.80 69.90 70.12 70.35 70.66 70.81 71.01 70.43 67.65 64.13 63.34 62.04 61.67 61.82 61.97 60.26 58.93 58.29 54.93 48.93 54.18 52.81 53.64 53.23 53.19 53.19 53.94
67.08 70.77 71.70 72.05 71.91 71.44 70.50 71.20 71.42 71.13 70.72 71.28 71.08 71.04 70.27 69.59 70.50 70.13 69.30 59.89 60.95 62.63 61.84 61.32 63.21 60.40 59.88 58.49 57.09 54.63 52.91 48.40 51.63 53.20 53.22 53.08 52.19 52.29
68.33 68.44 70.74 70.95 70.92 71.15 69.59 68.64 68.51 66.90 64.26 62.76 62.85 63.13 63.11 63.28 62.95 64.42 67.29 65.32 63.27 62.92 62.37 61.90 61.32 60.37 59.32 59.11 57.41 55.12 52.88 50.85 50.94 52.40 53.30 53.42 51.69 50.72
67.42 68.12 69.37 68.44 65.97 66.11 65.93 64.58 64.22 63.07 64.02 63.81 64.06 63.68 63.68 63.39 63.89 64.33 63.71 65.03 64.31 63.06 62.22 61.23 60.93 60.87 59.36 58.86 57.27 55.91 52.96 50.94 50.77 50.91 52.00 53.29 53.90 53.73

GFSNE_sfc_wetblb_072.txt.gz
Wetbulb
72.94 72.82 71.99 72.43 71.03 70.17 70.33 67.61 67.51 65.59 65.99 68.88 69.61 71.83 72.84 73.70 73.21 73.88 73.86 71.00 69.12 68.76 67.73 67.66 67.81 68.41 69.01 69.30 69.37 69.43 69.82 69.95 69.89 70.03 70.14 70.72 71.57 72.65
72.71 72.85 72.62 71.95 71.79 70.63 71.66 69.73 68.36 67.32 66.45 67.76 69.71 70.38 72.75 73.31 74.15 75.15 74.66 70.82 70.18 68.72 68.09 67.57 67.53 68.12 68.63 68.57 68.42 68.49 68.56 68.61 68.65 68.50 68.72 68.92 69.43 70.14
72.63 72.55 72.38 72.37 71.81 71.42 71.46 72.33 70.77 68.80 68.50 70.41 69.07 72.14 72.94 74.10 75.61 75.57 75.66 76.05 75.78 70.11 68.73 67.82 66.74 66.99 67.26 67.25 66.83 66.62 66.04 65.67 65.60 65.60 65.98 66.42 67.49 68.50
72.57 72.31 72.15 72.03 72.56 72.74 71.84 72.10 72.04 71.64 70.38 70.06 71.06 71.89 73.10 74.68 74.74 75.32 75.42 75.90 75.65 71.89 68.17 67.09 66.67 66.64 65.66 64.98 63.65 62.60 62.13 62.14 62.20 62.24 62.68 63.37 63.86 64.95
72.66 72.53 72.64 72.46 72.44 72.86 72.94 72.24 72.17 72.70 72.02 70.96 71.63 72.68 73.10 73.56 74.63 75.48 75.56 76.08 74.70 71.74 68.99 68.26 68.00 66.93 65.14 62.02 60.94 59.47 58.02 57.97 58.29 58.48 58.53 58.88 59.85 61.16
73.28 73.36 73.51 73.01 73.02 73.25 72.87 73.29 73.29 73.09 73.17 72.27 71.81 71.85 72.31 74.05 73.62 72.82 73.84 75.27 73.50 74.79 72.97 70.67 68.84 69.21 64.25 62.01 61.87 60.47 57.86 56.81 56.45 56.47 56.33 55.21 55.53 56.35
73.48 73.51 73.47 73.16 70.63 71.59 73.50 73.95 73.44 72.45 72.20 72.08 72.08 72.08 72.73 73.19 73.23 74.00 72.49 72.43 74.12 74.10 74.41 75.92 76.03 76.71 72.68 64.58 63.91 61.45 59.45 58.14 56.79 55.91 55.01 55.04 55.57 55.81
72.97 73.42 74.04 71.62 71.13 67.76 67.18 67.83 72.11 73.61 73.08 72.84 72.94 71.90 73.32 72.98 74.04 72.84 72.06 71.88 70.78 74.80 74.10 74.32 76.33 75.62 72.97 67.47 61.45 60.22 59.10 57.93 56.74 55.95 55.92 55.57 54.45 54.42
73.42 73.61 73.08 73.57 71.44 73.95 68.97 66.42 66.69 65.84 68.46 74.48 73.12 73.47 73.40 74.64 74.51 73.53 72.73 71.33 71.59 73.82 74.02 73.00 75.78 74.50 69.26 64.73 60.65 59.73 58.24 56.82 56.13 55.83 55.19 54.58 53.30 52.79
73.48 73.24 73.24 73.60 73.34 73.42 73.57 73.55 73.70 73.80 72.63 71.32 72.24 73.87 75.22 75.70 74.96 74.72 73.55 72.84 73.42 74.09 74.86 72.02 75.09 74.05 67.56 65.77 60.29 59.00 57.81 56.40 55.65 55.14 54.80 53.64 51.80 51.28
73.58 73.75 73.67 73.30 68.37 64.41 73.29 73.07 73.41 73.84 69.65 64.19 65.40 65.60 64.61 63.52 67.50 72.44 71.29 70.80 71.29 72.53 74.77 73.65 74.03 74.62 71.20 68.45 64.89 59.16 56.72 55.31 54.54 54.68 54.96 53.25 51.37 51.70
72.76 73.18 65.71 71.13 63.96 61.56 71.91 73.10 72.35 72.85 73.90 74.27 73.32 68.32 64.82 68.51 62.07 69.97 72.29 71.06 72.11 71.44 74.89 73.25 75.22 73.61 72.64 72.17 67.67 65.44 63.60 55.29 54.12 53.35 53.39 52.46 50.81 57.22
70.67 71.14 73.16 62.06 60.07 57.89 61.26 73.27 71.83 72.78 71.65 73.03 73.67 73.59 73.54 73.25 73.04 70.94 71.89 72.44 72.57 72.53 75.07 75.34 74.63 73.17 71.70 72.11 70.35 66.65 63.68 61.29 60.28 58.29 53.58 51.56 51.00 52.63
71.10 72.03 72.03 59.86 57.83 57.45 58.69 61.56 60.56 61.65 71.91 72.89 72.69 71.91 72.09 72.26 73.70 74.42 74.60 73.52 74.42 75.27 76.61 76.27 72.99 73.54 72.43 69.37 68.99 66.74 63.83 62.02 60.55 58.87 57.63 54.01 53.30 53.34
72.47 69.14 62.93 57.84 56.49 58.44 57.67 58.81 57.85 66.22 69.34 70.14 70.51 71.30 72.47 73.57 74.47 73.75 74.30 74.80 74.57 74.27 73.64 73.65 73.35 73.77 72.11 68.84 67.79 66.04 63.24 63.05 60.75 58.99 57.60 55.90 55.17 56.13
66.43 69.52 67.58 65.29 63.17 66.32 65.75 62.52 65.71 68.46 68.89 69.36 70.28 71.40 72.51 71.60 71.43 72.53 72.01 73.59 72.41 73.55 69.74 66.59 68.88 72.39 68.17 67.60 66.16 65.41 63.17 64.08 61.30 58.89 58.73 56.69 56.41 56.06
66.95 70.80 71.68 71.64 71.29 70.78 70.18 70.70 68.96 68.39 67.95 69.12 69.77 69.93 70.19 70.65 70.59 72.11 71.91 72.45 72.04 72.58 70.85 63.06 62.21 66.30 66.55 66.68 64.69 63.77 63.33 62.55 60.91 59.35 58.92 57.00 56.32 56.08
66.22 69.91 70.01 70.91 71.20 70.97 70.73 71.34 71.28 68.71 70.08 70.34 70.00 70.30 69.94 70.00 70.07 71.02 71.62 72.17 72.17 72.67 71.92 66.95 62.38 63.45 63.75 63.50 62.21 64.17 61.53 61.98 60.68 58.92 57.08 56.74 56.12 56.18
70.91 70.20 70.61 71.36 71.40 70.86 71.20 71.46 72.26 71.92 72.00 71.02 70.32 70.26 69.77 70.22 68.73 70.49 71.97 71.59 72.05 72.61 71.69 65.09 62.87 63.29 62.96 63.95 64.52 56.53 63.17 61.27 58.97 58.48 57.20 55.95 55.37 55.13
71.54 71.88 71.93 71.92 72.15 71.97 71.69 71.73 72.25 73.46 72.25 71.22 70.32 70.22 70.31 70.34 70.22 70.93 71.66 71.97 71.46 71.13 68.60 66.08 64.58 63.52 65.31 65.55 65.64 63.00 50.56 61.24 60.25 59.37 56.88 55.61 55.55 54.08
68.13 71.64 72.96 73.58 73.09 72.17 72.48 73.07 73.33 73.12 73.16 72.57 72.41 72.33 72.08 71.30 70.40 70.87 71.45 63.27 65.11 68.04 66.80 65.31 66.20 62.50 64.22 63.72 63.47 62.69 59.71 49.71 56.30 60.61 57.56 56.34 55.61 55.59
71.45 70.37 71.72 72.83 72.83 72.88 72.38 72.34 72.86 72.34 72.56 72.73 72.98 72.67 70.77 70.60 70.13 69.81 69.52 67.72 65.98 67.05 66.87 66.21 64.32 63.31 63.08 64.17 64.19 63.21 60.75 57.68 52.60 52.30 54.99 56.50 57.28 56.59
72.41 71.73 71.26 71.53 72.45 72.57 72.26 72.10 72.27 72.69 72.18 70.86 67.92 67.00 67.23 65.44 65.59 65.48 64.28 63.23 64.92 65.27 64.95 63.81 62.65 63.00 63.37 62.99 62.10 61.62 60.96 59.35 58.33 57.71 58.39 53.68 53.84 54.06

GFSNE_sfc_wetblb_075.txt.gz
Wetbulb
76.47 76.30 75.77 76.31 75.93 75.67 75.52 74.73 71.69 68.02 69.02 72.89 72.68 76.16 76.68 77.44 76.99 78.56 78.30 72.51 70.19 69.34 68.68 68.01 68.42 68.98 69.69 70.28 70.10 69.96 70.00 69.92 69.94 69.79 69.90 70.10 70.68 71.54
75.79 76.45 76.35 75.67 75.65 75.55 74.89 74.98 74.37 72.68 69.19 74.11 74.22 75.70 77.26 77.54 77.21 78.57 78.46 73.27 72.26 70.14 68.89 67.76 67.55 68.20 68.87 69.17 68.66 68.25 68.05 67.86 67.35 67.35 67.26 67.73 68.16 69.18
76.58 76.34 76.34 77.16 74.94 74.95 74.95 75.08 74.68 74.06 71.05 72.14 75.17 76.72 77.53 78.07 78.30 79.17 78.06 78.23 77.22 70.76 68.95 67.42 66.69 67.14 67.63 67.16 66.20 65.89 65.56 64.89 64.54 64.27 64.49 64.76 65.16 65.91
75.75 76.22 75.74 75.57 76.38 76.59 75.61 76.09 75.24 75.98 73.83 73.47 75.63 75.36 76.61 77.94 78.48 78.68 77.68 77.24 78.48 72.71 68.69 67.19 66.84 66.38 65.28 63.73 62.97 62.02 61.32 61.36 60.59 60.28 60.21 60.46 60.90 61.65
76.05 76.00 75.83 76.25 76.05 75.71 76.22 75.71 75.59 76.01 75.95 74.72 74.24 75.87 76.28 77.01 77.09 78.17 78.15 78.50 77.55 72.86 69.70 69.26 68.44 66.51 63.28 61.71 60.44 58.78 57.73 57.77 57.76 57.73 57.24 57.22 58.35 59.12
76.78 76.44 76.44 76.22 76.26 76.84 76.61 76.87 76.55 76.00 75.95 75.17 74.08 74.18 75.17 76.94 76.75 74.67 74.32 76.13 76.27 77.46 75.10 72.12 70.15 66.40 63.33 61.56 61.29 60.09 57.75 56.87 56.15 56.11 56.05 56.54 57.79 57.96
76.94 76.78 76.77 75.67 72.11 73.26 75.59 76.72 76.82 75.56 74.80 74.38 73.64 73.82 73.66 73.72 73.95 74.66 73.98 75.17 76.95 77.58 76.85 76.17 76.87 78.47 73.29 64.49 64.04 61.13 59.05 57.71 56.27 55.69 55.54 54.85 54.87 55.37
76.38 76.81 77.11 73.30 72.49 68.09 67.65 68.44 72.88 75.97 75.22 73.72 72.82 72.76 75.16 75.30 74.64 74.38 74.06 73.48 71.83 76.98 76.24 74.95 77.06 77.60 78.89 76.37 61.11 59.87 58.42 57.01 56.50 56.11 55.44 54.96 54.96 54.73
76.91 76.81 76.50 76.01 74.19 77.03 69.46 66.56 66.96 66.00 68.32 75.86 74.98 74.76 75.26 76.08 76.55 75.96 75.63 75.00 74.11 75.20 76.47 74.03 76.58 76.97 79.53 68.86 60.53 59.45 57.90 56.79 55.99 55.63 55.46 54.72 53.60 53.07
77.08 77.11 77.00 77.23 76.87 76.42 76.73 76.35 76.45 76.82 75.66 74.03 75.02 76.00 76.95 77.64 77.91 77.50 76.80 76.43 76.28 76.09 78.27 73.18 75.97 76.63 79.15 74.41 60.25 59.60 58.02 56.70 55.83 55.20 54.88 53.36 51.88 51.48
77.03 77.08 77.45 77.23 71.20 65.47 75.52 75.61 76.03 76.18 70.84 65.91 66.29 65.69 65.71 64.68 68.93 75.72 74.45 73.54 72.19 73.16 76.12 74.98 75.52 76.57 77.89 77.13 70.06 59.19 57.51 56.03 55.16 54.70 54.72 53.26 51.47 51.77
75.47 76.60 66.88 73.34 65.68 62.02 74.15 75.30 74.82 75.20 75.52 75.44 76.05 71.36 66.96 71.83 62.84 73.40 75.39 73.38 72.91 71.98 75.77 74.51 74.53 75.76 74.19 78.28 75.77 70.07 67.78 56.03 55.14 54.45 54.03 52.57 51.03 62.44
73.07 73.51 73.98 62.65 61.14 58.26 61.93 75.88 74.93 75.11 72.93 75.35 74.81 74.72 75.76 76.68 76.91 75.19 76.16 75.36 73.80 73.10 74.79 76.62 74.84 75.32 75.73 74.92 75.97 74.58 72.06 69.76 68.50 64.93 54.08 52.07 51.41 54.05
73.84 74.29 74.30 60.25 57.65 57.46 59.81 64.12 61.36 63.63 74.42 73.73 73.07 73.06 73.57 74.39 75.40 76.44 78.20 77.50 77.27 76.50 78.35 78.23 75.31 75.11 75.09 74.61 73.93 73.21 70.90 70.10 68.73 66.57 64.70 56.86 53.62 53.64
74.20 71.12 63.42 56.91 55.97 59.37 57.70 59.80 58.78 71.75 73.01 72.41 72.52 73.05 73.99 74.87 77.05 76.69 77.50 78.10 77.74 77.75 77.14 78.13 77.02 76.60 75.72 74.89 74.46 72.02 70.07 69.91 68.58 66.52 65.73 63.29 61.17 60.10
66.78 71.52 69.01 66.39 64.11 68.33 68.77 64.24 70.52 73.24 72.96 72.88 73.28 74.17 74.86 74.66 74.55 75.61 74.82 74.91 74.62 75.24 77.79 77.70 76.92 75.84 73.60 74.40 74.68 71.64 71.58 69.22 67.95 67.86 66.36 65.50 63.41 61.90
68.99 72.43 72.77 72.85 72.85 73.10 73.20 74.25 74.31 73.65 72.78 73.51 74.01 73.91 73.84 74.24 74.30 75.17 74.87 74.50 73.65 73.60 74.43 74.61 73.30 74.72 75.53 74.17 71.28 71.37 71.37 69.01 68.31 67.32 65.78 65.36 64.30 61.57
67.79 72.16 72.54 73.31 72.74 72.23 72.14 72.45 73.11 71.57 74.17 74.16 74.02 73.95 73.61 73.64 73.74 74.58 74.82 74.42 73.51 73.81 74.20 75.13 71.88 70.57 69.69 69.89 67.41 71.87 70.28 69.25 67.48 65.46 64.26 64.05 64.83 62.75
70.88 72.62 72.20 71.90 71.84 72.01 72.84 73.38 73.08 73.37 74.86 74.69 73.99 73.87 73.67 73.95 73.01 73.62 73.92 74.28 73.81 74.04 74.46 75.02 72.63 71.68 70.46 69.98 70.24 56.53 70.01 68.93 66.85 64.65 64.19 63.74 63.92 62.31
71.76 71.74 72.38 72.12 73.13 73.76 73.90 74.18 74.86 73.51 73.20 74.11 74.31 73.88 74.02 73.65 73.28 73.46 73.84 73.80 74.09 74.17 74.13 75.14 73.06 71.07 72.06 72.67 71.51 70.08 52.22 69.50 67.30 66.52 63.93 62.61 60.06 54.13
68.90 71.75 73.50 74.27 73.60 73.84 75.18 75.59 75.15 74.04 72.53 73.18 74.20 74.58 74.45 74.23 73.91 74.44 74.73 64.60 68.17 74.00 72.49 72.21 73.54 66.56 74.50 69.92 67.87 66.53 64.89 51.65 59.32 67.36 65.53 63.23 60.88 60.24
74.34 73.13 74.39 75.49 74.92 74.52 74.75 74.73 75.34 74.79 73.34 72.85 73.06 73.11 73.43 73.57 73.41 73.42 73.25 72.70 71.44 71.65 71.24 73.01 72.42 70.66 70.23 68.52 67.35 69.24 66.52 62.90 54.21 53.01 54.76 58.99 62.85 61.14
75.31 75.33 75.49 75.42 75.21 75.27 75.07 74.35 73.90 74.22 73.87 73.35 73.74 73.84 73.36 73.05 73.30 73.45 71.84 70.49 70.06 69.34 69.69 69.33 67.88 67.48 66.31 66.67 65.49 69.11 64.65 62.72 62.20 61.38 62.19 54.84 54.52 54.68

GFSNE_sfc_wetblb_078.txt.gz
Wetbulb
76.53 76.22 75.44 75.07 75.88 76.71 76.14 75.03 72.07 69.29 71.21 74.07 73.69 77.27 77.12 77.49 77.13 78.61 78.89 73.39 72.04 70.89 69.29 68.37 68.57 69.45 70.30 70.84 70.50 69.76 69.68 69.12 68.83 68.45 68.27 68.34 68.69 69.71
75.92 76.54 76.97 75.27 75.79 75.76 75.39 75.22 74.80 72.51 69.76 73.10 74.84 76.42 78.49 78.30 78.05 79.03 78.61 74.05 74.72 71.82 69.16 68.14 68.36 69.03 69.52 69.32 68.53 68.13 67.26 66.61 65.85 65.50 65.19 64.93 64.96 65.47
77.12 76.93 77.15 77.79 75.64 74.67 75.18 74.75 74.25 74.19 71.79 72.59 74.51 76.63 78.50 78.66 78.87 79.69 78.72 78.30 76.44 70.99 69.75 68.22 68.01 67.93 68.16 67.48 66.36 65.36 64.46 63.45 62.57 62.20 62.31 62.02 62.09 62.24
76.68 77.11 76.59 75.94 77.20 77.14 75.47 76.85 76.62 76.26 73.96 74.39 76.55 74.84 77.44 78.68 78.90 79.17 77.67 77.35 78.06 72.71 69.90 68.77 68.02 67.64 65.08 64.35 63.15 62.17 61.14 60.24 59.79 59.33 59.28 59.82 60.81 61.50
76.73 76.96 76.71 76.80 76.64 75.73 76.56 75.36 75.47 75.71 75.65 74.13 73.64 74.82 75.94 77.25 77.80 79.17 78.44 78.97 76.63 72.90 69.56 68.78 68.31 66.21 63.65 61.74 60.53 59.10 57.77 57.65 57.47 57.35 57.84 58.49 59.43 60.32
77.96 77.96 77.71 76.63 76.82 77.40 77.17 77.48 77.29 76.41 76.63 74.40 73.83 74.07 74.89 77.49 77.04 74.71 73.42 74.66 75.03 76.45 75.32 72.44 69.56 65.94 63.21 61.11 60.81 59.84 57.66 57.02 56.66 56.47 56.53 56.04 56.54 57.41
78.22 78.54 78.28 76.63 72.40 73.42 75.73 78.54 78.47 76.12 74.78 73.80 73.36 73.89 73.62 73.79 75.15 74.08 73.29 73.88 76.33 75.87 75.87 76.19 75.48 76.16 68.97 63.49 64.48 60.89 58.62 57.51 56.86 56.09 55.56 55.22 55.68 56.22
77.61 78.12 78.70 74.45 73.75 68.91 68.60 68.81 72.42 76.66 75.86 73.18 71.91 72.50 76.45 75.42 74.73 73.55 73.31 72.43 71.10 75.57 75.87 73.81 75.54 75.04 78.47 79.86 62.99 60.14 58.40 57.23 56.85 56.23 55.86 55.12 54.84 55.18
77.88 77.55 77.10 76.59 75.41 77.90 70.19 67.50 67.77 66.37 67.99 76.32 75.58 75.64 76.35 76.84 77.61 76.33 77.39 75.29 74.45 75.19 75.93 73.50 75.78 74.93 78.10 66.80 60.82 59.67 58.11 56.80 56.41 56.19 55.56 54.63 53.76 53.20
77.90 78.12 78.35 78.41 77.39 76.75 77.33 77.04 77.56 77.60 76.55 75.34 75.72 76.43 77.89 78.46 78.56 78.43 78.11 77.78 77.31 76.66 78.93 72.46 75.37 74.41 77.82 74.46 60.92 60.11 58.77 57.10 56.55 55.73 55.07 53.85 52.34 51.04
77.45 78.48 79.02 78.99 72.26 65.41 76.84 77.41 77.18 77.52 70.85 66.63 67.32 66.50 64.77 64.19 68.97 76.03 74.03 73.03 71.48 72.15 75.13 72.96 73.54 74.10 76.26 77.45 67.43 60.21 58.40 57.36 56.40 55.54 55.18 53.71 52.15 51.75
76.72 78.04 67.92 74.42 66.33 63.11 76.77 77.57 76.47 76.93 75.20 75.45 76.19 72.44 68.63 73.51 64.59 74.88 75.84 73.34 72.36 71.14 75.88 73.43 73.03 73.40 72.77 76.95 78.62 66.75 66.85 56.75 55.56 55.87 54.51 53.23 52.15 65.78
74.15 74.61 75.35 63.31 61.60 59.31 61.91 77.82 75.57 76.12 73.34 74.68 74.32 74.33 74.94 75.37 76.78 77.03 77.63 76.06 73.35 72.00 73.38 75.69 73.80 73.68 73.89 74.10 76.96 79.46 77.29 66.23 70.10 61.86 52.75 52.33 52.46 55.43
74.96 75.36 76.05 61.13 57.60 58.59 61.50 64.75 61.25 63.37 73.49 71.39 70.94 71.22 71.87 72.74 73.37 76.02 80.48 79.72 78.60 79.13 79.95 80.72 75.25 73.75 73.69 73.63 73.74 76.83 76.10 74.63 72.91 72.10 71.08 57.56 53.42 53.09
75.47 72.02 62.53 57.27 54.61 58.34 57.48 59.33 59.70 72.40 72.61 72.15 71.43 71.98 72.65 73.46 77.22 78.00 80.55 81.76 81.09 80.12 78.95 79.60 77.87 78.25 76.22 74.64 74.19 75.34 75.48 75.46 73.23 71.63 71.64 69.95 68.18 67.56
66.69 70.63 69.72 66.57 62.72 67.86 70.26 65.90 71.20 73.68 73.29 73.28 72.83 72.98 74.24 73.75 73.69 74.71 74.27 74.55 74.77 75.60 80.23 80.08 80.47 79.14 76.25 76.12 75.74 75.62 76.48 73.88 73.48 72.19 71.15 69.53 68.18 68.23
70.13 74.15 73.87 73.90 74.02 74.72 75.14 75.43 75.61 74.69 73.45 74.20 74.22 74.05 74.31 74.39 74.24 74.90 74.28 74.09 72.99 73.37 74.09 76.51 79.80 79.48 76.98 77.78 75.18 76.64 75.74 75.42 75.02 73.21 70.04 69.33 68.69 67.98
70.73 73.23 74.04 74.67 74.70 75.10 75.11 75.52 75.60 73.55 75.60 75.17 74.75 74.49 74.01 74.02 73.95 74.31 74.43 73.46 73.10 73.72 74.17 74.90 76.27 75.40 73.88 75.64 73.29 76.23 75.60 74.92 75.17 72.46 70.41 68.41 67.76 67.04
72.27 73.02 74.05 74.69 75.43 75.47 75.27 74.96 75.06 75.93 77.86 76.30 76.16 75.49 74.87 74.50 73.26 73.35 73.44 73.63 73.74 74.18 74.71 75.77 75.01 74.92 72.07 70.56 74.33 65.29 75.43 75.24 73.79 71.10 69.96 68.78 67.37 67.63
71.38 72.86 73.94 74.96 74.98 74.44 74.01 75.05 75.23 75.71 75.96 76.22 75.33 75.58 75.98 74.81 73.80 73.67 73.71 74.34 73.97 74.75 74.91 75.74 75.42 75.46 74.06 72.36 71.66 74.84 55.67 75.11 73.28 70.95 69.64 68.70 62.55 54.30
70.09 72.33 74.28 74.67 75.41 75.74 76.11 76.39 77.13 76.62 76.88 76.74 75.89 76.13 76.26 75.38 74.53 74.33 74.32 65.28 68.76 74.95 74.61 75.33 76.63 68.06 78.34 76.87 72.95 73.99 71.47 53.24 61.11 72.08 71.28 66.68 64.07 63.61
72.80 73.20 73.81 75.14 76.04 76.13 76.41 76.61 77.01 75.93 77.16 76.52 76.29 75.87 76.15 75.55 75.67 75.37 75.43 75.08 75.80 75.53 75.58 77.22 77.22 75.62 72.76 72.54 71.97 73.57 70.85 66.82 59.39 57.02 55.52 58.76 65.44 62.79
71.43 73.63 75.03 75.88 75.91 76.97 77.93 77.98 76.36 76.81 76.11 75.45 75.82 76.07 75.77 74.00 74.18 73.96 73.98 74.46 74.05 73.92 74.28 73.96 72.57 72.13 70.25 70.43 69.06 70.12 69.29 65.62 67.19 66.80 66.13 54.88 54.89 55.14

GFSNE_sfc_wetblb_081.txt.gz
Wetbulb
76.98 77.05 75.91 74.82 73.65 74.13 73.95 73.38 72.26 69.68 71.64 74.03 72.67 77.93 77.28 77.28 77.00 78.77 79.19 74.06 72.42 72.26 70.30 69.63 69.21 70.04 70.85 71.13 69.92 69.78 68.79 67.80 67.00 66.37 66.12 65.86 66.10 67.16
74.88 78.71 78.11 74.85 75.24 74.17 74.13 73.99 73.62 71.98 69.73 72.94 73.74 76.57 78.08 78.21 78.21 79.15 78.63 74.44 73.97 73.70 70.05 70.13 69.81 70.08 70.14 69.38 68.43 67.51 66.21 65.40 64.71 64.22 63.80 63.34 63.54 63.89
77.35 77.24 77.50 79.57 75.42 74.39 74.04 73.67 73.33 73.41 71.23 72.70 74.76 77.28 80.01 80.30 79.99 80.33 79.04 79.92 77.25 72.28 69.93 69.96 69.67 69.36 68.52 67.84 66.16 65.09 63.75 62.81 62.25 62.10 61.95 62.17 62.54 62.93
76.44 77.37 76.16 75.48 78.77 78.94 75.65 79.35 76.52 77.81 74.01 75.77 75.97 74.47 78.24 80.92 81.21 81.65 78.70 77.47 78.29 73.01 70.05 69.27 69.19 68.39 66.16 64.98 63.83 62.69 61.03 60.23 59.85 59.56 59.66 60.20 61.09 61.55
77.17 76.95 76.57 77.23 78.46 76.49 78.16 75.44 74.83 75.74 76.02 74.40 73.88 74.68 75.49 76.30 77.63 80.36 80.94 79.57 77.27 72.48 70.62 69.18 68.83 67.41 64.35 62.54 61.21 59.70 58.40 57.73 57.87 57.87 57.71 57.57 57.77 58.85
77.85 78.34 77.83 77.58 78.43 78.69 77.32 78.85 77.47 76.15 75.54 73.52 72.77 73.80 75.03 78.51 76.67 75.43 74.63 75.10 74.87 74.87 75.03 73.68 71.90 67.18 63.51 61.40 60.72 59.74 57.67 57.66 57.11 56.94 56.57 56.61 57.62 57.82
78.31 78.78 79.08 77.10 73.02 74.74 75.53 78.02 79.20 76.87 74.11 72.77 72.48 73.16 73.23 73.93 75.31 74.79 73.84 74.31 76.60 74.91 73.97 74.82 74.37 73.69 68.48 62.66 64.67 62.34 59.69 58.03 57.48 56.62 56.27 55.43 55.21 56.26
78.13 78.79 79.41 75.01 74.21 69.04 68.52 68.85 72.69 77.40 78.34 73.92 72.49 72.02 77.02 75.27 73.93 72.97 73.51 72.16 70.93 76.35 75.07 74.01 75.47 74.64 75.75 73.52 67.80 61.92 59.70 58.23 57.29 56.75 56.37 55.37 55.09 55.13
79.32 79.09 78.08 76.01 75.60 79.05 70.61 68.30 68.75 67.08 68.02 76.46 76.80 76.80 76.49 78.47 79.09 78.88 76.94 76.38 74.35 75.47 76.02 73.31 75.64 74.44 75.79 70.17 61.89 60.38 59.40 58.14 56.90 56.65 56.15 55.43 54.39 53.01
78.31 79.62 79.68 79.08 79.08 78.25 78.98 78.34 77.62 78.00 77.21 74.75 75.50 76.82 78.39 79.40 79.43 78.62 79.39 79.24 78.13 78.11 79.00 73.27 75.08 74.36 75.75 74.95 61.42 60.27 59.13 58.18 57.27 56.29 55.66 54.54 52.98 51.60
77.58 78.21 78.23 79.07 73.15 67.34 77.71 78.08 78.62 78.67 71.41 68.07 69.29 68.89 68.41 66.77 69.88 75.27 73.29 72.66 71.56 72.26 75.05 72.89 73.54 74.00 74.86 75.24 66.96 60.21 58.32 57.37 57.26 56.92 56.10 54.72 52.77 52.37
77.16 77.59 68.34 73.33 66.82 63.66 77.08 77.57 76.85 77.49 78.79 77.12 75.83 72.39 68.77 73.18 64.89 73.79 74.79 72.08 71.67 71.47 74.73 72.71 72.63 73.45 72.11 74.94 73.40 66.03 63.83 56.59 55.47 56.90 55.37 54.36 53.05 66.90
75.29 75.37 76.64 63.96 61.84 61.01 60.99 77.85 76.13 77.06 75.74 77.03 76.60 76.25 75.81 77.04 77.50 77.44 77.68 75.77 73.10 72.85 74.62 74.68 73.34 73.26 72.95 72.68 74.28 72.65 72.48 66.09 65.80 60.87 53.32 52.71 53.35 55.80
75.64 76.09 76.41 61.50 58.07 58.79 61.69 65.05 62.15 65.00 75.87 75.07 74.14 72.88 72.42 72.76 74.03 75.37 79.16 79.19 78.40 77.27 78.73 79.92 75.76 75.10 73.59 72.16 71.53 75.06 78.52 74.77 74.55 73.25 67.15 58.57 52.96 53.72
76.18 72.69 59.94 57.86 54.62 57.45 57.04 58.45 59.21 72.11 73.69 73.74 73.97 74.30 74.32 73.86 75.03 76.55 78.22 82.42 80.90 81.00 79.57 80.90 78.50 77.99 76.71 74.29 73.17 74.41 74.19 76.66 75.39 74.40 73.46 72.21 69.94 67.95
67.56 72.41 70.21 66.32 60.15 65.01 69.28 65.40 70.66 74.01 74.03 74.21 74.32 75.41 75.48 74.74 73.97 74.86 73.99 74.15 74.17 75.52 79.88 80.35 80.41 80.41 76.46 76.34 76.15 75.24 76.31 74.47 76.56 75.05 73.54 72.93 70.69 69.19
59.16 70.32 74.99 74.75 74.29 75.11 75.97 76.44 76.95 75.68 74.19 74.50 74.70 74.90 75.00 75.03 74.44 75.43 74.98 74.70 73.77 73.93 74.44 76.47 80.64 81.10 79.48 78.57 75.30 76.34 76.22 76.06 77.46 74.07 74.05 72.11 72.33 70.06
60.64 70.45 74.18 74.73 74.99 75.42 75.78 76.34 76.92 74.53 77.19 76.50 75.49 75.08 74.65 74.90 75.05 75.67 75.63 75.17 74.07 74.53 74.56 75.22 75.73 76.61 77.16 78.36 73.90 75.60 76.42 76.28 76.91 74.21 74.36 71.80 71.47 71.00
63.87 67.63 72.48 74.07 73.89 75.65 75.02 74.91 74.91 76.03 77.65 76.20 75.24 76.87 75.46 75.92 74.23 74.47 74.81 75.22 74.61 74.70 74.85 75.73 75.43 74.64 73.08 72.38 76.25 69.00 75.52 76.14 76.06 72.14 73.53 72.21 70.68 71.59
65.60 67.00 72.79 73.73 73.90 74.40 76.09 75.60 75.40 76.74 77.14 77.25 77.11 76.89 76.99 76.24 75.84 76.11 75.51 74.88 74.35 74.67 74.90 75.99 75.58 73.76 72.23 73.77 74.39 76.64 61.76 76.95 76.42 75.51 73.04 73.04 62.51 55.67
67.75 68.24 71.80 73.64 74.66 75.85 75.85 76.87 76.63 75.93 76.18 77.02 77.18 76.47 76.54 76.46 76.26 76.38 76.46 65.37 68.79 75.32 74.39 74.92 76.73 68.73 78.63 78.72 75.65 74.32 76.26 58.09 64.47 74.45 74.22 72.03 68.77 66.45
68.39 70.47 72.51 71.14 74.13 75.85 75.59 75.92 76.91 76.61 77.23 77.31 76.88 77.96 77.92 76.56 75.83 76.37 76.16 74.80 75.50 74.80 75.45 76.94 78.68 77.91 76.87 75.50 73.64 74.99 76.14 72.68 58.13 59.12 57.82 62.49 69.45 64.69
67.80 70.07 72.33 72.44 73.99 76.20 76.00 74.58 75.35 75.63 76.98 77.25 77.02 77.21 77.39 76.76 75.80 76.05 76.03 76.38 75.97 75.38 75.78 75.43 77.08 77.16 75.73 74.58 71.70 73.80 74.13 70.12 66.40 65.75 63.65 55.31 55.82 55.07

GFSNE_sfc_wetblb_084.txt.gz
Wetbulb
77.15 77.03 76.75 75.33 74.50 74.86 73.98 73.48 71.80 69.22 69.79 73.27 72.38 77.14 77.17 77.21 77.03 77.08 78.04 74.53 72.39 72.72 71.32 71.08 69.84 70.33 71.30 70.60 70.10 69.29 68.16 66.94 66.08 65.57 64.86 64.84 65.03 65.31
76.35 76.83 77.01 75.40 75.16 74.30 72.43 74.69 74.89 72.47 69.61 72.65 73.02 77.13 78.05 77.39 77.84 77.96 78.38 74.52 73.70 73.96 71.27 71.18 69.96 70.36 70.59 69.88 68.76 67.52 66.40 64.99 64.37 63.88 63.58 63.35 63.57 63.96
77.01 76.76 76.12 77.61 75.90 75.49 74.83 74.86 73.67 74.21 71.62 72.79 75.20 76.53 75.98 77.11 77.33 78.82 78.93 78.39 77.00 72.57 72.82 70.74 69.58 69.85 69.30 68.57 67.04 65.91 64.31 63.12 62.36 62.02 61.89 61.99 62.32 62.65
76.23 75.62 75.53 76.03 77.15 77.18 75.93 75.25 75.44 75.73 74.20 72.24 73.96 73.54 74.19 74.73 79.29 78.36 78.99 77.79 76.73 74.06 71.01 70.57 69.56 68.64 67.10 66.40 65.04 63.65 62.00 61.13 59.95 59.68 59.68 59.69 59.64 59.95
76.59 76.31 76.37 77.00 76.75 75.45 77.30 75.97 74.95 75.26 74.86 74.00 72.44 75.22 74.32 74.36 74.79 76.98 78.51 78.29 78.90 73.23 70.52 69.29 69.35 67.41 65.44 63.62 62.59 60.85 58.87 58.62 58.29 58.07 57.59 57.89 58.93 59.31
77.69 77.25 77.53 77.09 76.81 76.74 76.36 76.20 76.01 75.55 74.65 74.05 72.55 72.03 72.61 74.03 75.80 74.97 74.26 74.03 73.56 75.63 74.17 72.09 70.89 67.97 64.82 62.44 61.54 60.50 57.70 57.50 57.45 57.09 56.85 56.72 56.86 58.49
77.18 77.28 77.70 77.18 74.17 75.25 76.08 75.97 75.60 75.01 74.50 73.24 71.94 72.38 72.36 74.29 72.91 73.69 72.01 74.08 73.20 74.13 73.18 73.78 72.68 69.58 66.05 62.79 64.60 63.62 60.21 59.02 57.75 56.79 56.28 55.49 55.45 55.99
75.76 77.16 77.99 75.45 73.33 68.98 68.59 68.99 71.90 75.55 75.10 75.11 73.84 71.60 72.24 73.68 74.62 74.51 73.63 71.45 69.75 75.51 73.85 72.71 72.94 72.05 73.09 68.36 66.16 63.75 60.94 59.29 58.30 56.94 56.41 55.51 55.27 55.16
76.99 76.95 77.17 75.94 72.97 76.97 69.83 67.76 68.09 66.83 68.52 72.47 72.00 73.16 73.93 74.66 75.98 75.60 74.98 74.42 73.64 74.33 74.33 71.92 74.60 73.76 74.95 71.88 65.93 62.58 60.04 58.90 58.43 57.02 56.67 55.67 54.88 53.80
76.02 77.07 77.01 76.03 76.30 76.82 77.28 76.74 75.04 75.02 74.05 71.52 71.65 72.26 73.03 74.05 75.37 75.00 74.58 74.58 75.98 76.68 76.61 72.47 75.07 74.05 75.05 69.58 62.94 61.42 59.33 58.56 58.01 56.80 56.03 54.98 53.03 51.82
74.78 75.88 76.02 75.70 71.83 67.15 74.11 75.01 76.10 77.07 72.15 68.14 68.85 68.18 67.19 66.51 68.90 73.66 72.44 71.06 69.53 69.91 72.51 70.61 70.20 71.58 73.25 69.95 63.09 60.88 58.82 57.23 57.02 57.13 56.60 55.19 53.22 51.45
75.02 75.07 67.81 71.10 66.20 63.65 72.57 75.39 73.59 73.88 74.89 75.58 74.60 69.55 66.76 69.66 65.29 71.12 73.14 71.56 70.86 69.78 71.67 70.55 70.81 70.68 69.31 74.10 68.82 62.06 60.10 56.70 55.27 55.89 55.97 54.82 52.84 60.61
74.50 74.43 75.43 64.24 61.61 60.80 60.77 73.42 72.97 74.28 73.61 74.77 75.22 75.26 74.89 75.44 75.38 73.65 74.00 73.63 71.67 70.96 72.79 72.40 70.72 73.51 72.54 70.70 73.08 67.91 65.18 63.19 59.58 57.64 53.94 53.18 52.38 54.31
73.97 75.31 74.99 59.20 55.73 56.20 60.07 63.05 61.61 63.99 74.09 74.09 74.11 73.54 73.17 72.90 73.29 73.35 75.56 75.29 75.11 73.42 74.47 75.22 74.41 73.69 72.20 71.26 70.93 72.10 69.95 69.72 65.95 66.49 61.71 57.36 52.31 53.58
68.72 66.98 60.20 59.40 57.53 59.93 56.99 57.71 57.48 67.91 70.56 71.37 71.37 72.18 73.29 74.01 74.40 73.31 72.55 76.63 76.16 76.43 76.44 76.37 75.34 75.42 74.60 72.89 72.15 72.35 70.62 71.85 70.05 71.33 66.18 63.44 61.09 60.93
63.50 64.03 63.01 60.56 61.03 64.66 66.05 70.38 65.80 69.58 70.92 71.40 71.61 72.82 73.84 73.70 73.40 73.83 71.97 71.05 71.02 75.22 77.92 77.88 78.01 76.87 74.81 74.77 74.26 73.24 73.53 71.92 74.93 73.60 72.94 70.46 68.89 67.65
58.14 62.91 66.56 70.63 73.26 74.15 74.38 74.02 74.37 72.40 71.59 72.63 72.95 73.16 73.26 73.34 72.98 73.35 72.32 71.48 71.00 70.78 71.00 75.44 78.19 77.85 76.80 76.01 74.28 74.36 73.71 73.85 74.55 73.69 72.00 70.72 69.79 68.15
58.58 62.31 63.94 66.62 69.66 70.00 72.05 72.82 74.15 72.78 74.41 74.00 73.18 73.11 72.57 72.67 72.62 73.45 73.96 72.10 70.77 71.20 71.21 72.02 73.97 75.55 75.90 76.68 74.14 74.86 74.65 74.36 74.44 73.83 72.09 70.63 70.01 69.55
56.53 61.96 64.19 65.48 67.86 69.68 70.33 69.75 69.87 73.27 74.45 74.86 74.39 74.36 73.39 73.09 71.62 72.07 72.16 72.02 72.26 72.79 72.71 73.32 73.44 72.32 69.30 69.01 74.26 67.98 74.18 73.90 74.32 73.26 71.89 71.35 70.48 69.66
61.00 64.29 65.95 67.14 68.06 70.41 72.21 71.41 71.09 72.40 72.92 73.73 73.73 74.23 74.13 73.56 73.19 73.38 73.21 72.10 71.28 70.93 71.36 74.05 72.66 71.16 69.74 69.70 70.36 72.85 60.42 74.42 73.38 73.02 71.49 68.96 56.89 57.51
65.14 66.85 67.67 68.56 69.49 71.70 72.51 72.58 74.01 72.69 68.00 70.79 74.03 74.75 74.88 74.41 73.83 74.10 73.86 64.13 65.77 71.97 70.97 70.78 72.10 68.35 76.24 75.83 71.83 71.11 73.43 58.50 63.17 73.23 72.77 70.53 63.41 62.42
64.52 66.05 67.75 68.92 70.14 71.10 70.51 69.93 70.21 72.20 73.14 72.76 72.65 72.99 74.17 74.34 74.09 73.84 73.46 73.04 72.35 72.36 71.97 73.50 74.88 74.90 73.86 71.13 70.48 70.72 71.41 66.41 60.75 59.71 59.56 64.45 68.65 64.14
60.45 62.58 64.91 67.11 69.42 68.99 69.89 70.72 70.94 71.79 72.13 72.16 72.66 72.68 73.10 72.47 73.68 73.95 73.57 73.34 73.27 72.89 72.55 71.96 72.06 72.83 72.05 72.03 68.44 71.01 71.77 72.04 67.63 64.67 64.47 57.67 57.60 54.42

GFSNE_sfc_wetblb_087.txt.gz
Wetbulb
71.33 71.52 71.10 71.44 70.40 70.53 71.80 67.27 66.54 62.79 64.03 67.66 70.21 72.52 72.65 73.89 74.89 73.93 74.90 74.47 72.76 72.56 73.17 70.75 70.13 69.95 71.25 70.79 69.82 68.71 68.03 66.61 65.46 65.00 64.73 64.36 64.57 65.21
73.16 71.19 71.52 71.90 71.21 71.60 71.55 70.52 69.32 66.80 64.02 68.95 69.60 73.12 74.01 74.24 74.87 72.91 75.54 73.84 73.11 73.27 71.77 71.68 70.10 69.92 70.71 69.99 68.77 67.34 66.39 65.60 64.05 63.42 63.39 63.02 63.31 63.55
71.51 72.20 70.87 72.22 71.21 71.74 72.22 71.16 70.59 69.56 67.38 69.52 71.63 72.12 70.62 70.00 71.59 73.10 75.70 75.25 75.00 72.27 70.83 70.56 69.76 69.16 69.32 68.91 67.63 65.97 64.99 63.93 62.73 61.89 61.71 61.27 60.98 60.88
71.83 72.03 71.43 73.32 71.70 72.48 71.80 70.73 70.38 69.75 68.84 66.19 68.57 69.33 69.81 71.72 72.38 73.15 76.21 76.96 75.01 74.83 69.74 69.45 69.40 67.74 67.32 66.70 65.58 64.31 62.50 61.84 61.11 59.98 59.57 59.48 59.98 60.21
72.37 72.22 72.17 71.78 71.95 71.40 70.26 72.30 71.49 71.95 71.80 70.20 69.77 70.78 71.14 70.17 69.87 70.92 72.23 74.65 74.99 73.98 69.50 68.64 68.23 67.01 65.77 64.45 63.28 61.61 59.68 59.09 58.65 58.42 57.82 57.87 58.48 59.96
73.29 73.83 72.82 71.36 71.73 72.00 71.33 70.74 71.49 71.05 70.69 69.82 69.28 68.84 68.89 70.45 71.07 71.60 68.46 69.62 70.97 72.99 71.73 70.12 68.73 67.67 66.11 63.74 62.64 61.29 57.78 56.90 57.29 57.14 56.93 56.85 56.78 58.09
73.26 73.94 74.46 74.56 73.26 72.59 72.92 71.54 71.44 70.64 70.46 70.44 69.45 69.33 69.47 69.56 68.70 70.54 69.76 70.54 69.61 69.01 70.45 70.97 69.59 68.56 67.34 64.43 65.12 64.08 59.54 58.10 57.49 56.70 56.25 55.62 55.43 56.00
72.25 73.35 74.16 73.81 72.49 69.40 68.73 69.67 72.32 71.61 70.47 70.60 70.51 70.04 69.38 69.00 71.22 71.22 70.74 69.28 68.20 71.85 71.13 72.09 71.58 71.95 70.45 66.93 65.73 63.66 60.80 59.25 58.37 57.25 56.41 55.59 55.45 55.23
73.64 73.24 73.33 74.78 72.03 73.53 69.77 67.27 66.85 66.56 67.99 69.25 68.08 68.09 68.82 69.94 70.55 70.38 69.59 69.93 69.62 72.00 71.65 72.05 72.47 71.95 74.61 70.65 64.81 62.98 60.98 59.17 58.42 57.76 56.72 56.02 54.96 54.11
72.57 73.87 73.88 73.82 72.91 72.57 73.51 73.44 71.89 71.62 70.62 68.96 69.39 70.63 70.09 70.64 70.11 70.86 70.65 70.93 71.65 73.14 73.75 70.89 71.89 71.80 72.98 70.55 64.29 63.23 60.86 58.96 57.99 57.32 56.18 55.05 53.39 52.42
71.61 72.32 72.80 72.88 70.33 66.56 71.48 71.30 71.73 73.89 71.17 66.08 66.93 66.69 65.78 65.38 67.41 70.41 69.89 68.74 68.98 69.50 68.32 67.63 69.17 66.19 67.36 69.68 65.19 62.09 59.95 57.68 56.77 56.77 56.54 55.13 52.96 51.25
72.19 72.00 65.94 69.23 64.51 63.08 69.48 71.04 70.70 71.72 72.25 72.34 70.87 67.54 66.03 68.74 64.78 68.16 70.69 68.34 68.53 68.69 69.98 67.75 67.42 66.63 66.30 68.90 65.00 60.71 58.66 56.52 55.45 55.13 55.71 54.92 52.94 57.30
72.21 72.30 73.18 60.20 56.73 55.97 56.13 67.87 70.07 69.94 70.55 71.32 72.96 73.12 73.12 72.27 71.76 70.75 70.96 71.16 70.16 69.91 71.18 68.99 66.61 67.11 69.28 68.60 69.11 62.98 60.65 59.67 58.34 56.16 53.44 53.20 52.54 52.97
66.80 68.85 68.58 58.13 56.68 55.42 59.00 59.40 58.17 60.72 67.70 69.81 70.64 71.39 72.16 72.84 72.99 72.14 73.45 72.78 73.20 72.55 73.17 70.11 68.94 68.81 67.87 67.61 68.13 68.78 65.04 64.18 60.96 61.26 59.80 55.69 52.59 52.54
65.61 63.14 58.48 56.32 54.90 60.61 58.07 58.39 57.24 62.05 64.08 66.19 67.96 69.61 71.08 72.39 72.87 72.00 71.44 70.21 73.19 73.68 73.66 72.93 72.31 72.27 70.54 70.09 68.93 69.39 69.39 69.44 65.38 64.83 62.44 60.10 58.14 56.14
63.26 63.84 61.04 58.57 58.01 61.25 62.04 65.76 68.09 69.91 69.28 68.24 68.09 69.67 70.94 71.05 71.28 72.25 71.74 71.96 71.11 70.64 73.12 74.15 73.50 73.23 71.78 72.05 72.11 71.32 70.90 69.83 69.12 67.66 67.58 63.81 60.86 60.29
54.39 59.31 60.97 62.16 63.07 65.35 69.91 72.22 71.97 70.08 67.72 68.79 69.18 69.68 70.16 70.68 71.00 72.13 71.78 71.32 69.42 69.24 68.23 70.20 75.24 75.16 75.09 73.63 70.40 72.44 71.76 70.81 71.62 71.17 69.51 66.78 65.40 64.49
54.43 56.65 58.80 60.43 61.29 62.55 64.92 67.71 69.88 70.33 71.38 71.04 70.42 70.15 70.24 70.17 70.99 71.51 71.53 70.78 69.44 69.22 68.44 68.44 69.07 72.18 72.50 73.56 72.25 72.59 71.31 72.25 72.73 70.63 70.41 69.30 68.40 67.18
52.09 54.53 57.16 59.35 60.93 62.45 63.92 66.43 68.04 69.55 69.82 70.07 70.89 71.08 71.62 71.53 69.76 70.65 70.42 69.66 69.74 69.35 68.94 69.81 68.97 68.38 67.03 67.03 69.51 66.06 72.92 72.85 72.50 69.98 69.40 68.74 68.84 69.34
51.85 55.70 58.61 61.08 62.92 64.06 65.09 66.09 69.25 70.16 67.75 67.91 68.83 67.54 68.13 68.22 67.10 67.93 70.50 69.55 68.40 68.90 67.98 68.97 70.34 70.31 69.03 67.96 67.56 69.08 60.45 73.96 71.22 70.68 69.19 64.61 58.45 57.68
55.60 57.48 60.41 63.25 65.10 65.76 66.87 68.04 69.25 70.14 69.37 69.46 68.67 67.43 66.73 65.46 65.23 64.80 67.59 64.76 65.11 69.57 69.37 69.47 70.56 65.91 71.87 71.54 68.21 68.64 70.22 56.68 64.13 71.18 70.29 67.16 60.66 59.56
54.42 55.18 55.94 57.27 58.78 60.24 64.56 66.48 67.05 67.52 68.31 68.45 69.21 69.10 65.61 64.76 65.22 66.16 70.24 70.08 69.25 69.19 69.85 71.02 70.86 71.01 69.46 68.51 68.67 68.12 67.99 64.49 60.05 58.71 59.08 62.92 65.52 62.88
53.32 54.00 55.58 57.26 60.47 61.28 61.15 60.07 60.01 60.37 61.48 63.23 65.29 65.94 69.01 69.69 70.43 70.36 69.85 69.78 69.99 70.04 69.26 69.57 68.72 68.90 68.99 68.60 67.39 67.95 68.37 67.61 63.83 62.44 61.72 57.29 57.97 56.51

GFSNE_sfc_wetblb_090.txt.gz
Wetbulb
70.16 69.63 69.52 70.07 69.40 69.73 68.96 67.76 64.84 61.45 62.12 66.70 68.85 72.18 72.10 72.81 73.00 73.10 72.13 72.28 71.66 70.40 69.43 69.43 69.36 69.67 70.72 71.25 70.05 68.88 68.16 66.97 65.64 64.76 64.29 64.39 64.92 65.33
71.54 70.73 69.62 70.62 70.53 70.80 70.37 69.78 68.39 65.09 62.87 66.85 69.03 72.20 72.16 71.35 72.31 72.41 72.37 72.20 71.58 70.43 69.73 68.92 68.78 68.77 69.53 70.12 69.03 67.95 66.86 65.90 64.74 63.64 63.00 62.79 62.95 63.41
70.80 70.58 70.31 70.15 69.74 69.73 70.92 69.59 68.75 68.64 65.27 67.19 70.64 71.31 69.69 69.49 71.27 71.06 71.91 73.09 74.56 70.87 69.53 68.56 67.70 67.69 68.51 68.70 67.86 67.05 66.26 65.16 63.83 62.15 61.85 61.05 60.80 61.06
70.58 70.21 70.74 71.64 69.58 70.61 71.08 68.89 69.79 69.00 68.53 66.90 67.76 68.98 69.57 70.50 69.43 69.36 72.04 74.39 74.19 72.22 67.88 67.10 66.97 66.84 66.30 66.50 65.72 64.90 63.60 62.94 62.01 60.83 59.88 59.77 60.28 60.36
70.88 70.40 70.86 70.35 69.56 69.64 69.87 69.20 69.94 70.44 70.27 69.08 68.31 69.67 69.87 68.55 69.55 70.02 71.05 70.93 72.07 71.47 68.82 67.93 66.90 66.50 65.16 64.43 63.62 62.20 60.28 58.97 59.15 58.70 58.78 58.21 58.76 60.54
72.45 72.14 72.04 71.50 69.97 69.62 69.97 69.73 69.46 69.21 68.83 68.19 67.69 67.91 68.15 69.43 69.41 68.91 69.38 69.58 70.34 72.52 70.28 68.86 68.28 67.94 65.84 63.83 63.57 62.82 59.44 57.12 56.25 56.86 56.95 56.96 57.42 58.51
72.66 72.86 72.75 73.06 70.97 69.93 71.90 70.81 69.71 69.07 68.54 68.03 68.14 68.01 68.79 68.90 68.28 69.54 69.40 69.53 69.17 68.18 69.77 70.00 69.60 70.16 69.49 65.88 66.80 66.01 61.83 59.11 56.84 55.99 55.93 55.69 55.52 55.94
71.73 71.74 72.29 71.83 71.17 68.81 68.18 68.46 69.43 69.90 68.89 68.84 68.39 67.83 67.80 68.27 68.84 69.40 68.34 67.24 65.61 69.44 70.00 70.31 71.43 72.11 71.67 70.31 67.09 64.88 62.33 60.29 58.19 56.98 56.11 55.46 55.02 55.36
72.19 71.81 72.14 74.14 71.39 73.13 69.90 66.81 66.33 66.28 68.31 69.94 68.27 67.66 67.19 68.04 68.27 66.91 66.62 67.13 66.93 69.44 69.82 69.75 71.20 71.38 72.63 71.51 66.12 63.79 62.03 60.15 58.30 57.35 56.59 55.74 54.85 53.75
70.90 72.35 72.55 72.69 72.11 71.95 71.71 71.41 71.66 71.23 68.50 68.18 68.98 70.53 69.48 70.52 68.04 69.37 67.77 67.73 69.34 70.32 71.46 68.99 69.11 68.21 69.82 69.24 66.17 63.61 61.24 59.74 57.84 56.92 56.07 54.89 53.36 51.94
70.70 70.81 71.20 71.60 68.37 64.94 69.89 70.66 70.77 71.31 69.93 64.57 65.10 64.66 64.00 63.36 65.68 69.06 67.89 67.53 68.64 68.84 69.22 67.97 69.27 66.34 66.28 66.73 67.92 62.29 60.02 57.81 56.85 56.47 56.15 54.81 52.68 51.58
71.44 71.53 65.57 67.43 61.83 58.58 67.58 70.39 70.12 70.47 70.66 70.75 71.13 67.00 64.23 66.81 63.34 67.73 70.40 68.65 68.20 67.58 69.11 66.92 66.79 65.94 64.64 67.05 67.51 63.05 60.90 56.26 54.98 54.53 55.12 54.41 52.40 55.05
67.51 69.61 69.79 58.51 55.43 55.06 55.43 63.40 65.52 66.85 66.57 68.52 69.26 70.68 71.75 71.16 70.70 69.01 69.74 70.49 69.49 68.98 70.64 68.58 66.36 65.32 66.39 66.47 68.20 66.06 61.49 60.22 58.34 55.76 52.80 52.31 51.70 53.70
62.26 64.87 65.99 57.96 53.43 53.07 56.49 59.78 57.96 59.47 63.49 65.59 66.93 68.30 69.60 70.64 72.22 72.19 71.43 70.92 72.10 72.01 73.03 69.50 68.37 68.66 65.99 65.31 66.38 67.99 65.93 62.62 60.67 59.99 59.60 55.08 51.47 51.66
63.07 60.89 56.45 53.79 53.42 56.44 58.28 57.92 58.16 62.51 63.85 63.91 65.46 67.06 68.80 70.50 71.41 71.21 70.98 72.43 72.33 72.18 72.45 72.17 70.88 70.82 68.69 68.56 67.77 67.38 67.69 68.93 64.23 63.50 61.02 59.94 60.08 57.64
59.38 59.01 58.25 56.79 55.99 57.56 58.92 63.69 65.77 66.61 66.97 67.77 68.92 70.07 70.35 69.46 69.28 70.55 69.95 70.33 70.05 70.41 71.49 72.50 72.24 71.34 70.14 69.90 69.65 69.33 69.08 68.63 68.64 65.50 64.89 62.84 60.61 59.33
47.96 53.52 55.16 56.18 57.63 58.88 60.40 61.95 63.74 68.77 69.43 69.25 68.98 68.91 68.66 68.95 68.99 69.50 69.78 69.85 68.94 69.30 69.97 70.39 70.76 72.10 71.77 71.13 69.15 70.46 70.87 69.95 71.39 69.94 65.86 64.43 63.36 62.49
49.43 51.02 52.06 53.85 55.68 57.42 58.97 60.50 62.36 64.45 66.61 67.90 69.29 68.77 68.73 69.13 69.36 69.90 69.41 70.01 69.67 69.77 69.87 70.14 67.98 68.48 71.29 72.09 70.86 71.54 70.24 71.41 71.60 70.67 69.04 68.34 68.66 66.11
47.63 49.65 50.73 53.15 55.18 57.74 59.85 61.48 62.39 64.35 66.57 67.76 68.52 68.68 68.75 69.31 69.23 69.88 70.17 70.54 69.72 69.43 69.59 70.11 68.01 65.53 65.32 64.91 67.77 65.82 71.80 71.52 71.62 68.46 70.49 70.04 70.25 69.96
47.70 50.12 52.14 54.51 56.62 58.85 61.12 63.01 64.40 65.44 67.24 68.41 68.21 67.67 68.05 67.91 67.01 66.61 66.65 66.11 65.39 65.57 66.43 67.26 68.37 68.70 67.49 67.30 67.42 69.02 58.67 72.88 70.58 70.51 69.00 67.17 61.89 56.64
48.87 50.69 52.39 53.22 53.43 53.90 55.77 59.08 62.78 64.32 64.01 65.03 65.80 66.54 67.85 68.03 66.29 65.73 65.55 58.87 60.09 64.43 64.69 66.01 68.94 64.83 69.85 69.04 67.69 67.46 68.40 56.15 62.57 71.28 69.13 67.21 63.18 60.86
46.59 48.25 51.34 53.34 54.93 56.06 58.08 58.72 59.11 58.05 57.79 58.44 58.57 59.61 62.08 63.69 64.07 64.90 64.63 64.22 65.31 66.97 67.78 69.13 70.36 69.90 66.94 67.71 68.04 67.95 66.59 66.15 60.86 59.23 60.68 62.09 65.05 63.39
44.52 46.28 47.53 48.54 50.01 52.85 54.39 54.13 53.53 53.71 53.48 52.94 53.47 54.12 54.76 55.04 57.00 59.64 63.23 65.97 68.12 68.03 68.00 68.14 69.00 68.05 67.82 67.39 65.29 67.78 66.81 67.47 64.72 63.72 65.92 58.51 59.87 56.92

GFSNE_sfc_wetblb_093.txt.gz
Wetbulb
69.28 68.73 68.68 69.42 68.94 69.22 68.16 67.43 64.34 61.45 61.53 65.53 67.89 71.11 71.10 71.02 71.95 71.74 71.29 70.55 70.06 69.72 68.95 68.61 68.79 69.67 70.20 71.12 70.96 69.86 68.79 67.74 66.11 65.34 65.17 65.29 65.27 64.99
70.21 69.96 68.90 69.54 69.82 69.85 69.42 68.72 67.49 64.36 62.71 65.61 68.20 69.91 71.14 70.78 71.82 71.30 70.59 70.82 70.72 69.62 68.58 67.23 67.60 68.71 69.28 69.77 69.72 68.99 68.12 66.89 65.78 64.42 63.88 63.34 63.04 62.72
69.61 69.70 69.38 69.06 68.90 68.51 70.04 68.82 68.19 67.40 65.03 66.97 68.73 69.89 69.23 69.47 70.19 70.25 71.46 71.92 72.54 69.68 68.25 66.85 66.27 67.61 67.99 68.30 68.40 67.82 67.53 66.33 64.77 63.81 62.84 61.91 61.91 62.15
69.77 69.21 69.14 71.29 68.98 68.87 70.04 67.97 68.68 68.59 67.63 65.76 67.32 68.36 68.96 69.49 69.11 69.13 71.20 72.83 71.02 70.65 67.95 66.19 65.94 66.47 66.05 65.71 65.71 65.43 64.58 64.29 63.66 62.28 61.65 60.74 60.44 61.55
70.66 70.03 69.19 69.35 68.97 68.84 68.48 68.46 68.67 69.53 68.83 68.04 67.32 68.36 68.59 68.36 68.95 69.40 70.48 69.86 71.74 71.13 68.28 67.66 67.54 66.47 65.62 63.79 63.01 62.75 60.92 60.39 60.19 59.77 59.56 59.49 59.18 60.48
71.11 71.23 70.69 70.69 69.93 69.13 68.78 68.75 68.85 68.17 67.70 67.10 66.58 66.87 67.66 68.92 68.73 67.81 68.57 69.27 69.76 71.37 69.35 68.53 68.01 67.89 66.88 64.74 63.68 63.42 60.78 58.63 57.10 57.22 57.44 57.41 58.11 58.61
70.93 71.20 71.84 71.82 70.36 69.41 71.15 70.42 69.65 68.63 67.93 67.03 66.80 66.76 67.19 66.90 66.67 67.84 67.86 67.91 67.86 67.64 67.61 69.29 68.86 69.95 70.77 67.99 68.12 67.09 63.81 61.33 57.90 56.12 55.90 55.74 55.90 56.33
71.30 71.46 71.50 70.85 70.27 68.12 67.17 67.93 70.22 69.90 68.65 67.25 67.52 66.98 67.32 67.28 67.52 67.61 67.05 65.39 64.07 67.48 68.49 68.86 69.45 70.07 70.95 70.79 68.32 65.98 64.00 62.01 59.38 57.13 55.89 55.23 55.17 55.59
70.82 71.05 71.51 73.02 70.45 71.82 69.32 66.29 66.45 65.75 67.48 70.01 68.44 68.31 67.61 67.39 67.30 66.27 65.69 65.64 65.44 67.75 68.51 68.86 69.14 69.19 69.92 69.50 66.06 65.00 62.84 60.99 59.29 58.11 56.82 55.81 55.21 54.50
69.22 70.13 70.80 71.31 71.56 71.38 71.43 70.69 70.69 70.79 69.33 68.23 68.92 70.58 70.05 70.38 68.50 69.37 67.75 66.34 66.78 68.47 69.64 67.34 67.98 67.93 68.31 68.44 65.20 63.48 61.83 60.20 58.59 57.58 56.56 55.13 53.49 52.47
69.57 69.93 70.00 70.07 65.79 61.36 68.31 69.46 70.10 70.67 68.90 64.16 64.24 64.25 63.66 62.79 65.29 67.70 67.05 66.28 68.54 69.32 69.40 68.24 68.82 66.23 66.40 66.88 67.22 61.88 60.17 58.35 57.07 56.77 56.60 55.11 52.93 51.83
67.23 68.76 60.97 62.17 57.57 56.26 64.06 64.60 65.49 67.87 68.63 68.23 68.75 68.23 63.90 66.32 63.02 66.67 69.86 68.11 68.56 67.05 69.03 67.77 66.11 66.25 64.65 65.92 66.93 67.60 65.02 57.98 55.20 54.70 55.37 54.78 52.59 55.71
62.54 64.15 65.47 60.29 58.86 57.23 55.01 60.10 64.10 65.31 65.94 67.66 68.25 68.56 69.15 69.86 70.45 67.84 68.39 69.49 68.95 68.90 70.40 68.37 66.65 64.92 64.94 65.25 66.90 67.86 65.96 62.90 60.08 57.41 52.46 52.27 51.60 54.46
59.34 61.05 61.41 54.49 52.56 52.66 54.43 57.19 55.21 57.13 63.10 64.92 66.52 67.38 68.39 68.90 69.94 71.12 70.95 70.06 71.14 71.24 72.84 69.21 67.57 67.67 65.72 64.12 65.56 67.44 67.28 65.57 61.92 61.91 59.90 55.15 51.33 51.62
58.78 58.44 55.31 53.48 52.71 55.84 56.69 56.58 56.67 61.47 62.29 63.90 64.81 66.72 68.44 69.39 69.72 69.44 70.16 71.28 71.14 71.32 71.81 71.91 69.72 70.70 69.43 68.14 68.11 67.63 66.16 67.41 64.34 64.05 62.44 60.34 59.27 56.69
52.64 51.34 53.66 54.28 54.47 55.83 57.18 59.22 61.53 63.54 64.65 65.70 66.68 68.47 69.95 69.74 69.01 68.72 68.53 68.89 68.32 69.20 70.93 71.97 71.93 70.92 69.51 69.92 69.52 68.41 69.12 66.08 67.68 65.64 65.38 63.01 61.49 60.76
45.00 50.28 51.41 51.58 52.72 53.68 55.22 57.19 59.51 60.67 61.59 63.74 66.22 67.23 68.04 68.49 68.53 68.92 68.21 68.25 67.32 68.09 68.87 69.42 69.66 70.50 70.79 70.16 68.49 68.48 68.68 68.73 69.62 69.65 65.17 65.76 63.88 63.41
48.26 48.14 49.63 50.00 51.02 52.54 54.68 57.04 59.55 61.23 62.57 64.10 65.20 66.24 67.07 68.49 68.90 69.46 68.99 68.63 67.93 68.50 69.23 70.75 69.44 66.15 68.13 69.39 68.98 68.98 69.25 69.44 70.44 70.14 67.38 67.75 68.92 65.89
47.12 47.91 48.88 50.29 52.08 53.88 55.64 57.30 58.19 60.25 63.44 64.62 65.43 66.17 66.67 67.48 66.69 67.55 68.79 68.99 68.74 68.71 69.10 69.73 67.70 66.84 65.64 63.75 67.08 64.50 70.09 70.44 70.40 68.08 70.25 69.31 69.31 69.55
44.06 45.14 46.24 48.00 49.92 51.17 51.77 52.80 55.27 59.03 60.65 60.53 61.47 62.61 62.23 62.10 63.82 66.18 67.05 66.00 66.31 66.35 65.92 66.15 66.03 66.37 65.49 64.65 65.92 68.99 57.75 71.01 69.49 69.75 68.83 69.08 64.90 57.65
42.37 43.38 45.21 46.57 48.56 50.61 50.82 51.15 52.12 54.73 56.65 56.26 57.58 56.79 56.39 56.57 57.13 58.00 58.24 56.23 59.30 64.48 63.79 64.28 65.25 62.89 68.13 68.83 67.32 67.56 69.34 55.78 65.44 70.93 68.99 67.47 64.76 63.21
39.97 40.60 41.93 43.07 43.99 45.35 46.62 48.43 50.84 52.02 52.87 53.82 54.22 54.01 53.89 54.02 53.38 53.13 53.90 53.94 56.90 60.12 62.67 65.25 67.21 68.06 67.95 67.39 66.40 66.87 67.59 66.64 58.50 56.48 59.95 63.81 65.33 63.72
37.73 38.88 40.08 40.86 41.78 43.24 43.74 44.51 47.22 48.79 51.30 51.11 50.37 51.01 50.93 49.96 50.79 52.09 52.45 52.68 54.14 53.94 56.54 60.08 65.11 67.75 67.48 67.09 65.24 66.59 65.92 66.31 65.44 63.69 64.69 59.22 57.95 57.05

GFSNE_sfc_wetblb_096.txt.gz
Wetbulb
72.12 71.82 71.63 72.08 71.86 71.86 71.27 70.54 69.41 66.69 68.32 70.45 71.75 74.86 76.93 75.96 74.98 75.37 74.61 70.88 69.92 69.50 68.20 67.17 67.78 69.42 70.22 70.90 71.72 70.75 69.49 68.13 67.61 66.23 65.43 65.31 64.50 64.34
72.20 72.64 72.27 72.20 72.70 72.63 72.18 71.59 70.51 68.90 67.73 69.36 71.89 73.76 74.98 74.01 74.54 74.87 74.95 71.72 70.94 68.64 67.41 66.60 67.10 68.55 69.27 69.43 69.84 69.97 69.18 67.92 66.80 66.11 64.57 63.80 63.02 63.05
72.68 72.48 72.65 72.49 71.77 71.49 72.28 72.09 71.15 70.17 69.12 71.18 71.22 73.85 73.94 74.23 74.75 75.16 74.65 75.95 74.91 69.13 67.89 66.77 66.67 67.07 67.96 68.09 67.69 68.35 68.30 67.47 66.33 65.37 64.62 63.03 62.30 62.31
72.19 72.04 71.48 72.15 72.48 72.16 72.02 72.59 71.50 72.07 70.58 69.96 71.24 71.78 72.78 74.04 73.83 73.69 74.35 74.87 74.90 71.49 67.79 66.38 67.30 66.55 65.83 65.37 64.86 65.02 65.24 65.40 65.02 63.95 63.78 62.81 61.48 62.44
71.68 72.13 71.80 71.82 72.32 71.95 72.02 71.61 71.24 71.84 71.56 71.03 70.82 71.54 71.89 72.29 73.16 74.27 74.27 74.62 73.84 71.22 68.09 67.13 67.22 67.03 65.79 64.53 63.71 62.00 60.93 61.04 61.59 61.22 61.19 61.26 60.88 60.86
72.71 72.86 72.73 72.32 71.86 72.68 72.27 72.42 71.71 71.35 71.39 70.84 70.42 70.19 70.87 72.98 72.38 71.22 71.74 73.19 72.75 73.73 71.07 68.43 68.34 68.31 66.90 64.81 64.37 64.14 60.99 58.49 57.96 58.29 58.20 58.52 59.25 59.60
73.64 73.53 73.53 72.98 70.53 70.70 73.86 74.10 73.12 72.11 71.57 70.96 70.36 70.42 70.82 71.08 71.37 72.02 71.14 71.71 72.91 71.91 71.94 73.69 73.37 74.09 74.26 70.06 70.29 67.84 64.23 61.31 58.37 57.00 56.32 56.20 56.53 57.32
73.86 74.32 74.21 71.85 71.58 67.56 66.75 67.04 70.94 73.27 72.79 71.25 72.11 71.25 72.27 71.47 71.95 71.47 71.30 71.05 69.77 73.00 72.16 72.66 73.81 73.83 74.43 74.67 68.85 65.57 63.38 62.23 59.83 57.92 56.26 55.52 55.49 55.94
72.91 73.02 72.78 73.65 71.65 73.60 69.56 66.93 66.71 65.31 67.96 74.08 72.33 72.75 72.35 73.52 72.89 72.12 72.02 70.59 70.96 72.92 71.91 71.89 74.44 73.58 74.37 73.68 66.20 64.29 62.26 61.35 59.86 58.50 57.12 55.74 55.19 54.77
70.97 71.15 71.40 71.85 67.92 67.78 71.04 72.63 73.25 73.62 73.09 70.76 71.27 72.92 73.95 74.17 73.24 73.52 72.86 71.56 71.41 72.35 72.65 70.34 74.01 72.88 74.21 73.93 66.54 63.80 62.55 61.15 59.81 57.80 56.66 55.15 53.62 52.78
69.54 68.48 68.53 65.98 60.56 59.55 67.37 68.49 69.33 70.90 68.70 64.97 63.40 63.53 62.73 62.38 64.97 70.49 70.83 70.41 70.19 72.01 73.37 71.98 72.66 72.02 72.66 72.70 73.43 64.22 61.18 60.12 58.49 57.60 56.90 55.24 52.72 51.56
65.53 66.37 62.07 61.28 59.15 58.97 62.13 62.75 64.06 67.82 68.75 68.39 69.40 69.64 67.59 69.75 63.43 68.57 71.15 69.99 70.49 70.24 73.61 71.37 72.03 71.27 70.55 73.37 72.54 74.02 73.99 62.71 57.39 55.40 55.46 54.80 51.95 62.68
62.31 62.47 63.44 56.00 54.75 54.51 53.94 61.12 61.10 61.77 62.47 63.78 65.68 67.41 69.78 71.32 71.90 72.75 71.53 71.27 70.81 70.76 72.94 72.70 71.88 71.43 70.24 70.60 72.38 73.87 73.70 73.26 71.15 67.29 53.04 52.24 51.62 57.21
58.52 60.22 60.38 52.21 50.77 51.47 56.28 55.72 53.81 55.60 62.44 64.09 64.59 65.52 67.05 68.74 71.14 72.48 73.97 72.57 73.09 73.05 74.71 74.30 71.90 71.67 70.97 70.76 70.48 73.56 73.98 73.79 72.61 71.37 71.27 60.31 51.05 51.79
55.38 53.05 52.02 51.19 51.59 55.30 55.39 55.39 56.66 63.85 64.61 64.15 64.80 66.63 68.56 69.82 71.76 72.48 73.03 73.56 73.83 73.87 73.36 74.27 73.00 73.08 72.19 71.20 70.85 72.10 71.10 72.82 73.92 71.77 71.95 69.97 68.53 64.83
51.35 53.19 53.88 53.62 53.22 54.83 57.36 59.12 61.46 62.47 62.80 63.61 64.06 66.61 68.95 68.87 68.90 72.01 70.59 71.99 70.61 71.05 74.32 74.52 74.79 73.74 71.62 71.84 71.53 71.17 72.42 70.80 73.35 73.18 72.09 71.78 70.66 68.73
47.06 54.46 54.26 53.62 54.19 55.35 56.47 58.33 59.78 61.24 61.48 63.60 62.73 63.19 64.76 65.35 65.70 69.20 70.29 69.55 68.47 68.90 70.01 72.07 74.47 74.35 73.42 71.99 69.60 71.49 72.04 72.23 73.24 73.21 72.46 71.13 72.47 71.81
50.30 50.10 49.82 51.47 51.09 52.28 53.12 55.04 56.61 57.58 59.48 61.00 61.38 63.12 63.91 63.71 62.34 65.10 67.04 67.72 67.49 68.10 68.74 69.94 71.43 72.01 72.04 72.10 69.55 71.08 71.73 71.77 72.76 73.69 73.02 70.88 71.76 74.17
45.86 45.26 46.15 46.90 47.85 50.24 52.94 53.52 53.31 53.95 55.99 55.78 60.43 60.00 59.35 58.49 58.47 59.07 59.94 60.17 60.24 62.50 65.71 68.78 69.51 68.14 65.66 64.35 69.50 62.85 70.21 70.94 72.22 73.16 73.71 72.55 71.57 73.63
42.31 42.24 42.69 43.52 44.27 45.36 45.64 46.79 48.09 49.71 51.76 53.87 55.77 56.66 57.57 56.62 56.58 56.27 56.00 56.42 56.48 57.36 59.96 63.67 65.22 64.92 64.60 64.28 65.39 68.68 56.86 69.77 71.71 71.92 72.44 74.06 73.07 61.96
40.17 40.36 41.47 41.90 42.36 43.12 43.67 45.69 47.01 47.35 48.85 52.45 54.05 53.12 53.16 53.98 53.00 52.86 52.74 50.70 51.19 54.66 54.69 56.78 60.41 58.41 64.77 66.48 64.62 65.67 69.86 55.81 65.22 71.53 72.16 72.48 72.00 71.47
38.27 38.31 39.33 40.48 41.16 41.88 43.08 42.59 43.23 43.42 44.69 46.83 48.56 49.49 50.09 50.10 49.62 49.78 50.47 50.34 50.85 51.83 52.61 54.03 57.58 59.31 60.56 60.64 60.83 63.91 66.35 70.69 65.88 56.88 57.55 62.39 70.27 65.86
37.74 37.49 37.45 38.01 38.90 39.73 40.81 41.60 40.98 41.42 41.88 42.91 44.02 45.25 49.27 48.57 48.94 48.63 48.21 47.96 48.65 49.01 50.14 50.79 53.37 55.80 56.65 59.07 58.74 61.40 64.51 68.26 69.19 69.05 68.28 58.35 58.90 59.62

GFSNE_sfc_wetblb_099.txt.gz
Wetbulb
76.83 76.53 75.94 76.35 76.51 76.67 76.09 74.71 72.62 68.86 69.87 74.12 74.21 77.94 77.58 77.47 76.99 77.58 78.21 71.47 70.76 69.51 67.80 67.59 68.41 70.21 71.15 71.77 72.06 72.05 71.14 70.10 69.53 68.67 67.19 66.54 65.38 64.30
75.69 76.34 76.52 76.12 76.17 76.57 75.87 75.65 74.64 72.26 69.38 74.20 74.11 76.44 77.30 76.18 75.78 77.51 77.87 72.44 71.83 69.42 67.98 67.14 67.79 68.90 69.76 70.27 70.29 70.58 70.55 69.73 68.39 67.85 66.73 65.74 64.20 63.66
76.29 76.12 75.99 76.92 75.33 75.15 75.50 75.51 74.74 74.23 71.10 72.37 74.84 75.93 76.85 76.96 76.99 77.94 77.41 77.89 76.43 70.47 68.77 67.74 67.02 67.69 68.08 67.94 67.96 68.11 68.78 69.07 68.10 67.27 66.78 65.23 64.04 63.67
75.39 75.77 75.45 75.19 76.34 76.32 74.89 75.76 75.20 75.68 73.45 72.98 75.19 75.05 76.19 77.53 77.65 77.80 76.47 76.73 77.63 72.81 68.53 67.12 66.74 66.90 66.64 66.22 65.47 65.01 64.66 65.68 66.49 66.11 65.79 65.28 63.86 63.64
75.94 75.51 75.41 75.71 76.08 75.69 76.32 77.56 74.95 75.04 75.40 73.91 73.89 75.65 75.98 76.54 76.62 77.56 77.66 78.13 77.24 72.33 69.14 68.37 67.57 67.47 66.40 64.76 64.16 62.95 61.46 60.81 61.85 62.80 63.04 63.44 63.31 63.09
76.22 76.47 76.05 75.93 76.05 76.34 75.52 76.63 75.77 75.91 75.64 74.02 73.70 73.94 74.91 76.69 76.19 75.15 74.58 75.64 75.31 76.57 73.73 70.64 68.47 69.61 67.88 65.56 65.25 64.82 62.21 59.75 58.50 59.30 59.62 60.13 61.10 61.79
76.81 76.41 76.79 75.40 71.46 72.05 76.34 77.75 77.29 75.63 75.73 72.75 72.67 73.32 73.42 73.58 73.97 74.77 73.92 74.42 76.09 76.34 75.64 75.92 75.76 76.74 76.60 71.67 72.00 68.89 65.03 63.09 59.35 58.01 57.41 57.16 57.63 58.54
76.32 77.06 77.25 73.61 72.87 67.09 66.71 67.07 70.62 75.76 76.16 73.29 72.75 73.04 75.23 75.50 75.32 74.68 73.99 73.05 71.48 76.41 75.57 74.71 76.36 76.10 77.02 77.00 68.37 65.80 63.10 62.69 61.26 58.75 57.35 56.49 56.13 56.60
76.12 75.86 75.52 75.52 71.93 74.13 71.43 67.79 67.64 65.34 67.12 74.98 74.57 74.91 74.92 76.07 76.39 75.44 75.14 74.55 73.75 75.34 75.76 73.44 76.13 75.53 77.31 76.83 68.50 65.23 63.12 62.15 61.65 59.19 57.95 56.65 55.79 55.45
71.49 70.95 69.51 65.78 63.51 64.69 72.07 74.46 75.47 76.10 76.44 75.55 75.68 75.95 76.55 76.85 76.52 76.28 75.63 75.19 75.47 75.85 78.06 73.07 75.67 75.15 76.89 77.33 68.68 65.45 64.04 62.46 61.50 58.89 57.43 55.87 54.06 53.43
66.85 63.90 64.27 63.26 60.55 60.60 65.17 67.10 69.65 72.53 69.08 64.96 63.95 62.76 62.40 61.65 65.25 72.81 73.34 72.94 72.68 73.55 76.56 74.94 74.96 75.02 75.91 76.25 76.80 67.07 63.42 61.24 59.83 58.66 57.73 55.91 53.45 52.41
65.13 65.21 57.86 58.55 54.52 55.41 63.44 64.38 64.64 65.66 65.97 66.75 67.96 68.11 68.31 70.91 64.34 73.02 74.03 72.23 72.54 71.68 76.00 74.17 74.30 74.46 72.59 75.63 76.48 77.03 77.42 63.31 58.65 57.02 56.53 55.71 52.60 66.95
61.44 61.88 60.77 54.11 51.65 51.44 52.76 63.37 61.71 61.05 64.35 66.24 67.01 67.80 68.74 70.12 71.07 73.08 75.11 74.40 73.00 72.61 74.93 74.94 73.80 73.67 72.96 72.93 74.99 76.14 76.70 76.23 77.15 74.35 56.33 52.91 51.89 60.26
56.30 57.73 57.56 51.13 50.15 51.30 56.96 53.39 53.63 58.11 66.99 66.98 66.95 67.36 68.51 69.54 70.85 72.17 73.47 73.92 74.60 75.18 76.24 76.95 73.76 73.37 72.43 72.23 71.90 75.15 75.89 76.87 77.06 76.54 76.92 65.64 51.69 52.24
56.82 54.29 52.45 51.48 52.64 56.36 55.25 55.56 56.99 63.68 64.08 64.62 65.11 66.40 67.41 68.41 69.59 70.19 72.12 73.98 74.84 75.36 75.08 76.01 75.99 75.98 74.56 72.15 71.71 72.92 72.38 74.73 76.28 76.32 76.44 76.14 75.70 75.32
52.80 56.86 54.83 54.62 54.17 56.29 58.86 59.84 61.55 61.76 61.62 62.39 63.41 63.34 64.87 66.01 68.14 68.33 67.31 68.03 70.48 71.06 74.24 75.99 76.23 76.33 73.36 73.23 72.74 72.84 73.72 71.73 74.13 75.50 75.69 76.08 76.47 76.28
51.31 53.77 52.96 53.55 54.79 55.55 56.71 58.22 59.22 59.83 60.07 59.74 58.98 60.69 62.61 62.93 62.67 63.81 64.50 63.28 62.89 64.06 67.57 71.34 72.96 75.15 74.58 75.07 72.25 72.63 72.41 72.80 73.61 74.29 75.57 73.83 75.43 76.45
49.81 49.63 48.82 49.41 49.97 50.43 52.16 52.79 54.40 53.80 54.13 54.62 56.17 57.88 58.80 58.91 59.80 60.58 61.98 61.90 60.98 61.29 61.00 63.33 63.03 65.98 68.55 71.17 69.35 70.80 70.66 70.85 71.98 73.23 74.41 72.41 73.31 75.72
46.51 45.88 45.54 45.97 45.92 47.09 47.57 48.59 48.69 50.38 51.86 52.55 53.28 54.53 55.66 56.44 56.37 56.90 57.90 57.75 57.67 58.84 60.39 61.10 61.99 63.51 63.64 62.37 66.03 62.30 66.97 66.74 68.95 70.28 71.47 72.86 72.60 74.06
46.21 45.85 45.81 46.21 46.55 46.04 46.34 46.60 46.94 47.80 47.22 47.86 49.48 50.90 53.13 52.89 52.85 52.48 51.88 52.08 52.72 54.42 54.89 57.03 59.25 60.35 59.09 58.95 59.02 63.10 57.49 67.36 68.21 69.61 71.04 72.46 72.87 65.15
44.37 44.30 44.78 44.80 45.26 45.80 46.15 46.53 46.66 46.44 45.73 46.49 47.76 48.48 49.43 50.64 51.29 52.02 51.62 48.24 48.52 49.94 50.33 52.40 55.81 54.90 58.15 59.44 57.47 59.28 62.99 56.02 62.04 67.96 68.92 70.60 70.04 70.81
43.67 43.46 43.25 43.41 43.50 43.81 44.11 44.42 44.56 45.11 45.69 45.89 45.63 45.71 46.71 47.51 47.11 47.47 48.52 48.29 48.09 47.81 47.66 49.42 51.58 52.56 53.99 54.61 54.56 56.89 58.46 61.95 60.83 59.11 58.37 61.95 69.61 66.72
42.98 42.95 42.64 42.75 42.72 42.47 42.25 42.95 43.00 43.07 43.29 43.24 43.71 44.27 44.94 44.41 44.16 43.45 43.95 45.89 47.98 47.80 48.54 47.46 48.41 49.20 48.35 48.71 50.16 53.33 56.69 58.23 59.53 61.10 64.69 60.76 58.62 58.24

GFSNE_sfc_wetblb_102.txt.gz
Wetbulb
76.74 76.48 75.81 75.76 75.91 75.98 75.36 74.23 72.19 68.90 69.76 74.92 73.77 76.94 76.93 76.39 76.29 77.06 77.09 72.21 72.16 70.84 69.54 68.68 69.23 70.62 71.88 72.60 72.61 72.81 72.89 72.20 71.39 70.94 69.98 69.06 68.75 67.08
75.80 76.86 76.67 75.22 75.69 75.50 74.88 74.51 74.04 72.07 69.44 72.41 73.42 75.95 77.45 77.34 76.88 77.34 76.80 74.12 75.20 71.99 70.04 68.63 68.92 69.86 70.19 70.62 70.96 70.75 70.95 71.27 70.28 69.57 68.93 68.22 67.32 65.73
76.56 76.38 76.68 78.05 75.30 74.64 74.49 74.41 73.93 73.52 70.97 71.66 73.53 75.47 77.80 77.66 77.91 78.67 77.48 76.58 75.75 70.92 69.90 69.10 68.70 68.65 69.20 69.12 68.95 68.64 68.92 69.22 69.64 69.09 68.48 67.84 66.83 65.47
75.15 75.69 75.68 75.22 76.83 77.16 75.24 76.16 75.57 75.90 73.38 73.45 75.89 74.61 76.38 77.80 78.07 78.45 77.31 76.53 77.01 73.04 70.20 68.94 68.26 67.69 67.35 66.92 66.17 66.26 65.53 65.75 66.71 67.72 67.50 67.15 66.75 65.43
75.47 75.33 75.10 75.62 75.59 75.12 76.00 75.27 74.36 74.99 76.01 73.98 73.02 74.39 75.31 76.25 76.71 78.35 77.70 78.08 76.20 72.62 69.74 68.47 69.36 67.95 67.33 66.08 64.84 63.71 62.21 61.71 62.20 63.57 64.67 65.07 65.33 65.28
76.64 76.09 76.04 75.78 75.93 76.27 75.49 76.52 75.78 75.77 75.38 73.88 73.17 73.01 73.86 76.74 75.98 73.90 72.96 74.49 74.48 75.26 74.55 71.83 71.27 70.70 68.73 66.43 65.77 65.64 63.82 61.54 59.49 59.55 61.06 61.71 62.56 63.36
76.65 76.67 76.70 75.16 71.62 72.20 76.05 77.15 76.31 75.55 73.67 73.04 72.36 72.60 72.58 74.59 74.28 74.15 73.02 73.59 75.92 75.53 74.81 75.86 75.71 75.99 76.34 70.51 72.36 69.80 66.24 63.86 61.19 58.37 58.41 58.66 59.16 60.06
76.01 76.76 76.96 74.15 73.12 68.53 67.83 67.61 71.15 76.10 75.17 74.59 73.18 73.08 75.76 75.94 74.95 73.87 74.09 73.29 72.17 76.46 76.58 75.25 76.41 75.67 76.57 76.91 69.53 66.97 65.00 63.82 62.05 60.02 57.91 57.29 57.40 57.75
75.98 76.54 76.38 73.99 72.53 74.53 71.29 68.76 68.28 66.30 67.54 75.94 74.90 75.01 75.29 77.39 77.23 76.04 76.94 75.18 74.47 76.10 76.56 74.30 76.22 75.38 76.56 76.91 68.80 66.33 65.51 64.64 63.05 61.31 59.04 57.43 56.65 56.25
72.67 71.46 70.79 69.09 66.25 66.30 72.64 74.25 75.57 76.15 76.48 75.41 76.52 76.35 77.01 76.21 75.52 76.50 75.72 75.94 76.46 76.89 79.02 73.17 75.65 75.08 76.47 77.22 69.60 69.51 67.23 64.40 62.58 61.15 58.94 56.97 55.14 54.39
67.46 67.78 68.65 66.73 56.77 57.58 69.15 69.85 70.67 72.20 68.01 66.02 65.20 62.54 61.84 61.71 65.72 73.32 73.20 74.79 72.97 74.49 77.00 74.83 75.63 75.73 76.14 75.75 76.76 67.87 66.16 62.44 60.56 60.12 59.26 57.32 54.69 53.10
67.83 66.39 56.23 57.82 53.99 53.95 66.34 66.61 66.04 65.88 66.02 67.96 69.79 68.97 66.73 70.03 63.21 73.67 74.49 72.24 72.84 72.15 76.59 74.40 76.92 75.54 73.02 76.15 76.74 77.40 77.87 62.45 58.97 58.45 58.38 57.26 54.33 68.57
64.24 63.67 62.34 54.09 51.84 51.85 53.51 64.29 62.56 63.26 66.15 68.64 69.19 69.77 71.08 71.93 72.34 73.60 74.33 72.44 70.78 70.70 74.29 74.95 75.24 74.43 75.32 73.52 75.67 76.73 77.10 76.83 77.47 74.43 57.05 54.67 53.10 60.81
57.71 57.92 59.03 51.46 50.41 52.55 57.88 54.58 54.19 57.85 65.39 65.51 66.67 67.29 68.09 68.59 69.52 70.74 72.68 72.96 73.79 73.96 76.06 76.94 74.22 76.27 74.60 72.60 72.50 75.43 76.18 76.59 76.73 76.37 77.12 63.13 53.25 53.47
54.83 53.46 53.35 51.30 51.64 54.70 55.34 55.79 56.12 63.19 62.78 62.46 63.41 64.97 65.75 67.20 68.96 70.85 70.19 71.21 72.12 73.27 73.94 75.62 74.37 74.29 74.56 73.19 73.23 73.25 73.05 75.05 76.39 75.95 76.12 76.43 76.66 74.34
55.65 58.79 55.85 54.81 54.41 57.03 59.27 60.23 61.97 61.74 61.79 62.01 61.76 62.17 63.81 64.78 64.65 65.14 64.22 65.01 64.80 66.15 70.90 72.13 70.67 70.36 69.20 71.32 72.27 71.60 74.40 72.92 74.47 75.27 74.20 75.24 76.67 77.50
51.60 56.00 54.98 54.89 54.97 56.10 57.36 57.55 57.99 56.58 56.49 56.49 57.14 57.74 58.61 60.22 60.54 61.84 60.95 61.37 61.03 61.43 62.47 65.31 69.97 70.29 69.25 72.03 68.30 69.88 70.56 71.46 72.94 72.55 73.24 72.22 73.43 74.69
53.22 52.58 50.34 51.25 50.93 51.83 50.22 50.85 52.66 53.38 53.64 53.86 54.23 55.01 56.44 57.53 57.90 58.50 59.40 59.21 58.57 58.53 58.63 59.79 60.31 60.13 61.78 66.07 65.40 67.53 68.19 67.97 69.59 70.37 70.55 68.33 69.95 73.40
52.52 52.17 51.85 51.02 50.42 51.17 51.40 50.91 50.41 50.30 50.98 50.51 51.61 52.95 53.51 54.15 54.21 54.60 55.26 55.52 55.05 55.24 55.68 55.89 56.32 57.06 56.50 56.29 61.91 58.96 62.93 63.25 63.59 64.51 67.33 68.53 68.70 72.32
51.00 50.39 50.13 50.32 50.38 50.40 50.43 50.43 50.93 51.24 50.71 50.78 50.92 50.50 49.99 50.04 50.27 51.30 52.37 52.93 53.35 53.33 52.80 53.84 54.61 54.86 54.06 51.91 53.73 58.36 53.60 60.82 60.97 63.07 64.15 65.53 66.95 61.82
49.51 49.15 49.05 49.08 49.03 49.14 49.20 49.46 49.57 48.98 48.62 49.72 50.09 49.97 50.25 50.02 49.88 50.14 50.10 47.19 48.35 51.11 50.81 51.57 53.69 52.82 54.28 55.18 52.79 53.77 57.29 53.65 56.15 60.19 60.98 60.96 61.39 63.22
49.15 48.90 48.53 48.70 48.33 47.98 47.86 47.73 48.01 48.19 47.96 47.74 47.67 47.82 48.05 48.20 48.01 48.10 48.50 48.12 48.20 48.58 48.46 49.78 51.58 51.84 51.41 50.33 49.38 51.85 52.59 55.53 55.52 54.41 54.26 55.07 58.82 58.54
48.70 48.35 48.56 48.52 48.41 47.71 46.96 46.26 46.06 45.98 46.24 46.13 45.98 45.69 45.71 44.95 45.77 46.01 45.91 46.19 46.32 46.32 46.63 46.80 48.50 50.28 50.26 50.35 48.97 49.33 50.57 51.50 53.44 54.84 55.94 55.01 55.53 55.38

GFSNE_sfc_wetblb_105.txt.gz
Wetbulb
77.77 77.01 75.96 74.74 74.07 74.22 74.14 73.36 71.58 67.97 68.90 75.66 72.47 78.08 76.48 76.83 76.44 76.95 77.94 73.76 73.16 73.32 71.69 70.12 70.84 71.58 71.96 72.22 72.44 72.69 73.03 73.28 72.93 72.33 71.86 71.27 70.37 70.17
74.70 77.71 77.31 75.24 76.27 74.67 73.96 73.59 73.07 71.36 69.07 71.90 72.43 75.48 77.97 77.13 77.02 78.01 77.22 73.54 72.45 74.35 72.73 70.26 70.74 71.66 71.94 71.54 70.94 70.62 70.77 71.10 71.49 71.23 70.38 69.89 69.15 68.58
76.63 76.31 76.03 78.22 75.31 74.80 75.01 74.25 72.82 72.53 70.41 72.56 73.33 75.73 79.63 79.12 77.73 78.71 76.87 78.50 75.84 72.09 71.36 70.71 71.03 71.03 70.16 70.21 69.91 69.33 68.98 68.97 69.29 70.05 70.29 69.38 68.75 67.75
75.59 76.02 75.59 74.76 77.04 78.83 75.56 79.55 76.46 76.69 72.47 75.31 74.92 74.49 77.62 78.49 78.15 80.08 76.37 75.85 76.50 73.10 71.50 70.78 71.10 70.24 68.75 67.50 67.12 67.51 66.56 66.38 66.25 67.16 68.62 68.91 68.36 67.67
75.51 75.87 75.65 75.93 76.48 75.84 76.45 75.52 74.53 75.64 74.75 73.55 72.20 73.41 74.62 75.69 77.59 79.20 79.52 79.35 75.61 73.66 70.67 68.85 70.63 68.89 67.39 66.53 65.55 64.78 63.91 63.06 63.02 63.19 64.49 66.06 66.76 66.90
76.53 75.97 76.63 75.93 76.36 76.78 75.99 77.38 77.06 75.66 75.11 73.70 71.73 73.11 74.53 75.80 77.81 73.55 73.55 74.33 74.20 74.88 74.64 71.73 71.85 70.30 68.03 66.27 66.13 65.78 63.61 62.04 61.03 60.25 60.55 61.81 63.71 64.65
76.44 76.54 76.63 75.16 72.51 72.12 74.89 77.70 77.20 75.55 73.58 72.70 72.06 72.13 71.98 73.92 73.37 73.63 73.53 74.04 76.10 76.48 75.07 75.47 75.60 75.52 75.85 69.32 72.64 70.76 67.40 64.80 62.04 59.97 58.70 58.84 59.66 61.17
76.15 76.61 76.50 76.34 73.41 69.92 69.18 69.08 71.57 75.78 75.10 73.61 72.94 72.46 75.95 74.79 74.70 74.36 74.43 72.91 71.81 76.88 76.88 75.47 77.07 74.88 75.57 76.26 70.14 69.43 66.41 65.75 62.92 60.84 59.07 58.04 58.18 58.89
76.40 76.40 76.23 73.94 73.91 75.31 70.80 68.72 68.37 67.03 68.20 75.00 75.08 75.57 75.29 76.87 76.41 76.45 76.02 75.19 73.67 75.50 76.31 73.73 77.37 76.42 77.21 76.06 67.40 67.19 68.15 67.71 64.66 62.23 60.33 58.53 57.31 56.97
75.52 74.60 74.53 73.06 62.94 63.04 69.46 73.82 74.48 75.66 76.63 74.81 75.88 74.40 74.46 72.98 72.66 74.26 75.12 75.51 75.97 76.38 77.14 71.58 76.54 75.51 77.03 77.24 68.22 67.98 68.82 66.81 63.85 62.21 60.39 57.81 55.93 54.83
70.61 67.11 70.12 65.89 56.47 56.85 69.35 70.23 71.09 71.69 67.16 65.16 65.79 63.26 61.64 61.02 64.13 70.62 71.65 74.21 73.51 72.90 76.01 74.01 74.05 74.48 76.23 76.30 75.43 67.70 65.69 62.58 61.29 61.25 60.44 58.81 55.54 54.01
67.16 63.70 56.38 58.57 54.67 54.86 66.63 66.22 65.50 65.09 65.63 68.89 71.29 69.97 65.10 68.85 62.71 71.19 72.69 70.05 69.63 69.73 74.45 71.44 73.05 76.73 71.02 74.93 76.51 77.85 75.31 63.04 59.39 59.07 59.13 58.28 55.22 69.61
67.59 65.74 62.55 54.43 52.38 52.65 54.08 64.09 61.53 61.23 64.04 68.28 68.85 69.90 71.23 71.50 71.66 72.14 74.53 70.86 68.68 68.86 71.69 73.15 72.50 73.36 72.92 72.11 73.72 75.98 76.61 75.18 74.02 71.45 56.88 55.38 53.79 60.75
60.64 59.86 59.50 51.77 50.66 51.73 56.77 54.53 54.14 56.56 64.71 63.89 64.16 65.37 66.58 65.82 66.69 68.48 73.03 71.87 70.36 72.19 72.78 75.53 72.69 72.95 72.22 70.39 69.85 73.62 74.45 76.14 76.18 75.48 77.01 65.78 54.08 53.82
57.42 55.53 53.38 51.64 51.58 53.92 55.15 55.57 55.78 62.91 62.40 62.39 62.59 62.74 61.93 64.31 69.39 68.51 68.56 69.72 70.18 71.40 68.48 73.81 70.07 69.75 68.20 67.71 68.32 70.02 70.21 72.86 74.86 75.05 75.46 75.08 75.77 76.42
55.98 58.07 55.48 54.64 54.39 56.63 59.61 60.60 60.81 58.83 58.62 57.48 57.76 59.23 60.05 60.32 60.70 62.62 60.98 60.66 60.98 62.17 68.22 69.68 68.99 64.96 62.67 64.42 65.23 65.18 68.96 68.21 71.20 72.46 73.87 74.38 74.82 74.99
51.40 56.92 55.41 55.92 54.73 54.53 54.75 56.08 55.90 56.07 54.82 55.33 55.34 55.57 56.29 57.21 58.30 59.32 58.90 58.67 57.69 58.04 57.94 60.67 63.65 63.22 62.55 63.97 61.43 64.21 66.03 67.48 69.33 69.02 67.68 66.82 68.85 70.74
53.98 55.02 53.79 53.81 53.49 52.46 52.22 51.85 53.03 52.58 51.51 52.16 52.04 53.27 53.27 53.98 53.75 55.20 56.48 56.51 55.67 56.53 56.48 57.56 57.86 57.31 58.41 61.59 61.66 59.03 59.84 60.23 62.18 61.97 62.26 61.32 63.34 68.22
54.49 54.09 53.62 53.45 53.56 53.84 53.51 52.91 52.13 53.04 55.49 53.00 52.89 53.33 52.71 51.80 51.73 51.16 51.62 52.34 52.29 52.55 53.44 55.12 55.86 54.96 52.18 51.28 57.17 55.18 55.03 55.45 56.36 57.53 60.44 61.83 63.10 65.77
53.40 52.73 52.20 52.44 52.17 52.15 51.89 51.85 52.11 51.98 51.40 52.02 51.63 51.27 50.73 50.48 50.44 50.46 50.83 50.54 49.86 49.90 49.85 51.31 51.38 52.29 48.71 49.19 51.19 54.53 52.22 56.58 57.02 56.27 55.87 57.99 58.78 56.78
52.11 51.53 51.91 51.84 51.55 51.38 51.12 51.17 51.36 50.08 49.88 50.09 49.98 49.74 49.81 49.09 48.73 48.89 48.59 46.40 46.70 48.63 47.76 48.32 51.05 51.88 52.82 54.06 51.55 52.35 54.95 51.99 53.20 54.23 54.16 52.28 52.14 53.95
51.81 51.22 51.19 51.21 50.84 50.57 50.27 49.83 49.55 49.23 49.22 48.82 48.43 48.05 47.61 47.01 46.50 46.33 46.59 46.22 46.50 46.78 46.74 48.07 50.95 50.93 50.06 48.76 48.28 49.89 50.82 53.66 54.29 53.08 52.53 52.19 52.15 50.12
51.11 50.85 50.93 51.12 50.76 50.05 49.29 48.67 48.06 47.96 48.04 47.33 46.34 45.67 45.35 44.44 45.12 45.16 44.97 44.95 45.05 44.95 44.95 44.93 46.15 47.99 46.71 46.98 47.04 47.95 48.88 49.66 52.01 52.51 53.28 53.26 52.28 51.71

GFSNE_sfc_wetblb_108.txt.gz
Wetbulb
76.60 77.91 76.79 75.54 74.61 74.74 72.14 74.23 71.57 68.12 68.20 69.45 70.48 70.79 75.93 75.76 76.27 76.89 76.50 73.83 72.65 74.43 73.22 71.78 71.64 72.18 71.51 71.67 71.50 71.51 72.06 72.46 72.96 72.99 72.49 72.42 72.35 71.81
76.33 76.02 77.66 76.25 75.46 74.85 73.18 74.07 73.61 71.30 68.92 72.16 72.19 76.00 77.10 75.82 76.38 75.91 76.52 73.04 72.43 71.78 71.93 73.17 73.02 72.76 71.93 71.45 70.90 70.56 70.23 70.47 70.79 71.32 71.30 70.83 70.38 70.29
77.72 76.00 75.96 77.11 76.17 75.44 74.98 74.38 73.14 73.77 70.88 72.20 73.02 74.04 74.82 76.76 76.84 77.11 77.39 75.56 75.10 71.84 73.05 71.73 72.44 72.70 71.19 70.52 70.01 69.55 69.28 68.95 68.95 69.38 70.39 70.35 69.58 69.23
76.78 77.06 76.34 75.35 75.95 77.62 76.08 75.59 74.58 75.55 73.82 70.38 74.59 72.26 73.29 75.23 77.64 76.51 77.53 75.15 75.25 72.55 70.41 71.56 71.67 69.97 69.33 67.99 67.49 67.61 67.01 66.71 66.31 66.75 67.94 69.35 69.26 68.71
76.84 76.81 76.12 76.49 75.84 75.22 76.19 75.82 74.74 74.83 74.91 73.57 73.00 73.50 73.30 74.64 73.00 74.84 75.05 76.14 76.78 73.66 71.55 69.38 68.92 67.96 67.32 66.29 65.39 64.90 64.18 63.73 63.27 63.29 63.73 65.37 67.49 68.04
76.17 76.08 73.48 74.95 76.38 75.95 75.03 75.59 74.69 74.69 73.71 73.22 72.34 72.40 72.81 74.36 72.48 72.96 72.33 74.56 74.01 76.40 74.89 72.78 71.27 70.25 67.99 65.81 65.34 65.84 64.09 62.80 61.69 60.89 60.51 60.74 62.90 65.31
77.16 75.92 76.90 74.48 71.84 72.13 75.00 75.82 76.37 75.13 74.28 72.62 71.69 71.67 72.02 73.02 72.43 73.80 73.41 73.98 74.14 75.05 75.22 75.35 75.38 75.73 75.46 71.09 71.42 69.73 68.23 65.17 63.17 60.98 59.29 58.88 59.13 60.46
75.63 75.66 75.00 74.82 72.35 70.27 69.70 69.51 71.11 73.84 73.72 73.20 72.43 71.61 72.59 73.39 73.89 73.68 73.26 72.24 70.61 75.87 74.15 73.71 74.74 73.73 75.26 74.92 71.01 70.50 68.67 67.69 63.66 61.98 61.53 59.48 58.60 58.73
77.08 76.94 75.64 68.57 64.87 67.81 70.01 69.28 68.60 67.06 67.78 72.61 72.42 72.70 72.74 74.04 72.84 71.66 71.63 71.67 71.26 73.39 73.99 71.97 74.55 74.21 75.52 75.18 69.58 67.75 68.73 65.46 64.99 63.34 61.89 60.18 58.64 57.26
73.31 73.61 69.68 64.18 59.03 60.46 66.87 72.73 72.96 74.00 73.17 71.74 72.33 70.83 69.97 70.73 70.37 70.09 70.58 71.99 73.66 73.91 74.28 71.14 73.06 72.11 73.76 75.06 69.06 67.47 65.64 65.66 64.83 62.31 60.72 58.59 57.02 55.45
65.43 62.29 65.18 62.04 57.68 57.31 68.62 67.55 68.72 67.29 63.75 63.79 64.70 62.72 61.60 61.18 62.69 66.76 69.86 69.77 69.19 69.58 72.24 70.14 71.22 71.01 72.77 73.14 74.48 68.72 65.26 63.25 61.97 59.97 59.75 58.59 55.15 55.47
63.28 60.06 56.91 57.13 55.14 55.27 64.19 64.55 62.46 62.78 61.45 63.45 65.98 67.76 67.45 67.77 62.37 69.21 71.20 67.66 67.19 66.26 69.65 68.55 70.21 70.87 68.91 73.56 72.49 73.32 74.35 65.69 60.44 59.57 59.40 57.13 56.22 63.52
64.29 61.70 60.09 54.37 52.51 52.79 54.28 62.76 60.29 57.85 60.31 62.20 64.19 67.47 66.29 65.92 68.10 67.65 71.66 67.94 65.77 64.12 67.75 70.22 69.01 69.64 69.05 67.37 70.07 71.39 71.89 71.86 71.91 72.63 62.45 59.12 54.31 59.10
59.66 60.11 59.46 51.77 50.59 51.67 55.59 54.43 53.65 56.33 63.18 62.15 60.47 60.29 60.52 62.11 64.72 67.53 68.82 66.85 65.22 66.30 70.20 68.09 65.84 61.59 62.61 63.26 62.33 64.99 65.29 66.12 68.41 71.71 73.73 69.44 60.70 54.97
56.30 54.32 53.25 51.59 51.94 56.31 56.29 55.71 56.72 57.37 58.13 57.11 57.71 58.22 58.94 60.51 62.64 61.33 61.36 62.40 62.13 64.74 63.91 64.67 59.55 58.09 57.86 57.08 56.70 57.35 58.56 62.58 67.42 66.71 63.10 65.72 66.89 67.47
57.01 59.39 56.19 54.95 54.82 55.27 55.28 55.98 55.41 54.51 54.25 53.78 54.50 56.10 57.25 56.47 56.36 56.34 56.51 57.28 57.03 57.24 60.32 61.53 58.55 56.62 54.86 55.13 55.87 56.42 59.30 57.38 60.18 59.59 57.12 58.75 60.12 61.84
47.04 58.32 57.10 57.10 54.91 53.99 53.36 53.38 52.89 52.19 51.07 52.06 52.18 52.25 52.37 52.71 51.09 53.88 53.68 53.46 52.62 52.75 52.78 54.34 55.27 56.51 57.16 57.43 54.85 55.59 53.52 52.95 54.14 53.84 54.40 54.17 55.66 57.21
52.72 57.71 55.18 55.73 54.80 54.62 54.32 54.83 53.99 54.10 54.00 54.01 54.12 53.25 52.79 52.31 50.89 52.39 52.72 51.31 49.53 49.34 48.90 49.72 50.87 50.42 51.61 53.11 56.10 50.20 50.70 50.48 52.35 53.42 54.29 54.13 53.92 55.71
52.20 57.04 55.98 55.35 54.62 54.86 54.20 53.61 52.92 52.76 54.59 54.24 53.03 52.37 51.34 50.52 49.86 49.26 49.36 48.53 47.27 46.93 47.92 50.31 49.43 48.59 44.16 42.69 47.75 52.92 48.89 49.99 51.74 51.77 52.09 50.61 50.47 51.80
55.44 54.58 53.92 53.47 53.36 52.51 52.41 51.41 52.21 51.02 51.30 51.47 50.64 50.10 48.97 48.25 47.45 47.29 47.04 46.39 45.87 46.29 46.71 47.66 47.19 46.01 44.29 43.96 45.56 48.84 50.17 49.62 48.28 47.70 48.35 49.44 50.88 53.13
53.09 52.79 53.11 52.67 52.46 52.21 52.25 52.30 52.24 50.54 50.63 49.90 48.90 48.05 47.06 46.11 45.84 45.79 45.72 44.86 44.93 45.11 43.87 44.44 45.80 50.52 47.88 47.73 44.48 45.08 47.65 49.18 49.14 46.74 46.38 46.74 46.57 47.31
53.30 52.25 52.45 52.60 52.13 52.33 51.81 51.95 50.90 49.75 48.93 47.74 46.73 46.05 45.36 45.15 44.14 44.02 43.98 43.27 43.21 43.68 43.48 44.81 45.84 45.27 43.86 43.35 42.39 43.11 43.80 45.68 48.00 49.56 49.52 48.61 44.98 42.74
53.08 52.39 52.37 52.78 52.21 51.17 51.22 50.50 48.74 48.04 47.26 46.09 44.90 44.30 44.37 43.12 43.61 43.47 43.05 42.59 41.86 41.42 42.07 41.43 41.97 42.57 41.67 41.76 41.75 40.77 41.53 42.29 42.88 42.79 44.29 48.16 49.10 49.96

GFSNE_sfc_wetblb_114.txt.gz
Wetbulb
70.96 70.52 70.06 69.42 67.61 68.96 68.19 66.15 64.03 60.99 62.44 65.66 64.35 69.85 69.56 69.23 70.58 70.39 70.01 71.20 70.75 69.89 68.27 67.85 69.39 69.93 70.43 70.45 70.70 70.98 71.32 71.66 72.08 72.15 72.66 72.95 73.66 74.27
71.50 68.82 69.57 69.74 69.91 70.35 71.69 70.08 67.63 64.94 64.13 65.88 67.02 67.75 70.24 71.03 71.63 72.44 71.81 71.86 71.33 69.27 68.24 67.25 68.29 69.03 69.83 69.86 69.47 69.50 69.76 69.85 70.02 70.25 70.51 70.81 71.14 71.73
70.84 70.57 69.82 70.74 70.31 71.07 70.70 70.57 69.37 68.90 65.24 66.55 68.76 70.04 69.33 69.55 69.74 72.44 73.36 73.56 71.80 69.43 67.93 67.97 67.58 67.76 67.82 68.08 68.36 68.05 68.49 68.58 68.69 68.96 69.42 69.77 70.43 70.36
70.14 70.24 70.27 72.10 69.74 70.15 70.17 69.73 69.14 69.61 67.59 65.60 67.29 69.33 68.68 69.44 68.67 70.81 72.89 74.65 72.91 71.44 68.24 68.32 67.80 67.05 66.67 65.94 64.71 65.20 65.47 66.22 66.49 66.65 67.21 68.16 69.11 69.45
71.43 70.70 70.20 69.70 69.12 68.55 69.80 69.45 69.10 70.29 69.22 68.06 67.74 69.17 69.54 69.99 69.74 70.77 71.58 71.81 73.64 71.99 70.22 68.91 68.16 67.50 66.32 65.18 63.30 62.61 61.92 62.52 62.93 63.22 63.80 64.31 66.17 68.08
71.53 71.49 70.58 70.30 70.15 69.36 70.15 69.72 70.09 69.47 69.02 68.10 67.81 67.79 68.62 70.68 70.15 69.37 68.04 69.86 70.12 73.17 71.88 70.27 69.36 69.48 67.92 66.60 65.99 64.45 62.20 60.76 60.43 60.07 60.18 60.66 61.55 63.88
70.74 71.69 70.20 69.85 68.40 68.06 69.47 68.97 68.54 68.01 67.79 67.72 67.20 67.49 67.70 68.31 68.08 68.78 67.20 68.31 68.16 70.84 70.26 71.39 71.19 71.87 71.62 69.88 69.47 67.63 64.73 63.42 62.43 59.80 59.64 58.72 59.03 59.80
69.47 66.65 64.85 66.51 67.02 65.69 65.57 66.80 68.22 67.83 66.64 67.36 67.33 66.47 67.11 67.58 67.14 64.13 65.24 65.35 64.85 69.62 68.44 69.10 70.93 69.96 71.09 71.27 65.52 64.91 63.17 61.80 61.82 61.61 62.38 59.03 58.73 58.07
69.00 65.97 61.40 60.15 61.56 64.82 66.56 64.33 62.82 63.80 65.32 67.14 65.54 64.63 64.52 63.27 63.11 62.14 62.46 64.71 65.24 66.17 66.51 66.80 68.15 67.10 70.42 69.81 63.36 62.27 61.06 58.72 59.58 60.58 61.43 58.03 56.86 59.60
62.20 59.46 57.38 58.15 59.42 63.92 63.32 62.25 58.82 57.01 57.51 59.57 59.66 60.89 62.28 63.19 62.80 63.21 63.94 65.08 66.67 67.07 63.61 62.59 66.87 63.94 68.65 66.76 62.17 59.77 58.54 57.57 57.29 56.03 55.56 55.75 55.19 54.33
58.34 56.71 55.72 55.42 57.05 59.17 55.79 53.59 53.32 55.88 58.74 59.50 60.05 60.11 59.62 59.86 62.10 62.78 62.23 59.22 59.17 61.50 57.02 61.10 62.60 63.75 66.23 63.53 63.42 58.20 56.95 56.39 54.68 54.61 54.10 53.02 52.72 55.08
53.57 53.77 56.12 54.21 53.72 54.97 53.66 52.43 53.48 53.49 56.06 56.34 56.56 57.47 58.37 58.04 58.69 58.71 58.07 55.44 56.16 53.70 55.42 56.65 52.12 56.14 57.45 61.54 59.94 55.91 56.90 54.78 52.89 52.02 52.68 51.93 50.82 56.49
54.54 53.29 53.13 53.14 51.65 52.26 53.46 53.99 54.88 55.25 56.12 53.28 53.55 53.83 54.17 53.14 53.74 54.17 54.14 55.48 53.07 48.80 51.91 55.78 50.16 51.48 50.48 52.22 53.39 53.97 54.55 51.96 51.07 51.72 51.40 50.55 50.83 52.17
56.17 54.29 52.33 51.37 50.63 51.34 52.64 51.77 51.83 52.69 51.46 50.96 50.59 49.74 49.41 49.66 50.11 51.13 53.44 55.02 53.31 49.96 49.50 49.52 48.09 48.26 47.43 46.98 47.82 50.99 50.14 50.41 50.00 50.16 50.98 50.97 51.41 51.66
52.64 52.63 51.35 49.55 49.71 50.70 51.96 51.63 50.62 48.12 47.17 47.01 45.85 45.77 46.52 47.24 48.50 48.36 49.09 49.85 48.71 49.46 50.67 48.41 46.85 46.29 47.22 46.39 46.58 44.54 45.14 45.54 48.81 48.27 47.05 47.48 48.66 49.22
51.27 52.17 52.16 51.56 51.31 50.49 48.83 48.79 48.44 47.25 46.49 45.40 45.16 45.35 46.09 46.09 46.59 46.47 45.18 45.23 43.99 44.39 46.55 49.46 47.21 44.29 42.70 44.43 42.76 42.50 42.93 41.80 45.96 45.39 45.23 45.32 46.21 46.91
45.84 49.77 48.36 46.92 45.74 46.41 46.44 46.90 47.01 46.72 46.54 46.08 44.99 44.29 44.90 45.78 45.58 45.17 44.40 42.55 42.09 41.15 42.84 44.99 44.21 44.04 43.02 44.56 40.97 41.56 42.35 42.81 44.20 43.63 42.92 42.00 43.36 44.75
46.61 47.55 46.17 45.99 45.71 45.86 46.17 44.73 44.85 47.28 45.53 44.80 43.54 42.94 43.03 42.43 41.77 42.45 42.08 40.53 40.24 40.58 41.19 41.49 41.91 40.61 40.95 42.02 47.55 41.90 42.05 42.08 42.56 42.28 42.12 40.58 41.16 43.76
45.75 47.28 46.30 46.11 46.07 46.17 45.03 44.73 43.41 43.79 44.10 43.13 41.88 41.86 42.24 42.14 40.35 40.01 39.82 39.69 39.41 38.64 39.10 39.60 39.87 38.32 35.82 34.80 39.05 47.66 40.26 40.49 40.54 40.12 41.31 40.73 40.02 41.75
44.37 45.56 44.56 44.01 43.89 44.14 43.80 42.77 42.58 42.47 41.32 40.71 40.33 40.07 39.81 39.71 39.21 38.56 38.58 37.79 37.39 37.37 37.04 37.54 37.65 37.54 35.40 35.04 36.36 38.65 44.85 39.34 39.40 39.15 39.65 41.38 42.86 46.44
44.46 44.59 45.35 44.56 43.56 43.18 43.13 42.14 42.21 40.69 39.46 38.95 38.28 38.12 38.33 38.05 37.53 37.94 37.86 39.46 37.78 36.09 35.39 35.77 37.15 43.33 38.28 38.12 36.67 37.36 40.21 44.51 43.93 40.80 41.00 40.57 39.62 40.37
46.05 46.05 45.77 44.90 43.59 42.90 42.42 41.73 40.75 39.84 38.38 37.93 37.47 37.44 37.23 37.24 36.85 36.47 36.46 35.73 35.54 35.79 35.64 36.52 37.76 37.48 37.56 38.54 37.53 38.54 39.53 41.03 43.84 45.68 45.74 44.67 41.41 38.71
45.22 46.47 44.35 43.67 43.53 43.23 41.81 41.30 41.00 40.79 39.62 37.71 37.18 36.97 37.01 36.14 36.16 36.35 36.26 36.23 36.00 35.75 35.77 36.15 37.76 38.11 37.48 37.53 38.58 38.55 39.80 40.21 41.21 41.10 41.66 46.78 47.68 47.88

GFSNE_sfc_wetblb_117.txt.gz
Wetbulb
69.86 69.49 68.61 67.30 66.32 67.06 67.60 65.18 64.00 60.72 60.73 65.12 64.46 67.72 69.67 70.26 71.08 71.19 70.56 70.37 69.77 68.85 67.63 67.54 68.54 69.53 70.41 70.60 70.83 71.09 71.21 71.49 71.65 71.77 72.55 73.47 74.14 74.62
70.52 69.03 69.29 69.23 68.80 69.33 68.63 68.34 67.01 64.11 61.58 65.14 67.05 67.24 68.62 70.47 71.94 71.69 72.36 71.57 70.12 68.29 68.54 67.81 67.69 68.34 69.07 69.36 69.42 69.39 69.63 70.04 69.91 70.02 70.16 70.58 71.31 72.23
70.05 69.07 68.94 69.61 69.46 69.76 69.67 69.40 68.41 67.22 63.73 65.61 67.66 69.36 69.02 68.59 69.43 71.63 73.51 72.61 72.14 68.80 68.91 68.19 67.23 67.14 67.39 67.47 67.05 67.82 68.53 68.53 68.62 68.86 69.11 69.55 69.95 70.68
69.35 69.33 69.23 70.69 68.58 69.07 69.37 68.53 68.15 68.25 66.46 64.52 66.70 68.38 68.30 69.72 69.41 70.19 71.74 72.81 71.78 70.26 68.26 67.42 66.92 66.61 65.65 64.45 63.59 64.92 65.27 65.68 66.43 66.08 66.79 67.37 68.40 69.19
70.53 69.92 69.70 69.45 68.54 68.24 68.47 68.51 68.25 69.85 68.59 67.19 66.54 68.05 68.47 70.01 69.93 70.08 68.77 69.51 72.06 71.33 69.32 68.73 67.50 66.79 65.65 64.66 62.34 61.30 60.70 61.46 62.18 62.03 62.33 63.47 64.84 66.77
70.99 71.09 70.63 69.73 68.84 68.88 68.91 68.87 69.05 68.27 67.89 66.74 66.31 66.94 67.53 69.49 68.93 66.99 65.81 67.69 68.91 70.28 70.80 69.24 68.24 68.46 65.72 63.31 63.23 61.71 60.56 61.98 59.42 59.67 60.10 60.63 61.73 63.11
70.26 70.26 69.19 69.17 67.96 67.71 69.35 68.78 68.09 67.01 66.70 66.29 65.93 66.24 66.62 66.49 65.30 65.84 64.94 66.13 67.24 66.44 68.09 68.71 69.60 67.94 63.06 63.38 62.57 61.09 59.04 59.29 58.39 59.80 60.77 61.63 58.71 59.10
68.83 66.70 66.36 68.00 66.68 65.96 65.89 66.81 68.00 67.35 66.21 66.92 66.51 65.43 64.50 64.14 63.42 62.19 63.25 64.19 63.18 65.01 64.64 66.43 67.09 67.98 60.37 60.32 60.72 58.77 57.28 56.57 56.28 55.90 56.68 60.29 59.62 60.35
68.32 65.02 61.25 60.74 63.14 66.01 62.96 60.95 60.81 61.73 65.46 66.92 64.24 63.26 62.70 62.57 62.17 61.15 62.31 63.75 62.60 60.16 63.38 64.56 65.63 66.38 61.59 59.33 59.99 57.49 56.13 55.55 55.65 55.35 55.05 55.35 57.25 56.96
63.94 61.42 59.18 60.51 61.07 64.70 61.19 56.83 56.22 56.69 57.10 58.45 59.05 60.20 60.54 61.69 62.49 62.42 63.62 63.23 65.75 58.94 56.19 61.27 63.02 62.00 64.53 57.67 58.90 56.30 55.02 54.52 54.32 54.39 54.31 52.90 52.52 53.74
59.49 60.36 60.96 60.16 58.23 59.15 58.39 53.36 56.15 56.86 58.82 58.44 58.71 57.87 57.14 57.63 60.20 60.76 58.32 56.29 57.23 56.91 51.57 56.28 51.79 54.74 63.45 54.47 54.94 57.52 53.55 52.80 52.55 53.18 53.79 52.35 51.44 53.17
56.92 57.05 57.08 56.11 56.43 55.06 52.81 54.15 55.32 53.83 54.21 54.52 53.58 53.87 53.66 54.57 56.74 54.97 55.75 54.48 53.75 48.39 50.42 49.72 48.41 51.38 50.36 56.14 51.51 51.38 49.86 51.42 50.87 50.61 51.37 51.48 49.56 51.23
53.96 53.32 53.58 53.54 52.51 52.59 53.66 55.94 54.77 54.30 53.69 51.84 51.58 50.70 50.67 51.63 52.75 53.14 50.99 50.62 47.37 45.22 48.85 52.44 47.95 49.86 48.61 49.07 49.67 48.90 48.81 48.30 47.92 47.07 48.20 48.05 48.62 49.45
54.35 54.19 53.59 51.38 50.05 50.78 52.42 52.54 53.49 53.85 51.72 49.67 47.57 46.57 46.33 47.14 48.09 49.20 48.45 47.81 47.82 46.36 46.74 46.55 45.62 46.22 45.88 45.88 45.37 45.62 45.33 47.29 46.35 44.70 44.92 46.54 47.63 48.35
54.15 54.22 50.44 49.18 49.45 50.72 51.94 51.44 51.70 50.45 47.87 45.18 44.19 44.41 44.28 45.73 45.91 46.45 46.85 44.76 44.69 46.58 47.43 44.12 42.32 43.42 44.85 42.71 43.06 40.75 41.18 42.61 44.30 42.95 42.99 42.73 42.24 43.43
53.60 52.59 51.67 50.95 50.72 49.76 49.56 49.36 48.28 47.51 46.91 46.12 45.49 45.80 46.11 44.73 43.63 44.58 42.88 43.82 41.88 42.24 44.67 45.65 42.62 42.95 42.52 42.82 40.43 39.20 40.57 40.24 42.06 41.58 41.08 41.08 41.85 42.76
48.21 48.33 46.70 45.82 45.69 45.43 45.38 46.02 46.28 46.19 44.72 43.44 42.56 42.21 41.93 41.93 40.87 40.85 40.21 39.94 39.65 39.14 39.87 41.58 42.21 42.02 42.97 41.92 39.09 39.75 40.08 39.36 40.64 40.76 40.46 39.94 40.59 42.25
47.65 47.37 46.08 45.29 45.11 44.29 44.18 44.67 45.13 45.20 43.27 42.39 41.56 41.24 40.70 40.13 39.78 40.21 39.99 38.53 38.03 38.04 38.43 39.04 38.78 37.69 38.16 39.72 44.06 38.38 37.85 37.70 39.13 39.89 39.38 38.69 38.59 41.71
48.14 47.60 46.28 45.52 45.55 44.86 43.61 43.01 42.48 41.92 41.44 41.05 40.84 40.48 40.17 39.83 38.65 38.31 38.24 37.65 37.07 36.16 36.32 36.37 37.05 35.82 34.09 33.58 37.20 44.97 37.59 37.66 38.54 38.27 38.46 38.73 38.28 40.44
47.36 47.67 46.35 46.61 45.22 43.13 42.29 41.67 40.79 39.81 38.76 38.56 38.58 38.64 38.36 38.00 37.44 36.89 36.48 35.45 35.72 35.54 35.14 35.51 36.10 36.21 34.43 34.22 35.21 37.37 43.85 38.24 38.02 38.08 38.30 39.49 40.66 45.92
45.79 46.13 46.36 45.49 43.04 42.35 41.62 41.67 41.57 40.29 38.89 38.28 37.57 37.16 37.38 37.07 36.36 36.53 37.14 38.63 36.73 34.98 34.51 34.67 36.03 42.26 37.63 37.47 35.66 35.91 38.39 44.01 43.13 39.03 38.73 38.15 38.58 38.85
45.94 45.69 45.72 44.94 44.18 43.17 43.45 42.48 41.41 40.10 39.32 37.90 37.48 36.95 36.54 37.12 36.43 36.02 36.02 35.38 35.33 35.55 35.14 35.87 37.32 37.22 36.78 36.69 35.69 36.45 37.15 40.08 43.28 45.62 46.41 44.40 40.92 39.21
45.71 44.93 44.62 44.40 43.21 43.81 41.93 41.39 40.77 40.01 38.13 36.87 36.82 37.29 37.49 36.41 35.74 36.23 36.46 36.69 36.53 35.71 36.39 36.35 36.52 37.16 36.62 36.63 37.75 36.44 37.09 38.09 38.69 39.68 41.08 46.61 47.93 48.40

GFSNE_sfc_wetblb_120.txt.gz
Wetbulb
71.64 72.30 72.25 69.82 69.07 70.22 69.87 69.27 69.12 66.61 65.81 69.61 69.81 72.54 72.48 73.39 74.02 75.06 75.50 70.36 69.68 69.02 68.00 67.85 68.40 69.32 70.02 70.58 70.82 71.02 71.48 71.77 71.71 71.86 72.65 74.20 74.57 74.95
72.25 72.22 72.45 71.91 71.96 71.60 71.41 71.11 69.99 68.12 66.58 68.69 71.20 71.88 72.49 73.28 73.76 75.33 75.00 72.27 70.15 68.67 67.96 67.08 67.54 67.99 68.03 67.90 67.83 69.17 69.44 70.03 69.94 70.08 70.24 70.68 71.53 72.82
72.52 72.21 71.76 72.01 71.80 72.20 72.39 72.22 71.12 69.65 68.14 69.17 71.00 72.74 73.41 73.19 73.86 74.18 73.68 74.84 74.53 68.43 67.92 67.34 65.93 65.85 65.63 65.34 65.89 67.21 68.31 68.56 68.30 68.57 68.92 69.48 69.87 70.62
71.71 71.94 71.95 71.52 71.91 72.42 71.70 72.23 71.26 71.54 69.36 69.02 70.98 72.26 72.41 73.58 73.58 72.92 72.59 73.69 74.31 69.56 67.27 65.25 64.01 62.87 62.93 63.29 62.70 62.43 62.90 64.21 63.91 64.17 64.95 66.72 68.19 69.21
72.38 72.18 72.06 72.14 72.35 71.50 71.27 71.65 71.20 72.61 71.62 70.77 70.58 71.45 72.23 73.30 72.97 71.53 71.41 72.35 71.86 70.23 67.84 65.09 63.35 61.80 60.29 60.32 60.26 60.08 58.87 59.46 59.99 60.89 63.28 63.15 64.41 66.00
72.82 72.86 72.97 72.58 72.18 72.31 71.60 72.23 71.66 71.22 71.26 70.09 69.97 70.67 71.18 72.64 71.40 69.56 69.87 70.96 67.42 70.91 69.50 66.12 63.43 62.18 60.57 58.96 59.28 58.50 56.96 57.19 57.29 59.44 59.00 60.74 61.02 63.26
72.31 72.49 71.74 71.63 68.81 70.08 72.69 72.24 71.64 70.57 70.13 69.92 69.59 69.92 70.43 68.91 68.43 68.61 68.91 69.96 68.78 66.87 69.12 66.57 62.15 61.07 59.25 58.95 59.39 58.91 57.76 57.36 56.86 56.70 57.65 58.30 59.32 58.35
71.45 70.98 69.65 68.53 67.75 65.98 66.78 67.25 70.82 71.07 70.56 70.20 69.92 69.28 68.18 68.07 67.58 66.61 67.88 68.93 65.00 64.10 67.89 66.21 61.70 60.19 57.94 57.17 57.79 57.39 56.75 56.05 56.08 56.80 56.93 55.85 55.73 56.00
70.78 69.07 66.05 64.40 65.67 66.27 62.41 61.52 61.69 61.91 66.58 70.95 69.75 68.27 67.24 67.40 66.69 66.38 67.21 67.33 61.30 59.37 66.82 62.31 63.23 57.30 55.44 55.38 56.58 55.95 55.44 55.24 54.39 54.06 55.03 54.65 53.67 52.79
68.31 66.33 64.27 64.33 64.90 65.81 62.45 60.56 61.16 62.19 63.00 62.47 65.12 64.47 64.69 65.24 66.47 66.96 67.81 67.53 64.22 58.39 60.07 61.91 61.37 56.93 57.63 55.70 55.57 54.77 53.42 52.91 53.20 53.07 52.48 51.77 51.63 51.64
62.78 63.03 64.19 63.33 59.16 60.33 63.46 60.57 60.39 59.57 57.49 57.23 57.14 56.52 56.55 57.43 62.37 65.59 62.15 63.04 62.03 57.35 54.83 57.64 55.92 59.36 54.19 53.27 54.02 53.66 52.47 50.77 50.14 50.99 51.47 50.41 49.51 49.87
58.84 57.97 57.49 58.71 55.52 55.92 58.96 59.24 59.34 58.43 58.36 57.52 56.84 56.56 57.02 56.73 55.80 59.21 60.90 60.39 58.58 54.24 52.76 54.87 54.00 56.43 58.39 53.35 52.30 52.11 51.30 49.98 48.83 48.45 49.10 48.92 47.98 50.77
56.57 55.48 55.26 53.67 52.19 52.56 53.94 60.50 58.66 57.42 55.62 54.86 54.30 54.74 54.39 54.08 53.44 52.79 53.46 54.93 52.34 50.20 50.55 55.37 52.98 54.21 54.62 53.87 51.28 50.78 49.82 48.58 48.35 48.37 47.48 46.58 46.97 47.62
54.97 54.99 54.76 50.75 49.93 51.11 53.86 52.45 52.29 54.39 54.34 53.47 52.43 52.02 50.95 50.63 50.27 50.01 51.04 50.99 50.14 48.49 49.23 51.28 50.77 50.95 52.38 51.67 48.36 48.33 48.99 47.70 47.55 46.95 47.52 46.94 47.03 47.08
55.64 53.45 50.47 48.91 49.64 51.19 52.17 52.50 53.10 52.49 50.36 49.52 49.07 49.31 49.48 50.48 50.87 50.14 49.84 50.19 49.35 48.74 48.54 48.18 49.45 49.46 49.04 48.08 45.64 44.75 45.43 46.51 46.13 45.35 46.14 46.19 46.55 47.05
54.19 53.77 52.35 50.99 50.36 50.86 51.94 51.46 50.25 49.83 50.69 50.22 49.33 48.88 48.71 47.58 47.00 47.86 47.10 46.79 45.01 44.53 46.81 48.20 48.99 49.76 44.81 44.76 44.97 43.36 44.19 42.83 44.55 44.90 45.44 46.39 46.97 47.21
51.10 51.05 50.23 50.14 49.65 49.92 50.30 50.60 50.35 50.06 49.43 48.75 47.89 46.70 46.02 45.99 44.79 45.51 44.40 44.21 43.22 42.34 42.41 44.50 46.62 47.84 46.55 46.68 42.96 43.47 43.26 43.46 44.60 44.82 45.05 45.01 46.35 46.91
51.73 50.62 49.17 49.31 49.13 49.12 49.25 48.76 48.46 47.50 47.12 47.10 46.41 45.69 44.60 44.37 43.83 43.99 43.84 42.79 41.36 41.60 41.92 42.92 43.69 43.90 44.48 45.68 45.58 43.00 43.06 42.95 44.00 45.07 45.49 44.24 45.11 47.31
50.39 50.68 50.13 49.06 48.15 47.56 47.24 47.68 46.61 45.83 46.65 45.45 45.21 44.47 44.08 43.72 43.21 42.71 42.58 42.10 41.05 41.27 41.30 42.52 42.64 43.16 42.27 41.42 44.00 44.96 42.97 43.67 43.83 44.13 44.66 44.37 43.91 45.81
47.10 48.86 47.75 47.68 47.63 46.85 46.18 45.57 44.33 44.12 44.04 44.16 44.10 43.95 43.73 42.94 41.95 41.23 41.42 41.17 41.13 41.15 41.60 42.17 42.42 41.58 41.50 41.40 42.24 44.25 43.92 44.10 43.84 43.71 44.20 45.32 46.34 47.17
48.60 48.63 48.00 48.20 47.46 47.34 46.89 45.94 44.06 43.37 43.19 42.90 42.77 42.74 42.71 42.14 41.21 41.38 40.93 40.16 40.04 40.92 40.28 40.67 41.85 42.86 43.85 43.48 42.17 42.95 45.07 44.85 44.98 44.38 44.71 43.85 43.65 44.85
48.38 48.85 48.63 48.42 47.70 47.65 46.58 44.99 44.67 43.71 42.78 42.59 42.17 42.14 42.24 42.15 41.03 40.87 41.20 41.10 41.24 41.54 41.45 42.48 43.43 43.43 43.24 42.22 41.48 41.98 43.60 45.40 46.63 45.75 46.25 45.78 44.20 42.07
48.79 48.96 48.35 47.92 47.48 47.06 46.25 45.17 44.08 43.36 43.05 42.19 42.09 41.68 41.17 40.47 41.20 41.14 41.36 41.44 41.45 40.85 41.88 42.43 42.78 43.32 43.01 42.40 41.22 41.87 42.60 43.56 44.05 44.32 46.14 47.62 47.39 48.45